<?xml version="1.0" encoding="UTF-8" standalone="no" ?>
<gpx xmlns="http://www.topografix.com/GPX/1/1" xmlns:xsi="http://www.w3.org/2001/XMLSchema-instance" xsi:schemaLocation="http://www.topografix.com/GPX/1/1 http://www.topografix.com/GPX/1/1/gpx.xsd" version="1.1" creator="VisuGPX - https://www.visugpx.com">
  <metadata>
    <name>83-Me-Tourtour</name>
    <desc><![CDATA[83-Me-Tourtour : le tour de Tourtour 
2024-10-30]]></desc>
  </metadata>
  <trk>
    <name><![CDATA[2024-10-30-Me-Tourtour]]></name>
    <extensions>
      <line xmlns="http://www.topografix.com/GPX/gpx_style/0/2">
        <width>4</width>
      </line>
    </extensions>
    <trkseg>
      <trkpt lat="43.58786" lon="6.3049">
        <ele>647.7</ele>
        <time>2024-10-30T07:53:53.000Z</time>
      </trkpt>
      <trkpt lat="43.58785" lon="6.30478">
        <ele>647.7</ele>
        <time>2024-10-30T07:58:18.000Z</time>
      </trkpt>
      <trkpt lat="43.58785" lon="6.30477">
        <ele>647.7</ele>
        <time>2024-10-30T07:58:19.000Z</time>
      </trkpt>
      <trkpt lat="43.58792" lon="6.30457">
        <ele>648.1</ele>
        <time>2024-10-30T07:58:42.000Z</time>
      </trkpt>
      <trkpt lat="43.58798" lon="6.30448">
        <ele>648.3</ele>
        <time>2024-10-30T07:58:57.000Z</time>
      </trkpt>
      <trkpt lat="43.58805" lon="6.3044">
        <ele>648.4</ele>
        <time>2024-10-30T07:59:12.000Z</time>
      </trkpt>
      <trkpt lat="43.58811" lon="6.30432">
        <ele>648.3</ele>
        <time>2024-10-30T07:59:24.000Z</time>
      </trkpt>
      <trkpt lat="43.58811" lon="6.30431">
        <ele>648.3</ele>
        <time>2024-10-30T07:59:25.000Z</time>
      </trkpt>
      <trkpt lat="43.5882" lon="6.30436">
        <ele>647.2</ele>
        <time>2024-10-30T08:00:35.000Z</time>
      </trkpt>
      <trkpt lat="43.5882" lon="6.30437">
        <ele>647.2</ele>
        <time>2024-10-30T08:00:36.000Z</time>
      </trkpt>
      <trkpt lat="43.58823" lon="6.3042">
        <ele>649</ele>
        <time>2024-10-30T08:01:19.000Z</time>
      </trkpt>
      <trkpt lat="43.58821" lon="6.30444">
        <ele>649.4</ele>
        <time>2024-10-30T08:01:24.000Z</time>
      </trkpt>
      <trkpt lat="43.58822" lon="6.30453">
        <ele>649.4</ele>
        <time>2024-10-30T08:01:26.000Z</time>
      </trkpt>
      <trkpt lat="43.58827" lon="6.30452">
        <ele>649</ele>
        <time>2024-10-30T08:01:39.000Z</time>
      </trkpt>
      <trkpt lat="43.58832" lon="6.30452">
        <ele>649.6</ele>
        <time>2024-10-30T08:01:46.000Z</time>
      </trkpt>
      <trkpt lat="43.58817" lon="6.30453">
        <ele>649</ele>
        <time>2024-10-30T08:01:59.000Z</time>
      </trkpt>
      <trkpt lat="43.58824" lon="6.30448">
        <ele>650</ele>
        <time>2024-10-30T08:02:33.000Z</time>
      </trkpt>
      <trkpt lat="43.58817" lon="6.30456">
        <ele>650.4</ele>
        <time>2024-10-30T08:02:47.000Z</time>
      </trkpt>
      <trkpt lat="43.58817" lon="6.30457">
        <ele>650.4</ele>
        <time>2024-10-30T08:02:48.000Z</time>
      </trkpt>
      <trkpt lat="43.58826" lon="6.30459">
        <ele>649</ele>
        <time>2024-10-30T08:03:34.000Z</time>
      </trkpt>
      <trkpt lat="43.58823" lon="6.30448">
        <ele>648.4</ele>
        <time>2024-10-30T08:04:06.000Z</time>
      </trkpt>
      <trkpt lat="43.58823" lon="6.30447">
        <ele>648.4</ele>
        <time>2024-10-30T08:04:07.000Z</time>
      </trkpt>
      <trkpt lat="43.5882" lon="6.30427">
        <ele>647.4</ele>
        <time>2024-10-30T08:04:43.000Z</time>
      </trkpt>
      <trkpt lat="43.58825" lon="6.30417">
        <ele>647</ele>
        <time>2024-10-30T08:04:53.000Z</time>
      </trkpt>
      <trkpt lat="43.5883" lon="6.3041">
        <ele>646.8</ele>
        <time>2024-10-30T08:05:01.000Z</time>
      </trkpt>
      <trkpt lat="43.58836" lon="6.30401">
        <ele>646.5</ele>
        <time>2024-10-30T08:05:10.000Z</time>
      </trkpt>
      <trkpt lat="43.58836" lon="6.304">
        <ele>646.5</ele>
        <time>2024-10-30T08:05:11.000Z</time>
      </trkpt>
      <trkpt lat="43.58846" lon="6.30382">
        <ele>645.3</ele>
        <time>2024-10-30T08:05:28.000Z</time>
      </trkpt>
      <trkpt lat="43.58851" lon="6.30372">
        <ele>644.4</ele>
        <time>2024-10-30T08:05:37.000Z</time>
      </trkpt>
      <trkpt lat="43.58857" lon="6.30364">
        <ele>643.6</ele>
        <time>2024-10-30T08:05:45.000Z</time>
      </trkpt>
      <trkpt lat="43.58863" lon="6.30355">
        <ele>642.6</ele>
        <time>2024-10-30T08:05:55.000Z</time>
      </trkpt>
      <trkpt lat="43.58868" lon="6.30347">
        <ele>641.8</ele>
        <time>2024-10-30T08:06:03.000Z</time>
      </trkpt>
      <trkpt lat="43.58874" lon="6.30338">
        <ele>641</ele>
        <time>2024-10-30T08:06:11.000Z</time>
      </trkpt>
      <trkpt lat="43.58874" lon="6.30337">
        <ele>640.9</ele>
        <time>2024-10-30T08:06:12.000Z</time>
      </trkpt>
      <trkpt lat="43.58881" lon="6.30318">
        <ele>639.1</ele>
        <time>2024-10-30T08:06:32.000Z</time>
      </trkpt>
      <trkpt lat="43.58887" lon="6.30309">
        <ele>638</ele>
        <time>2024-10-30T08:06:43.000Z</time>
      </trkpt>
      <trkpt lat="43.58893" lon="6.30301">
        <ele>637.2</ele>
        <time>2024-10-30T08:06:51.000Z</time>
      </trkpt>
      <trkpt lat="43.58895" lon="6.30289">
        <ele>636.6</ele>
        <time>2024-10-30T08:07:00.000Z</time>
      </trkpt>
      <trkpt lat="43.58901" lon="6.30281">
        <ele>636.2</ele>
        <time>2024-10-30T08:07:09.000Z</time>
      </trkpt>
      <trkpt lat="43.58907" lon="6.30273">
        <ele>635.8</ele>
        <time>2024-10-30T08:07:18.000Z</time>
      </trkpt>
      <trkpt lat="43.58908" lon="6.30273">
        <ele>635.8</ele>
        <time>2024-10-30T08:07:19.000Z</time>
      </trkpt>
      <trkpt lat="43.58921" lon="6.30259">
        <ele>635.6</ele>
        <time>2024-10-30T08:07:35.000Z</time>
      </trkpt>
      <trkpt lat="43.58928" lon="6.30253">
        <ele>635.5</ele>
        <time>2024-10-30T08:07:43.000Z</time>
      </trkpt>
      <trkpt lat="43.58935" lon="6.30246">
        <ele>635.5</ele>
        <time>2024-10-30T08:07:51.000Z</time>
      </trkpt>
      <trkpt lat="43.58944" lon="6.30245">
        <ele>635.5</ele>
        <time>2024-10-30T08:08:04.000Z</time>
      </trkpt>
      <trkpt lat="43.58952" lon="6.30244">
        <ele>635.5</ele>
        <time>2024-10-30T08:08:11.000Z</time>
      </trkpt>
      <trkpt lat="43.5896" lon="6.30244">
        <ele>635.6</ele>
        <time>2024-10-30T08:08:17.000Z</time>
      </trkpt>
      <trkpt lat="43.58968" lon="6.30243">
        <ele>635.8</ele>
        <time>2024-10-30T08:08:24.000Z</time>
      </trkpt>
      <trkpt lat="43.58969" lon="6.30242">
        <ele>635.8</ele>
        <time>2024-10-30T08:08:25.000Z</time>
      </trkpt>
      <trkpt lat="43.58985" lon="6.30237">
        <ele>636</ele>
        <time>2024-10-30T08:08:37.000Z</time>
      </trkpt>
      <trkpt lat="43.58992" lon="6.30231">
        <ele>636.4</ele>
        <time>2024-10-30T08:08:44.000Z</time>
      </trkpt>
      <trkpt lat="43.58998" lon="6.30223">
        <ele>636.7</ele>
        <time>2024-10-30T08:08:51.000Z</time>
      </trkpt>
      <trkpt lat="43.59003" lon="6.30214">
        <ele>637.2</ele>
        <time>2024-10-30T08:08:59.000Z</time>
      </trkpt>
      <trkpt lat="43.59006" lon="6.30202">
        <ele>637.9</ele>
        <time>2024-10-30T08:09:09.000Z</time>
      </trkpt>
      <trkpt lat="43.59009" lon="6.30192">
        <ele>638.1</ele>
        <time>2024-10-30T08:09:19.000Z</time>
      </trkpt>
      <trkpt lat="43.59013" lon="6.30182">
        <ele>639</ele>
        <time>2024-10-30T08:09:28.000Z</time>
      </trkpt>
      <trkpt lat="43.59014" lon="6.30181">
        <ele>639.1</ele>
        <time>2024-10-30T08:09:29.000Z</time>
      </trkpt>
      <trkpt lat="43.59025" lon="6.30165">
        <ele>640.7</ele>
        <time>2024-10-30T08:09:45.000Z</time>
      </trkpt>
      <trkpt lat="43.59032" lon="6.30157">
        <ele>641.2</ele>
        <time>2024-10-30T08:09:54.000Z</time>
      </trkpt>
      <trkpt lat="43.59039" lon="6.30151">
        <ele>641.7</ele>
        <time>2024-10-30T08:10:04.000Z</time>
      </trkpt>
      <trkpt lat="43.59047" lon="6.30147">
        <ele>642.4</ele>
        <time>2024-10-30T08:10:22.000Z</time>
      </trkpt>
      <trkpt lat="43.59055" lon="6.30144">
        <ele>643.5</ele>
        <time>2024-10-30T08:11:19.000Z</time>
      </trkpt>
      <trkpt lat="43.59056" lon="6.30144">
        <ele>643.5</ele>
        <time>2024-10-30T08:11:20.000Z</time>
      </trkpt>
      <trkpt lat="43.59071" lon="6.30136">
        <ele>644.5</ele>
        <time>2024-10-30T08:11:39.000Z</time>
      </trkpt>
      <trkpt lat="43.59079" lon="6.30133">
        <ele>644.7</ele>
        <time>2024-10-30T08:11:48.000Z</time>
      </trkpt>
      <trkpt lat="43.59088" lon="6.30132">
        <ele>645.4</ele>
        <time>2024-10-30T08:11:57.000Z</time>
      </trkpt>
      <trkpt lat="43.59095" lon="6.30136">
        <ele>645.9</ele>
        <time>2024-10-30T08:12:04.000Z</time>
      </trkpt>
      <trkpt lat="43.59103" lon="6.3014">
        <ele>646.2</ele>
        <time>2024-10-30T08:12:12.000Z</time>
      </trkpt>
      <trkpt lat="43.59111" lon="6.30145">
        <ele>646.4</ele>
        <time>2024-10-30T08:12:26.000Z</time>
      </trkpt>
      <trkpt lat="43.59112" lon="6.30146">
        <ele>646.4</ele>
        <time>2024-10-30T08:12:27.000Z</time>
      </trkpt>
      <trkpt lat="43.59127" lon="6.30157">
        <ele>647.6</ele>
        <time>2024-10-30T08:12:44.000Z</time>
      </trkpt>
      <trkpt lat="43.59136" lon="6.30159">
        <ele>648.4</ele>
        <time>2024-10-30T08:12:52.000Z</time>
      </trkpt>
      <trkpt lat="43.59144" lon="6.30162">
        <ele>649</ele>
        <time>2024-10-30T08:13:01.000Z</time>
      </trkpt>
      <trkpt lat="43.59153" lon="6.30165">
        <ele>650</ele>
        <time>2024-10-30T08:13:09.000Z</time>
      </trkpt>
      <trkpt lat="43.59161" lon="6.30166">
        <ele>650.3</ele>
        <time>2024-10-30T08:13:17.000Z</time>
      </trkpt>
      <trkpt lat="43.5917" lon="6.30165">
        <ele>650.7</ele>
        <time>2024-10-30T08:13:36.000Z</time>
      </trkpt>
      <trkpt lat="43.5917" lon="6.30165">
        <ele>650.8</ele>
        <time>2024-10-30T08:13:37.000Z</time>
      </trkpt>
      <trkpt lat="43.59185" lon="6.30155">
        <ele>651.4</ele>
        <time>2024-10-30T08:14:10.000Z</time>
      </trkpt>
      <trkpt lat="43.59194" lon="6.30154">
        <ele>652.1</ele>
        <time>2024-10-30T08:14:20.000Z</time>
      </trkpt>
      <trkpt lat="43.59202" lon="6.30151">
        <ele>652.5</ele>
        <time>2024-10-30T08:14:27.000Z</time>
      </trkpt>
      <trkpt lat="43.59211" lon="6.30149">
        <ele>652.4</ele>
        <time>2024-10-30T08:14:33.000Z</time>
      </trkpt>
      <trkpt lat="43.59218" lon="6.30146">
        <ele>652.5</ele>
        <time>2024-10-30T08:14:38.000Z</time>
      </trkpt>
      <trkpt lat="43.5922" lon="6.30146">
        <ele>652.5</ele>
        <time>2024-10-30T08:14:39.000Z</time>
      </trkpt>
      <trkpt lat="43.59235" lon="6.30141">
        <ele>652</ele>
        <time>2024-10-30T08:14:52.000Z</time>
      </trkpt>
      <trkpt lat="43.59243" lon="6.30138">
        <ele>651.8</ele>
        <time>2024-10-30T08:14:59.000Z</time>
      </trkpt>
      <trkpt lat="43.59251" lon="6.30135">
        <ele>651.7</ele>
        <time>2024-10-30T08:15:05.000Z</time>
      </trkpt>
      <trkpt lat="43.59259" lon="6.30133">
        <ele>651.4</ele>
        <time>2024-10-30T08:15:11.000Z</time>
      </trkpt>
      <trkpt lat="43.59267" lon="6.30129">
        <ele>650.8</ele>
        <time>2024-10-30T08:15:18.000Z</time>
      </trkpt>
      <trkpt lat="43.59276" lon="6.30125">
        <ele>650.3</ele>
        <time>2024-10-30T08:15:25.000Z</time>
      </trkpt>
      <trkpt lat="43.59284" lon="6.30121">
        <ele>649.8</ele>
        <time>2024-10-30T08:15:32.000Z</time>
      </trkpt>
      <trkpt lat="43.59292" lon="6.30119">
        <ele>649.2</ele>
        <time>2024-10-30T08:15:39.000Z</time>
      </trkpt>
      <trkpt lat="43.59293" lon="6.30119">
        <ele>649.1</ele>
        <time>2024-10-30T08:15:40.000Z</time>
      </trkpt>
      <trkpt lat="43.59309" lon="6.30114">
        <ele>648.7</ele>
        <time>2024-10-30T08:15:54.000Z</time>
      </trkpt>
      <trkpt lat="43.59317" lon="6.3011">
        <ele>648.7</ele>
        <time>2024-10-30T08:16:00.000Z</time>
      </trkpt>
      <trkpt lat="43.59325" lon="6.30107">
        <ele>648.6</ele>
        <time>2024-10-30T08:16:06.000Z</time>
      </trkpt>
      <trkpt lat="43.59333" lon="6.30103">
        <ele>648.4</ele>
        <time>2024-10-30T08:16:12.000Z</time>
      </trkpt>
      <trkpt lat="43.59341" lon="6.30101">
        <ele>648</ele>
        <time>2024-10-30T08:16:19.000Z</time>
      </trkpt>
      <trkpt lat="43.59349" lon="6.30098">
        <ele>647.7</ele>
        <time>2024-10-30T08:16:26.000Z</time>
      </trkpt>
      <trkpt lat="43.59357" lon="6.30096">
        <ele>647.5</ele>
        <time>2024-10-30T08:16:32.000Z</time>
      </trkpt>
      <trkpt lat="43.59365" lon="6.30095">
        <ele>647</ele>
        <time>2024-10-30T08:16:39.000Z</time>
      </trkpt>
      <trkpt lat="43.59374" lon="6.30091">
        <ele>646.4</ele>
        <time>2024-10-30T08:16:46.000Z</time>
      </trkpt>
      <trkpt lat="43.59375" lon="6.30091">
        <ele>646.3</ele>
        <time>2024-10-30T08:16:47.000Z</time>
      </trkpt>
      <trkpt lat="43.59389" lon="6.30084">
        <ele>645.4</ele>
        <time>2024-10-30T08:16:59.000Z</time>
      </trkpt>
      <trkpt lat="43.59397" lon="6.30082">
        <ele>645.2</ele>
        <time>2024-10-30T08:17:05.000Z</time>
      </trkpt>
      <trkpt lat="43.59405" lon="6.30079">
        <ele>645.1</ele>
        <time>2024-10-30T08:17:11.000Z</time>
      </trkpt>
      <trkpt lat="43.59413" lon="6.30077">
        <ele>645.1</ele>
        <time>2024-10-30T08:17:17.000Z</time>
      </trkpt>
      <trkpt lat="43.59422" lon="6.30073">
        <ele>645.2</ele>
        <time>2024-10-30T08:17:24.000Z</time>
      </trkpt>
      <trkpt lat="43.5943" lon="6.3007">
        <ele>645.2</ele>
        <time>2024-10-30T08:17:32.000Z</time>
      </trkpt>
      <trkpt lat="43.59438" lon="6.30067">
        <ele>645.2</ele>
        <time>2024-10-30T08:17:39.000Z</time>
      </trkpt>
      <trkpt lat="43.59447" lon="6.30064">
        <ele>645.3</ele>
        <time>2024-10-30T08:17:46.000Z</time>
      </trkpt>
      <trkpt lat="43.59455" lon="6.30062">
        <ele>645.6</ele>
        <time>2024-10-30T08:17:53.000Z</time>
      </trkpt>
      <trkpt lat="43.59456" lon="6.30061">
        <ele>645.7</ele>
        <time>2024-10-30T08:17:54.000Z</time>
      </trkpt>
      <trkpt lat="43.59471" lon="6.30057">
        <ele>645.9</ele>
        <time>2024-10-30T08:18:05.000Z</time>
      </trkpt>
      <trkpt lat="43.59479" lon="6.30052">
        <ele>646.5</ele>
        <time>2024-10-30T08:18:13.000Z</time>
      </trkpt>
      <trkpt lat="43.59487" lon="6.30049">
        <ele>647.2</ele>
        <time>2024-10-30T08:18:20.000Z</time>
      </trkpt>
      <trkpt lat="43.59494" lon="6.30044">
        <ele>648</ele>
        <time>2024-10-30T08:18:27.000Z</time>
      </trkpt>
      <trkpt lat="43.59501" lon="6.30039">
        <ele>648.6</ele>
        <time>2024-10-30T08:18:34.000Z</time>
      </trkpt>
      <trkpt lat="43.59509" lon="6.30034">
        <ele>648.9</ele>
        <time>2024-10-30T08:18:41.000Z</time>
      </trkpt>
      <trkpt lat="43.59516" lon="6.30027">
        <ele>649.4</ele>
        <time>2024-10-30T08:18:48.000Z</time>
      </trkpt>
      <trkpt lat="43.59523" lon="6.30022">
        <ele>649.8</ele>
        <time>2024-10-30T08:19:06.000Z</time>
      </trkpt>
      <trkpt lat="43.59524" lon="6.30021">
        <ele>649.8</ele>
        <time>2024-10-30T08:19:07.000Z</time>
      </trkpt>
      <trkpt lat="43.59539" lon="6.30012">
        <ele>649.9</ele>
        <time>2024-10-30T08:19:44.000Z</time>
      </trkpt>
      <trkpt lat="43.59545" lon="6.30004">
        <ele>649.4</ele>
        <time>2024-10-30T08:19:52.000Z</time>
      </trkpt>
      <trkpt lat="43.5955" lon="6.29996">
        <ele>648.9</ele>
        <time>2024-10-30T08:19:59.000Z</time>
      </trkpt>
      <trkpt lat="43.59555" lon="6.29988">
        <ele>648.6</ele>
        <time>2024-10-30T08:20:05.000Z</time>
      </trkpt>
      <trkpt lat="43.5956" lon="6.29979">
        <ele>648.6</ele>
        <time>2024-10-30T08:20:12.000Z</time>
      </trkpt>
      <trkpt lat="43.59561" lon="6.29978">
        <ele>648.7</ele>
        <time>2024-10-30T08:20:13.000Z</time>
      </trkpt>
      <trkpt lat="43.59572" lon="6.29963">
        <ele>648.9</ele>
        <time>2024-10-30T08:20:26.000Z</time>
      </trkpt>
      <trkpt lat="43.59579" lon="6.29954">
        <ele>648.9</ele>
        <time>2024-10-30T08:20:33.000Z</time>
      </trkpt>
      <trkpt lat="43.59585" lon="6.29947">
        <ele>648.9</ele>
        <time>2024-10-30T08:20:40.000Z</time>
      </trkpt>
      <trkpt lat="43.59591" lon="6.2994">
        <ele>649.2</ele>
        <time>2024-10-30T08:20:47.000Z</time>
      </trkpt>
      <trkpt lat="43.59598" lon="6.29932">
        <ele>649.2</ele>
        <time>2024-10-30T08:20:54.000Z</time>
      </trkpt>
      <trkpt lat="43.59606" lon="6.29927">
        <ele>648.7</ele>
        <time>2024-10-30T08:21:01.000Z</time>
      </trkpt>
      <trkpt lat="43.59613" lon="6.29921">
        <ele>648.5</ele>
        <time>2024-10-30T08:21:08.000Z</time>
      </trkpt>
      <trkpt lat="43.5962" lon="6.29916">
        <ele>648.8</ele>
        <time>2024-10-30T08:21:15.000Z</time>
      </trkpt>
      <trkpt lat="43.59621" lon="6.29915">
        <ele>648.8</ele>
        <time>2024-10-30T08:21:16.000Z</time>
      </trkpt>
      <trkpt lat="43.59636" lon="6.29905">
        <ele>648.5</ele>
        <time>2024-10-30T08:21:30.000Z</time>
      </trkpt>
      <trkpt lat="43.59643" lon="6.29901">
        <ele>648.2</ele>
        <time>2024-10-30T08:21:37.000Z</time>
      </trkpt>
      <trkpt lat="43.59651" lon="6.29897">
        <ele>648.3</ele>
        <time>2024-10-30T08:21:44.000Z</time>
      </trkpt>
      <trkpt lat="43.59658" lon="6.29892">
        <ele>648.3</ele>
        <time>2024-10-30T08:21:50.000Z</time>
      </trkpt>
      <trkpt lat="43.59666" lon="6.29888">
        <ele>648.1</ele>
        <time>2024-10-30T08:21:57.000Z</time>
      </trkpt>
      <trkpt lat="43.59673" lon="6.29881">
        <ele>648</ele>
        <time>2024-10-30T08:22:04.000Z</time>
      </trkpt>
      <trkpt lat="43.5968" lon="6.29874">
        <ele>648.1</ele>
        <time>2024-10-30T08:22:11.000Z</time>
      </trkpt>
      <trkpt lat="43.59687" lon="6.29866">
        <ele>648.2</ele>
        <time>2024-10-30T08:22:18.000Z</time>
      </trkpt>
      <trkpt lat="43.59687" lon="6.29865">
        <ele>648.2</ele>
        <time>2024-10-30T08:22:19.000Z</time>
      </trkpt>
      <trkpt lat="43.59698" lon="6.29847">
        <ele>648.2</ele>
        <time>2024-10-30T08:22:33.000Z</time>
      </trkpt>
      <trkpt lat="43.59702" lon="6.29837">
        <ele>648.1</ele>
        <time>2024-10-30T08:22:40.000Z</time>
      </trkpt>
      <trkpt lat="43.59707" lon="6.29829">
        <ele>648</ele>
        <time>2024-10-30T08:22:47.000Z</time>
      </trkpt>
      <trkpt lat="43.59711" lon="6.29818">
        <ele>647.7</ele>
        <time>2024-10-30T08:22:55.000Z</time>
      </trkpt>
      <trkpt lat="43.59717" lon="6.29809">
        <ele>647.4</ele>
        <time>2024-10-30T08:23:02.000Z</time>
      </trkpt>
      <trkpt lat="43.59723" lon="6.298">
        <ele>647.2</ele>
        <time>2024-10-30T08:23:09.000Z</time>
      </trkpt>
      <trkpt lat="43.59729" lon="6.29793">
        <ele>646.8</ele>
        <time>2024-10-30T08:23:16.000Z</time>
      </trkpt>
      <trkpt lat="43.59733" lon="6.29782">
        <ele>646.5</ele>
        <time>2024-10-30T08:23:23.000Z</time>
      </trkpt>
      <trkpt lat="43.59734" lon="6.29781">
        <ele>646.5</ele>
        <time>2024-10-30T08:23:24.000Z</time>
      </trkpt>
      <trkpt lat="43.59746" lon="6.2977">
        <ele>646.4</ele>
        <time>2024-10-30T08:23:36.000Z</time>
      </trkpt>
      <trkpt lat="43.59752" lon="6.29761">
        <ele>646.5</ele>
        <time>2024-10-30T08:23:45.000Z</time>
      </trkpt>
      <trkpt lat="43.59757" lon="6.29752">
        <ele>646</ele>
        <time>2024-10-30T08:23:56.000Z</time>
      </trkpt>
      <trkpt lat="43.59761" lon="6.29742">
        <ele>645.4</ele>
        <time>2024-10-30T08:24:04.000Z</time>
      </trkpt>
      <trkpt lat="43.59765" lon="6.29731">
        <ele>644.9</ele>
        <time>2024-10-30T08:24:12.000Z</time>
      </trkpt>
      <trkpt lat="43.59768" lon="6.2972">
        <ele>644.3</ele>
        <time>2024-10-30T08:24:19.000Z</time>
      </trkpt>
      <trkpt lat="43.59772" lon="6.29709">
        <ele>643.8</ele>
        <time>2024-10-30T08:24:26.000Z</time>
      </trkpt>
      <trkpt lat="43.59773" lon="6.29707">
        <ele>643.7</ele>
        <time>2024-10-30T08:24:27.000Z</time>
      </trkpt>
      <trkpt lat="43.59779" lon="6.29686">
        <ele>642.9</ele>
        <time>2024-10-30T08:24:39.000Z</time>
      </trkpt>
      <trkpt lat="43.59781" lon="6.29675">
        <ele>642.3</ele>
        <time>2024-10-30T08:24:46.000Z</time>
      </trkpt>
      <trkpt lat="43.59784" lon="6.29663">
        <ele>641.8</ele>
        <time>2024-10-30T08:24:53.000Z</time>
      </trkpt>
      <trkpt lat="43.59788" lon="6.29653">
        <ele>641</ele>
        <time>2024-10-30T08:25:00.000Z</time>
      </trkpt>
      <trkpt lat="43.5979" lon="6.29642">
        <ele>640.9</ele>
        <time>2024-10-30T08:25:07.000Z</time>
      </trkpt>
      <trkpt lat="43.59793" lon="6.29631">
        <ele>640.7</ele>
        <time>2024-10-30T08:25:13.000Z</time>
      </trkpt>
      <trkpt lat="43.59796" lon="6.29621">
        <ele>640.5</ele>
        <time>2024-10-30T08:25:19.000Z</time>
      </trkpt>
      <trkpt lat="43.59799" lon="6.2961">
        <ele>640</ele>
        <time>2024-10-30T08:25:25.000Z</time>
      </trkpt>
      <trkpt lat="43.59802" lon="6.29599">
        <ele>639.7</ele>
        <time>2024-10-30T08:25:32.000Z</time>
      </trkpt>
      <trkpt lat="43.59803" lon="6.29597">
        <ele>639.6</ele>
        <time>2024-10-30T08:25:33.000Z</time>
      </trkpt>
      <trkpt lat="43.59808" lon="6.29578">
        <ele>639</ele>
        <time>2024-10-30T08:25:45.000Z</time>
      </trkpt>
      <trkpt lat="43.59812" lon="6.29568">
        <ele>639</ele>
        <time>2024-10-30T08:25:51.000Z</time>
      </trkpt>
      <trkpt lat="43.59815" lon="6.29557">
        <ele>639</ele>
        <time>2024-10-30T08:25:57.000Z</time>
      </trkpt>
      <trkpt lat="43.59817" lon="6.29547">
        <ele>638.9</ele>
        <time>2024-10-30T08:26:05.000Z</time>
      </trkpt>
      <trkpt lat="43.5982" lon="6.29536">
        <ele>639</ele>
        <time>2024-10-30T08:26:11.000Z</time>
      </trkpt>
      <trkpt lat="43.59823" lon="6.29526">
        <ele>639.1</ele>
        <time>2024-10-30T08:26:17.000Z</time>
      </trkpt>
      <trkpt lat="43.59827" lon="6.29516">
        <ele>639</ele>
        <time>2024-10-30T08:26:23.000Z</time>
      </trkpt>
      <trkpt lat="43.5983" lon="6.29504">
        <ele>639</ele>
        <time>2024-10-30T08:26:30.000Z</time>
      </trkpt>
      <trkpt lat="43.59832" lon="6.29492">
        <ele>639.1</ele>
        <time>2024-10-30T08:26:38.000Z</time>
      </trkpt>
      <trkpt lat="43.59832" lon="6.29491">
        <ele>639.2</ele>
        <time>2024-10-30T08:26:39.000Z</time>
      </trkpt>
      <trkpt lat="43.59832" lon="6.29469">
        <ele>639</ele>
        <time>2024-10-30T08:26:53.000Z</time>
      </trkpt>
      <trkpt lat="43.59832" lon="6.29457">
        <ele>638.8</ele>
        <time>2024-10-30T08:27:01.000Z</time>
      </trkpt>
      <trkpt lat="43.5983" lon="6.29447">
        <ele>638.9</ele>
        <time>2024-10-30T08:27:08.000Z</time>
      </trkpt>
      <trkpt lat="43.59826" lon="6.29438">
        <ele>639</ele>
        <time>2024-10-30T08:27:14.000Z</time>
      </trkpt>
      <trkpt lat="43.59823" lon="6.29426">
        <ele>639</ele>
        <time>2024-10-30T08:27:21.000Z</time>
      </trkpt>
      <trkpt lat="43.59823" lon="6.29414">
        <ele>638.9</ele>
        <time>2024-10-30T08:27:28.000Z</time>
      </trkpt>
      <trkpt lat="43.59825" lon="6.29404">
        <ele>638.8</ele>
        <time>2024-10-30T08:27:34.000Z</time>
      </trkpt>
      <trkpt lat="43.59829" lon="6.29393">
        <ele>639.1</ele>
        <time>2024-10-30T08:27:40.000Z</time>
      </trkpt>
      <trkpt lat="43.5983" lon="6.29391">
        <ele>639.1</ele>
        <time>2024-10-30T08:27:41.000Z</time>
      </trkpt>
      <trkpt lat="43.59836" lon="6.29373">
        <ele>639.5</ele>
        <time>2024-10-30T08:27:52.000Z</time>
      </trkpt>
      <trkpt lat="43.59835" lon="6.29362">
        <ele>639.9</ele>
        <time>2024-10-30T08:27:59.000Z</time>
      </trkpt>
      <trkpt lat="43.59833" lon="6.2935">
        <ele>640.2</ele>
        <time>2024-10-30T08:28:06.000Z</time>
      </trkpt>
      <trkpt lat="43.59831" lon="6.29338">
        <ele>640.1</ele>
        <time>2024-10-30T08:28:13.000Z</time>
      </trkpt>
      <trkpt lat="43.5983" lon="6.29328">
        <ele>640.1</ele>
        <time>2024-10-30T08:28:20.000Z</time>
      </trkpt>
      <trkpt lat="43.59832" lon="6.29317">
        <ele>640</ele>
        <time>2024-10-30T08:28:26.000Z</time>
      </trkpt>
      <trkpt lat="43.59834" lon="6.29307">
        <ele>640.1</ele>
        <time>2024-10-30T08:28:32.000Z</time>
      </trkpt>
      <trkpt lat="43.59838" lon="6.29298">
        <ele>640</ele>
        <time>2024-10-30T08:28:38.000Z</time>
      </trkpt>
      <trkpt lat="43.59842" lon="6.29288">
        <ele>639.9</ele>
        <time>2024-10-30T08:28:44.000Z</time>
      </trkpt>
      <trkpt lat="43.59843" lon="6.29286">
        <ele>639.9</ele>
        <time>2024-10-30T08:28:44.900Z</time>
      </trkpt>
      <trkpt lat="43.59849" lon="6.29268">
        <ele>639.8</ele>
        <time>2024-10-30T08:28:56.000Z</time>
      </trkpt>
      <trkpt lat="43.59852" lon="6.29258">
        <ele>639.8</ele>
        <time>2024-10-30T08:29:02.000Z</time>
      </trkpt>
      <trkpt lat="43.59854" lon="6.29247">
        <ele>640</ele>
        <time>2024-10-30T08:29:09.000Z</time>
      </trkpt>
      <trkpt lat="43.59856" lon="6.29235">
        <ele>640</ele>
        <time>2024-10-30T08:29:16.000Z</time>
      </trkpt>
      <trkpt lat="43.59857" lon="6.29223">
        <ele>640.2</ele>
        <time>2024-10-30T08:29:23.000Z</time>
      </trkpt>
      <trkpt lat="43.5986" lon="6.29212">
        <ele>640.3</ele>
        <time>2024-10-30T08:29:30.000Z</time>
      </trkpt>
      <trkpt lat="43.59863" lon="6.29201">
        <ele>640.4</ele>
        <time>2024-10-30T08:29:36.000Z</time>
      </trkpt>
      <trkpt lat="43.59863" lon="6.2919">
        <ele>640.4</ele>
        <time>2024-10-30T08:29:43.000Z</time>
      </trkpt>
      <trkpt lat="43.59861" lon="6.29179">
        <ele>641</ele>
        <time>2024-10-30T08:29:51.000Z</time>
      </trkpt>
      <trkpt lat="43.59861" lon="6.29177">
        <ele>641</ele>
        <time>2024-10-30T08:29:52.000Z</time>
      </trkpt>
      <trkpt lat="43.59862" lon="6.29155">
        <ele>641.1</ele>
        <time>2024-10-30T08:30:04.000Z</time>
      </trkpt>
      <trkpt lat="43.5986" lon="6.29144">
        <ele>641.3</ele>
        <time>2024-10-30T08:30:11.000Z</time>
      </trkpt>
      <trkpt lat="43.59858" lon="6.29133">
        <ele>641.4</ele>
        <time>2024-10-30T08:30:18.000Z</time>
      </trkpt>
      <trkpt lat="43.59858" lon="6.29121">
        <ele>641.1</ele>
        <time>2024-10-30T08:30:24.000Z</time>
      </trkpt>
      <trkpt lat="43.59856" lon="6.29109">
        <ele>640.8</ele>
        <time>2024-10-30T08:30:34.000Z</time>
      </trkpt>
      <trkpt lat="43.59853" lon="6.29097">
        <ele>640.5</ele>
        <time>2024-10-30T08:30:51.000Z</time>
      </trkpt>
      <trkpt lat="43.59851" lon="6.29085">
        <ele>640.1</ele>
        <time>2024-10-30T08:32:37.000Z</time>
      </trkpt>
      <trkpt lat="43.59851" lon="6.29085">
        <ele>640.1</ele>
        <time>2024-10-30T08:32:38.000Z</time>
      </trkpt>
      <trkpt lat="43.59854" lon="6.29096">
        <ele>640</ele>
        <time>2024-10-30T08:39:06.000Z</time>
      </trkpt>
      <trkpt lat="43.59855" lon="6.29097">
        <ele>640</ele>
        <time>2024-10-30T08:39:07.000Z</time>
      </trkpt>
      <trkpt lat="43.5986" lon="6.29118">
        <ele>640.4</ele>
        <time>2024-10-30T08:39:28.000Z</time>
      </trkpt>
      <trkpt lat="43.59861" lon="6.29129">
        <ele>640.4</ele>
        <time>2024-10-30T08:39:37.000Z</time>
      </trkpt>
      <trkpt lat="43.59863" lon="6.2914">
        <ele>640.7</ele>
        <time>2024-10-30T08:39:46.000Z</time>
      </trkpt>
      <trkpt lat="43.59864" lon="6.29152">
        <ele>640.9</ele>
        <time>2024-10-30T08:39:56.000Z</time>
      </trkpt>
      <trkpt lat="43.59864" lon="6.29164">
        <ele>641.1</ele>
        <time>2024-10-30T08:40:05.000Z</time>
      </trkpt>
      <trkpt lat="43.59865" lon="6.29176">
        <ele>641</ele>
        <time>2024-10-30T08:40:14.000Z</time>
      </trkpt>
      <trkpt lat="43.59866" lon="6.29177">
        <ele>641</ele>
        <time>2024-10-30T08:40:15.000Z</time>
      </trkpt>
      <trkpt lat="43.59865" lon="6.29198">
        <ele>640.4</ele>
        <time>2024-10-30T08:40:28.000Z</time>
      </trkpt>
      <trkpt lat="43.59864" lon="6.2921">
        <ele>640.2</ele>
        <time>2024-10-30T08:40:35.000Z</time>
      </trkpt>
      <trkpt lat="43.59861" lon="6.29221">
        <ele>640.1</ele>
        <time>2024-10-30T08:40:42.000Z</time>
      </trkpt>
      <trkpt lat="43.59858" lon="6.29233">
        <ele>639.9</ele>
        <time>2024-10-30T08:40:50.000Z</time>
      </trkpt>
      <trkpt lat="43.59856" lon="6.29243">
        <ele>639.6</ele>
        <time>2024-10-30T08:40:57.000Z</time>
      </trkpt>
      <trkpt lat="43.59854" lon="6.29254">
        <ele>639.7</ele>
        <time>2024-10-30T08:41:04.000Z</time>
      </trkpt>
      <trkpt lat="43.59852" lon="6.29266">
        <ele>639.6</ele>
        <time>2024-10-30T08:41:11.000Z</time>
      </trkpt>
      <trkpt lat="43.59848" lon="6.29276">
        <ele>639.4</ele>
        <time>2024-10-30T08:41:18.000Z</time>
      </trkpt>
      <trkpt lat="43.59847" lon="6.29278">
        <ele>639.4</ele>
        <time>2024-10-30T08:41:19.000Z</time>
      </trkpt>
      <trkpt lat="43.59839" lon="6.29295">
        <ele>639</ele>
        <time>2024-10-30T08:41:32.000Z</time>
      </trkpt>
      <trkpt lat="43.59836" lon="6.29305">
        <ele>639</ele>
        <time>2024-10-30T08:41:39.000Z</time>
      </trkpt>
      <trkpt lat="43.59834" lon="6.29316">
        <ele>639</ele>
        <time>2024-10-30T08:41:46.000Z</time>
      </trkpt>
      <trkpt lat="43.59834" lon="6.29328">
        <ele>639</ele>
        <time>2024-10-30T08:41:54.000Z</time>
      </trkpt>
      <trkpt lat="43.59835" lon="6.29339">
        <ele>639.2</ele>
        <time>2024-10-30T08:42:02.000Z</time>
      </trkpt>
      <trkpt lat="43.59837" lon="6.2935">
        <ele>639.4</ele>
        <time>2024-10-30T08:42:09.000Z</time>
      </trkpt>
      <trkpt lat="43.59837" lon="6.29361">
        <ele>639.5</ele>
        <time>2024-10-30T08:42:16.000Z</time>
      </trkpt>
      <trkpt lat="43.59836" lon="6.29373">
        <ele>639.5</ele>
        <time>2024-10-30T08:42:23.000Z</time>
      </trkpt>
      <trkpt lat="43.59835" lon="6.29375">
        <ele>639.5</ele>
        <time>2024-10-30T08:42:24.000Z</time>
      </trkpt>
      <trkpt lat="43.59829" lon="6.29395">
        <ele>638.8</ele>
        <time>2024-10-30T08:42:37.000Z</time>
      </trkpt>
      <trkpt lat="43.59827" lon="6.29407">
        <ele>638.3</ele>
        <time>2024-10-30T08:42:44.000Z</time>
      </trkpt>
      <trkpt lat="43.59829" lon="6.29418">
        <ele>637.9</ele>
        <time>2024-10-30T08:42:52.000Z</time>
      </trkpt>
      <trkpt lat="43.59832" lon="6.29428">
        <ele>637.7</ele>
        <time>2024-10-30T08:42:59.000Z</time>
      </trkpt>
      <trkpt lat="43.59835" lon="6.29439">
        <ele>637.6</ele>
        <time>2024-10-30T08:43:08.000Z</time>
      </trkpt>
      <trkpt lat="43.59836" lon="6.29451">
        <ele>637.8</ele>
        <time>2024-10-30T08:43:19.000Z</time>
      </trkpt>
      <trkpt lat="43.59836" lon="6.29462">
        <ele>637.9</ele>
        <time>2024-10-30T08:43:25.000Z</time>
      </trkpt>
      <trkpt lat="43.59836" lon="6.29464">
        <ele>638</ele>
        <time>2024-10-30T08:43:26.000Z</time>
      </trkpt>
      <trkpt lat="43.59835" lon="6.29485">
        <ele>638.3</ele>
        <time>2024-10-30T08:43:38.000Z</time>
      </trkpt>
      <trkpt lat="43.59832" lon="6.29495">
        <ele>638.4</ele>
        <time>2024-10-30T08:43:45.000Z</time>
      </trkpt>
      <trkpt lat="43.59828" lon="6.29506">
        <ele>638.4</ele>
        <time>2024-10-30T08:43:52.000Z</time>
      </trkpt>
      <trkpt lat="43.59825" lon="6.29517">
        <ele>638.2</ele>
        <time>2024-10-30T08:43:58.000Z</time>
      </trkpt>
      <trkpt lat="43.59822" lon="6.29528">
        <ele>638</ele>
        <time>2024-10-30T08:44:05.000Z</time>
      </trkpt>
      <trkpt lat="43.59822" lon="6.29539">
        <ele>638.1</ele>
        <time>2024-10-30T08:44:12.000Z</time>
      </trkpt>
      <trkpt lat="43.59818" lon="6.29549">
        <ele>637.8</ele>
        <time>2024-10-30T08:44:19.000Z</time>
      </trkpt>
      <trkpt lat="43.59817" lon="6.2956">
        <ele>638</ele>
        <time>2024-10-30T08:44:25.000Z</time>
      </trkpt>
      <trkpt lat="43.59814" lon="6.2957">
        <ele>638.2</ele>
        <time>2024-10-30T08:44:31.000Z</time>
      </trkpt>
      <trkpt lat="43.59813" lon="6.29571">
        <ele>638.2</ele>
        <time>2024-10-30T08:44:32.000Z</time>
      </trkpt>
      <trkpt lat="43.59808" lon="6.29591">
        <ele>638.1</ele>
        <time>2024-10-30T08:44:43.000Z</time>
      </trkpt>
      <trkpt lat="43.59805" lon="6.29601">
        <ele>638.3</ele>
        <time>2024-10-30T08:44:49.000Z</time>
      </trkpt>
      <trkpt lat="43.59801" lon="6.29612">
        <ele>638.3</ele>
        <time>2024-10-30T08:44:56.000Z</time>
      </trkpt>
      <trkpt lat="43.59798" lon="6.29623">
        <ele>638.2</ele>
        <time>2024-10-30T08:45:03.000Z</time>
      </trkpt>
      <trkpt lat="43.59794" lon="6.29633">
        <ele>638.2</ele>
        <time>2024-10-30T08:45:09.000Z</time>
      </trkpt>
      <trkpt lat="43.59791" lon="6.29643">
        <ele>638.9</ele>
        <time>2024-10-30T08:45:16.000Z</time>
      </trkpt>
      <trkpt lat="43.59788" lon="6.29655">
        <ele>639.4</ele>
        <time>2024-10-30T08:45:24.000Z</time>
      </trkpt>
      <trkpt lat="43.59785" lon="6.29666">
        <ele>639.8</ele>
        <time>2024-10-30T08:45:32.000Z</time>
      </trkpt>
      <trkpt lat="43.59784" lon="6.29668">
        <ele>639.9</ele>
        <time>2024-10-30T08:45:33.000Z</time>
      </trkpt>
      <trkpt lat="43.59779" lon="6.29688">
        <ele>641</ele>
        <time>2024-10-30T08:45:47.000Z</time>
      </trkpt>
      <trkpt lat="43.59777" lon="6.297">
        <ele>641.4</ele>
        <time>2024-10-30T08:45:55.000Z</time>
      </trkpt>
      <trkpt lat="43.59773" lon="6.2971">
        <ele>642.2</ele>
        <time>2024-10-30T08:46:02.000Z</time>
      </trkpt>
      <trkpt lat="43.59772" lon="6.29721">
        <ele>643</ele>
        <time>2024-10-30T08:46:10.000Z</time>
      </trkpt>
      <trkpt lat="43.59769" lon="6.29732">
        <ele>643.7</ele>
        <time>2024-10-30T08:46:20.000Z</time>
      </trkpt>
      <trkpt lat="43.59768" lon="6.29744">
        <ele>644.4</ele>
        <time>2024-10-30T08:46:27.000Z</time>
      </trkpt>
      <trkpt lat="43.59775" lon="6.2975">
        <ele>646.3</ele>
        <time>2024-10-30T08:46:51.000Z</time>
      </trkpt>
      <trkpt lat="43.59776" lon="6.29749">
        <ele>646.5</ele>
        <time>2024-10-30T08:46:52.000Z</time>
      </trkpt>
      <trkpt lat="43.59789" lon="6.29739">
        <ele>647.7</ele>
        <time>2024-10-30T08:47:07.000Z</time>
      </trkpt>
      <trkpt lat="43.59797" lon="6.29734">
        <ele>647.8</ele>
        <time>2024-10-30T08:47:16.000Z</time>
      </trkpt>
      <trkpt lat="43.59804" lon="6.2973">
        <ele>647.7</ele>
        <time>2024-10-30T08:47:23.000Z</time>
      </trkpt>
      <trkpt lat="43.59812" lon="6.29727">
        <ele>647.8</ele>
        <time>2024-10-30T08:47:29.000Z</time>
      </trkpt>
      <trkpt lat="43.5982" lon="6.29724">
        <ele>647.9</ele>
        <time>2024-10-30T08:47:35.000Z</time>
      </trkpt>
      <trkpt lat="43.59827" lon="6.29721">
        <ele>648.1</ele>
        <time>2024-10-30T08:47:40.000Z</time>
      </trkpt>
      <trkpt lat="43.59835" lon="6.29718">
        <ele>648.5</ele>
        <time>2024-10-30T08:47:46.000Z</time>
      </trkpt>
      <trkpt lat="43.59844" lon="6.29717">
        <ele>648.4</ele>
        <time>2024-10-30T08:47:53.000Z</time>
      </trkpt>
      <trkpt lat="43.59845" lon="6.29716">
        <ele>648.4</ele>
        <time>2024-10-30T08:47:54.000Z</time>
      </trkpt>
      <trkpt lat="43.5986" lon="6.29714">
        <ele>648.6</ele>
        <time>2024-10-30T08:48:07.000Z</time>
      </trkpt>
      <trkpt lat="43.59869" lon="6.29712">
        <ele>648.5</ele>
        <time>2024-10-30T08:48:14.000Z</time>
      </trkpt>
      <trkpt lat="43.59877" lon="6.29711">
        <ele>648.5</ele>
        <time>2024-10-30T08:48:22.000Z</time>
      </trkpt>
      <trkpt lat="43.59885" lon="6.29709">
        <ele>648.3</ele>
        <time>2024-10-30T08:48:29.000Z</time>
      </trkpt>
      <trkpt lat="43.59893" lon="6.29706">
        <ele>648.5</ele>
        <time>2024-10-30T08:48:36.000Z</time>
      </trkpt>
      <trkpt lat="43.59901" lon="6.29703">
        <ele>648.6</ele>
        <time>2024-10-30T08:48:42.000Z</time>
      </trkpt>
      <trkpt lat="43.5991" lon="6.29703">
        <ele>648.5</ele>
        <time>2024-10-30T08:48:49.000Z</time>
      </trkpt>
      <trkpt lat="43.59918" lon="6.29701">
        <ele>648.4</ele>
        <time>2024-10-30T08:48:55.000Z</time>
      </trkpt>
      <trkpt lat="43.59919" lon="6.29701">
        <ele>648.4</ele>
        <time>2024-10-30T08:48:56.000Z</time>
      </trkpt>
      <trkpt lat="43.59935" lon="6.29696">
        <ele>648.4</ele>
        <time>2024-10-30T08:49:10.000Z</time>
      </trkpt>
      <trkpt lat="43.59943" lon="6.29693">
        <ele>648.3</ele>
        <time>2024-10-30T08:49:17.000Z</time>
      </trkpt>
      <trkpt lat="43.5995" lon="6.29687">
        <ele>648.2</ele>
        <time>2024-10-30T08:49:24.000Z</time>
      </trkpt>
      <trkpt lat="43.59958" lon="6.29684">
        <ele>648.1</ele>
        <time>2024-10-30T08:49:30.000Z</time>
      </trkpt>
      <trkpt lat="43.59964" lon="6.2968">
        <ele>648.1</ele>
        <time>2024-10-30T08:49:36.000Z</time>
      </trkpt>
      <trkpt lat="43.59971" lon="6.29675">
        <ele>648.2</ele>
        <time>2024-10-30T08:49:41.000Z</time>
      </trkpt>
      <trkpt lat="43.5998" lon="6.29671">
        <ele>647.9</ele>
        <time>2024-10-30T08:49:49.000Z</time>
      </trkpt>
      <trkpt lat="43.59987" lon="6.29667">
        <ele>647.7</ele>
        <time>2024-10-30T08:49:56.000Z</time>
      </trkpt>
      <trkpt lat="43.59988" lon="6.29666">
        <ele>647.7</ele>
        <time>2024-10-30T08:49:57.000Z</time>
      </trkpt>
      <trkpt lat="43.60003" lon="6.29657">
        <ele>647.4</ele>
        <time>2024-10-30T08:50:11.000Z</time>
      </trkpt>
      <trkpt lat="43.6001" lon="6.29651">
        <ele>647.2</ele>
        <time>2024-10-30T08:50:18.000Z</time>
      </trkpt>
      <trkpt lat="43.60016" lon="6.29645">
        <ele>647.2</ele>
        <time>2024-10-30T08:50:24.000Z</time>
      </trkpt>
      <trkpt lat="43.60023" lon="6.29638">
        <ele>647</ele>
        <time>2024-10-30T08:50:30.000Z</time>
      </trkpt>
      <trkpt lat="43.60029" lon="6.29632">
        <ele>646.6</ele>
        <time>2024-10-30T08:50:37.000Z</time>
      </trkpt>
      <trkpt lat="43.60036" lon="6.29625">
        <ele>646.5</ele>
        <time>2024-10-30T08:50:43.000Z</time>
      </trkpt>
      <trkpt lat="43.60043" lon="6.29618">
        <ele>646.5</ele>
        <time>2024-10-30T08:50:49.000Z</time>
      </trkpt>
      <trkpt lat="43.6005" lon="6.29612">
        <ele>646.2</ele>
        <time>2024-10-30T08:50:56.000Z</time>
      </trkpt>
      <trkpt lat="43.60056" lon="6.29605">
        <ele>646</ele>
        <time>2024-10-30T08:51:03.000Z</time>
      </trkpt>
      <trkpt lat="43.60057" lon="6.29604">
        <ele>646</ele>
        <time>2024-10-30T08:51:04.000Z</time>
      </trkpt>
      <trkpt lat="43.60066" lon="6.29587">
        <ele>645.7</ele>
        <time>2024-10-30T08:51:16.000Z</time>
      </trkpt>
      <trkpt lat="43.6007" lon="6.29577">
        <ele>645.4</ele>
        <time>2024-10-30T08:51:24.000Z</time>
      </trkpt>
      <trkpt lat="43.60076" lon="6.29568">
        <ele>645.1</ele>
        <time>2024-10-30T08:51:32.000Z</time>
      </trkpt>
      <trkpt lat="43.60082" lon="6.2956">
        <ele>644.7</ele>
        <time>2024-10-30T08:51:39.000Z</time>
      </trkpt>
      <trkpt lat="43.60089" lon="6.29552">
        <ele>644</ele>
        <time>2024-10-30T08:51:46.000Z</time>
      </trkpt>
      <trkpt lat="43.60095" lon="6.29544">
        <ele>643</ele>
        <time>2024-10-30T08:51:53.000Z</time>
      </trkpt>
      <trkpt lat="43.60101" lon="6.29536">
        <ele>642.4</ele>
        <time>2024-10-30T08:52:00.000Z</time>
      </trkpt>
      <trkpt lat="43.60108" lon="6.29529">
        <ele>641.8</ele>
        <time>2024-10-30T08:52:06.000Z</time>
      </trkpt>
      <trkpt lat="43.60109" lon="6.29528">
        <ele>641.6</ele>
        <time>2024-10-30T08:52:07.000Z</time>
      </trkpt>
      <trkpt lat="43.60121" lon="6.29514">
        <ele>640.1</ele>
        <time>2024-10-30T08:52:23.000Z</time>
      </trkpt>
      <trkpt lat="43.60128" lon="6.29508">
        <ele>639.1</ele>
        <time>2024-10-30T08:52:30.000Z</time>
      </trkpt>
      <trkpt lat="43.60134" lon="6.29501">
        <ele>638.4</ele>
        <time>2024-10-30T08:52:37.000Z</time>
      </trkpt>
      <trkpt lat="43.6014" lon="6.29495">
        <ele>637.6</ele>
        <time>2024-10-30T08:52:43.000Z</time>
      </trkpt>
      <trkpt lat="43.60147" lon="6.29487">
        <ele>636.8</ele>
        <time>2024-10-30T08:52:49.000Z</time>
      </trkpt>
      <trkpt lat="43.60154" lon="6.29481">
        <ele>636.3</ele>
        <time>2024-10-30T08:52:55.000Z</time>
      </trkpt>
      <trkpt lat="43.60161" lon="6.29474">
        <ele>635.7</ele>
        <time>2024-10-30T08:53:01.000Z</time>
      </trkpt>
      <trkpt lat="43.60168" lon="6.29468">
        <ele>635.2</ele>
        <time>2024-10-30T08:53:07.000Z</time>
      </trkpt>
      <trkpt lat="43.60169" lon="6.29467">
        <ele>635.1</ele>
        <time>2024-10-30T08:53:08.000Z</time>
      </trkpt>
      <trkpt lat="43.60182" lon="6.29455">
        <ele>633.5</ele>
        <time>2024-10-30T08:53:22.000Z</time>
      </trkpt>
      <trkpt lat="43.60189" lon="6.29448">
        <ele>633.1</ele>
        <time>2024-10-30T08:53:32.000Z</time>
      </trkpt>
      <trkpt lat="43.60194" lon="6.29438">
        <ele>633.1</ele>
        <time>2024-10-30T08:53:39.000Z</time>
      </trkpt>
      <trkpt lat="43.60199" lon="6.29428">
        <ele>632.8</ele>
        <time>2024-10-30T08:53:47.000Z</time>
      </trkpt>
      <trkpt lat="43.60202" lon="6.29417">
        <ele>632.6</ele>
        <time>2024-10-30T08:53:56.000Z</time>
      </trkpt>
      <trkpt lat="43.60205" lon="6.29406">
        <ele>632.3</ele>
        <time>2024-10-30T08:54:10.000Z</time>
      </trkpt>
      <trkpt lat="43.60205" lon="6.29404">
        <ele>632.3</ele>
        <time>2024-10-30T08:54:11.000Z</time>
      </trkpt>
      <trkpt lat="43.60209" lon="6.29382">
        <ele>631.9</ele>
        <time>2024-10-30T08:54:27.000Z</time>
      </trkpt>
      <trkpt lat="43.60211" lon="6.29371">
        <ele>631.6</ele>
        <time>2024-10-30T08:54:35.000Z</time>
      </trkpt>
      <trkpt lat="43.60214" lon="6.2936">
        <ele>631.7</ele>
        <time>2024-10-30T08:54:42.000Z</time>
      </trkpt>
      <trkpt lat="43.60217" lon="6.29349">
        <ele>632.2</ele>
        <time>2024-10-30T08:54:50.000Z</time>
      </trkpt>
      <trkpt lat="43.60223" lon="6.29341">
        <ele>632.5</ele>
        <time>2024-10-30T08:54:59.000Z</time>
      </trkpt>
      <trkpt lat="43.60231" lon="6.29334">
        <ele>632.6</ele>
        <time>2024-10-30T08:55:05.000Z</time>
      </trkpt>
      <trkpt lat="43.60237" lon="6.29326">
        <ele>632.2</ele>
        <time>2024-10-30T08:55:12.000Z</time>
      </trkpt>
      <trkpt lat="43.60238" lon="6.29325">
        <ele>632.2</ele>
        <time>2024-10-30T08:55:13.000Z</time>
      </trkpt>
      <trkpt lat="43.6025" lon="6.29311">
        <ele>632</ele>
        <time>2024-10-30T08:55:25.000Z</time>
      </trkpt>
      <trkpt lat="43.60257" lon="6.29304">
        <ele>632.4</ele>
        <time>2024-10-30T08:55:32.000Z</time>
      </trkpt>
      <trkpt lat="43.60263" lon="6.29296">
        <ele>632.7</ele>
        <time>2024-10-30T08:55:39.000Z</time>
      </trkpt>
      <trkpt lat="43.60263" lon="6.29284">
        <ele>633.3</ele>
        <time>2024-10-30T08:55:46.000Z</time>
      </trkpt>
      <trkpt lat="43.60262" lon="6.29272">
        <ele>634.1</ele>
        <time>2024-10-30T08:56:05.000Z</time>
      </trkpt>
      <trkpt lat="43.60262" lon="6.2926">
        <ele>634.1</ele>
        <time>2024-10-30T08:56:13.000Z</time>
      </trkpt>
      <trkpt lat="43.60262" lon="6.29259">
        <ele>634</ele>
        <time>2024-10-30T08:56:14.000Z</time>
      </trkpt>
      <trkpt lat="43.60261" lon="6.29236">
        <ele>634.7</ele>
        <time>2024-10-30T08:56:30.000Z</time>
      </trkpt>
      <trkpt lat="43.60261" lon="6.29225">
        <ele>635</ele>
        <time>2024-10-30T08:56:39.000Z</time>
      </trkpt>
      <trkpt lat="43.60266" lon="6.29215">
        <ele>635.5</ele>
        <time>2024-10-30T08:58:08.000Z</time>
      </trkpt>
      <trkpt lat="43.60266" lon="6.29214">
        <ele>635.5</ele>
        <time>2024-10-30T08:58:09.000Z</time>
      </trkpt>
      <trkpt lat="43.60281" lon="6.29207">
        <ele>636.2</ele>
        <time>2024-10-30T08:58:27.000Z</time>
      </trkpt>
      <trkpt lat="43.60289" lon="6.29203">
        <ele>636.2</ele>
        <time>2024-10-30T08:58:33.000Z</time>
      </trkpt>
      <trkpt lat="43.60297" lon="6.29201">
        <ele>636.6</ele>
        <time>2024-10-30T08:58:40.000Z</time>
      </trkpt>
      <trkpt lat="43.60305" lon="6.29202">
        <ele>636.6</ele>
        <time>2024-10-30T08:58:48.000Z</time>
      </trkpt>
      <trkpt lat="43.60314" lon="6.29204">
        <ele>636.6</ele>
        <time>2024-10-30T08:58:57.000Z</time>
      </trkpt>
      <trkpt lat="43.60322" lon="6.29205">
        <ele>636.3</ele>
        <time>2024-10-30T08:59:07.000Z</time>
      </trkpt>
      <trkpt lat="43.60331" lon="6.29206">
        <ele>636.4</ele>
        <time>2024-10-30T08:59:14.000Z</time>
      </trkpt>
      <trkpt lat="43.60332" lon="6.29206">
        <ele>636.4</ele>
        <time>2024-10-30T08:59:15.000Z</time>
      </trkpt>
      <trkpt lat="43.60346" lon="6.29216">
        <ele>637.2</ele>
        <time>2024-10-30T08:59:29.000Z</time>
      </trkpt>
      <trkpt lat="43.60354" lon="6.29219">
        <ele>637.8</ele>
        <time>2024-10-30T08:59:36.000Z</time>
      </trkpt>
      <trkpt lat="43.60362" lon="6.29223">
        <ele>638.1</ele>
        <time>2024-10-30T08:59:43.000Z</time>
      </trkpt>
      <trkpt lat="43.6037" lon="6.29226">
        <ele>638.3</ele>
        <time>2024-10-30T08:59:50.000Z</time>
      </trkpt>
      <trkpt lat="43.60379" lon="6.29229">
        <ele>638.4</ele>
        <time>2024-10-30T08:59:57.000Z</time>
      </trkpt>
      <trkpt lat="43.60387" lon="6.2923">
        <ele>638.5</ele>
        <time>2024-10-30T09:00:04.000Z</time>
      </trkpt>
      <trkpt lat="43.60396" lon="6.29231">
        <ele>638.8</ele>
        <time>2024-10-30T09:00:11.000Z</time>
      </trkpt>
      <trkpt lat="43.60405" lon="6.29235">
        <ele>638.9</ele>
        <time>2024-10-30T09:00:19.000Z</time>
      </trkpt>
      <trkpt lat="43.60405" lon="6.29235">
        <ele>638.9</ele>
        <time>2024-10-30T09:00:20.000Z</time>
      </trkpt>
      <trkpt lat="43.60416" lon="6.29252">
        <ele>639.2</ele>
        <time>2024-10-30T09:00:35.000Z</time>
      </trkpt>
      <trkpt lat="43.60416" lon="6.29264">
        <ele>639.3</ele>
        <time>2024-10-30T09:00:44.000Z</time>
      </trkpt>
      <trkpt lat="43.60416" lon="6.29275">
        <ele>639.8</ele>
        <time>2024-10-30T09:00:52.000Z</time>
      </trkpt>
      <trkpt lat="43.60423" lon="6.29282">
        <ele>640.7</ele>
        <time>2024-10-30T09:01:02.000Z</time>
      </trkpt>
      <trkpt lat="43.60432" lon="6.29283">
        <ele>641.1</ele>
        <time>2024-10-30T09:01:11.000Z</time>
      </trkpt>
      <trkpt lat="43.6044" lon="6.29281">
        <ele>641.8</ele>
        <time>2024-10-30T09:01:19.000Z</time>
      </trkpt>
      <trkpt lat="43.60448" lon="6.2928">
        <ele>642</ele>
        <time>2024-10-30T09:01:26.000Z</time>
      </trkpt>
      <trkpt lat="43.6045" lon="6.2928">
        <ele>642</ele>
        <time>2024-10-30T09:01:27.000Z</time>
      </trkpt>
      <trkpt lat="43.60465" lon="6.29279">
        <ele>642.5</ele>
        <time>2024-10-30T09:01:41.000Z</time>
      </trkpt>
      <trkpt lat="43.60474" lon="6.29279">
        <ele>642.6</ele>
        <time>2024-10-30T09:01:50.000Z</time>
      </trkpt>
      <trkpt lat="43.60482" lon="6.29279">
        <ele>642.9</ele>
        <time>2024-10-30T09:01:57.000Z</time>
      </trkpt>
      <trkpt lat="43.6049" lon="6.29283">
        <ele>643</ele>
        <time>2024-10-30T09:02:04.000Z</time>
      </trkpt>
      <trkpt lat="43.60497" lon="6.29288">
        <ele>643</ele>
        <time>2024-10-30T09:02:12.000Z</time>
      </trkpt>
      <trkpt lat="43.60505" lon="6.29293">
        <ele>643.1</ele>
        <time>2024-10-30T09:02:18.000Z</time>
      </trkpt>
      <trkpt lat="43.60513" lon="6.29295">
        <ele>643.2</ele>
        <time>2024-10-30T09:02:25.000Z</time>
      </trkpt>
      <trkpt lat="43.60521" lon="6.293">
        <ele>643.3</ele>
        <time>2024-10-30T09:02:33.000Z</time>
      </trkpt>
      <trkpt lat="43.60521" lon="6.293">
        <ele>643.3</ele>
        <time>2024-10-30T09:02:34.000Z</time>
      </trkpt>
      <trkpt lat="43.60534" lon="6.29314">
        <ele>643.7</ele>
        <time>2024-10-30T09:02:48.000Z</time>
      </trkpt>
      <trkpt lat="43.6054" lon="6.29322">
        <ele>643.6</ele>
        <time>2024-10-30T09:02:55.000Z</time>
      </trkpt>
      <trkpt lat="43.60545" lon="6.29331">
        <ele>643.4</ele>
        <time>2024-10-30T09:03:02.000Z</time>
      </trkpt>
      <trkpt lat="43.60549" lon="6.2934">
        <ele>643.4</ele>
        <time>2024-10-30T09:03:09.000Z</time>
      </trkpt>
      <trkpt lat="43.60554" lon="6.29349">
        <ele>643.4</ele>
        <time>2024-10-30T09:03:17.000Z</time>
      </trkpt>
      <trkpt lat="43.60561" lon="6.29354">
        <ele>643.7</ele>
        <time>2024-10-30T09:03:23.000Z</time>
      </trkpt>
      <trkpt lat="43.6057" lon="6.29357">
        <ele>644.2</ele>
        <time>2024-10-30T09:03:33.000Z</time>
      </trkpt>
      <trkpt lat="43.60578" lon="6.29361">
        <ele>645</ele>
        <time>2024-10-30T09:03:42.000Z</time>
      </trkpt>
      <trkpt lat="43.60579" lon="6.29362">
        <ele>645</ele>
        <time>2024-10-30T09:03:43.000Z</time>
      </trkpt>
      <trkpt lat="43.60583" lon="6.29366">
        <ele>646.4</ele>
        <time>2024-10-30T09:06:41.000Z</time>
      </trkpt>
      <trkpt lat="43.60583" lon="6.29365">
        <ele>646.4</ele>
        <time>2024-10-30T09:06:42.000Z</time>
      </trkpt>
      <trkpt lat="43.60594" lon="6.29347">
        <ele>646.7</ele>
        <time>2024-10-30T09:07:01.000Z</time>
      </trkpt>
      <trkpt lat="43.606" lon="6.2934">
        <ele>646.9</ele>
        <time>2024-10-30T09:07:12.000Z</time>
      </trkpt>
      <trkpt lat="43.60608" lon="6.29337">
        <ele>647.3</ele>
        <time>2024-10-30T09:07:22.000Z</time>
      </trkpt>
      <trkpt lat="43.60616" lon="6.29333">
        <ele>647.6</ele>
        <time>2024-10-30T09:07:31.000Z</time>
      </trkpt>
      <trkpt lat="43.60623" lon="6.29328">
        <ele>647.8</ele>
        <time>2024-10-30T09:07:39.000Z</time>
      </trkpt>
      <trkpt lat="43.6063" lon="6.2932">
        <ele>648</ele>
        <time>2024-10-30T09:07:47.000Z</time>
      </trkpt>
      <trkpt lat="43.6063" lon="6.29319">
        <ele>648.1</ele>
        <time>2024-10-30T09:07:48.000Z</time>
      </trkpt>
      <trkpt lat="43.60642" lon="6.29306">
        <ele>648.7</ele>
        <time>2024-10-30T09:08:11.000Z</time>
      </trkpt>
      <trkpt lat="43.60649" lon="6.29299">
        <ele>649.1</ele>
        <time>2024-10-30T09:08:18.000Z</time>
      </trkpt>
      <trkpt lat="43.60656" lon="6.29292">
        <ele>649.4</ele>
        <time>2024-10-30T09:08:25.000Z</time>
      </trkpt>
      <trkpt lat="43.60664" lon="6.2929">
        <ele>650</ele>
        <time>2024-10-30T09:08:34.000Z</time>
      </trkpt>
      <trkpt lat="43.60672" lon="6.29286">
        <ele>650.5</ele>
        <time>2024-10-30T09:08:45.000Z</time>
      </trkpt>
      <trkpt lat="43.60681" lon="6.29283">
        <ele>651.3</ele>
        <time>2024-10-30T09:08:56.000Z</time>
      </trkpt>
      <trkpt lat="43.60681" lon="6.29283">
        <ele>651.3</ele>
        <time>2024-10-30T09:08:57.000Z</time>
      </trkpt>
      <trkpt lat="43.60691" lon="6.29265">
        <ele>651.2</ele>
        <time>2024-10-30T09:09:12.000Z</time>
      </trkpt>
      <trkpt lat="43.60696" lon="6.29255">
        <ele>651.3</ele>
        <time>2024-10-30T09:09:20.000Z</time>
      </trkpt>
      <trkpt lat="43.607" lon="6.29245">
        <ele>651</ele>
        <time>2024-10-30T09:09:28.000Z</time>
      </trkpt>
      <trkpt lat="43.60707" lon="6.29237">
        <ele>651.1</ele>
        <time>2024-10-30T09:09:37.000Z</time>
      </trkpt>
      <trkpt lat="43.60714" lon="6.2923">
        <ele>651.3</ele>
        <time>2024-10-30T09:09:45.000Z</time>
      </trkpt>
      <trkpt lat="43.60719" lon="6.2922">
        <ele>651.5</ele>
        <time>2024-10-30T09:09:52.000Z</time>
      </trkpt>
      <trkpt lat="43.60726" lon="6.29212">
        <ele>651.8</ele>
        <time>2024-10-30T09:10:01.000Z</time>
      </trkpt>
      <trkpt lat="43.60727" lon="6.29212">
        <ele>651.8</ele>
        <time>2024-10-30T09:10:02.000Z</time>
      </trkpt>
      <trkpt lat="43.6074" lon="6.29198">
        <ele>653</ele>
        <time>2024-10-30T09:10:19.000Z</time>
      </trkpt>
      <trkpt lat="43.60735" lon="6.29188">
        <ele>656</ele>
        <time>2024-10-30T09:10:47.000Z</time>
      </trkpt>
      <trkpt lat="43.60728" lon="6.29183">
        <ele>656.5</ele>
        <time>2024-10-30T09:11:02.000Z</time>
      </trkpt>
      <trkpt lat="43.6072" lon="6.29179">
        <ele>657</ele>
        <time>2024-10-30T09:11:17.000Z</time>
      </trkpt>
      <trkpt lat="43.60719" lon="6.29178">
        <ele>657.1</ele>
        <time>2024-10-30T09:11:18.000Z</time>
      </trkpt>
      <trkpt lat="43.60709" lon="6.2916">
        <ele>658.3</ele>
        <time>2024-10-30T09:11:47.000Z</time>
      </trkpt>
      <trkpt lat="43.60701" lon="6.29155">
        <ele>659.1</ele>
        <time>2024-10-30T09:11:59.000Z</time>
      </trkpt>
      <trkpt lat="43.60693" lon="6.29159">
        <ele>660</ele>
        <time>2024-10-30T09:12:12.000Z</time>
      </trkpt>
      <trkpt lat="43.60685" lon="6.29165">
        <ele>660.3</ele>
        <time>2024-10-30T09:12:24.000Z</time>
      </trkpt>
      <trkpt lat="43.60684" lon="6.29165">
        <ele>660.4</ele>
        <time>2024-10-30T09:12:25.000Z</time>
      </trkpt>
      <trkpt lat="43.60668" lon="6.29164">
        <ele>662.5</ele>
        <time>2024-10-30T09:13:17.000Z</time>
      </trkpt>
      <trkpt lat="43.6066" lon="6.2916">
        <ele>663.4</ele>
        <time>2024-10-30T09:13:31.000Z</time>
      </trkpt>
      <trkpt lat="43.60659" lon="6.2916">
        <ele>663.5</ele>
        <time>2024-10-30T09:13:32.000Z</time>
      </trkpt>
      <trkpt lat="43.60644" lon="6.29154">
        <ele>664.3</ele>
        <time>2024-10-30T09:13:50.000Z</time>
      </trkpt>
      <trkpt lat="43.60635" lon="6.29152">
        <ele>664.3</ele>
        <time>2024-10-30T09:14:01.000Z</time>
      </trkpt>
      <trkpt lat="43.60627" lon="6.29147">
        <ele>664.1</ele>
        <time>2024-10-30T09:14:09.000Z</time>
      </trkpt>
      <trkpt lat="43.6062" lon="6.29141">
        <ele>663.8</ele>
        <time>2024-10-30T09:14:18.000Z</time>
      </trkpt>
      <trkpt lat="43.60613" lon="6.29134">
        <ele>663.6</ele>
        <time>2024-10-30T09:14:31.000Z</time>
      </trkpt>
      <trkpt lat="43.60605" lon="6.29129">
        <ele>663.1</ele>
        <time>2024-10-30T09:14:42.000Z</time>
      </trkpt>
      <trkpt lat="43.60604" lon="6.29128">
        <ele>663</ele>
        <time>2024-10-30T09:14:43.000Z</time>
      </trkpt>
      <trkpt lat="43.60593" lon="6.29112">
        <ele>661.3</ele>
        <time>2024-10-30T09:15:02.000Z</time>
      </trkpt>
      <trkpt lat="43.60587" lon="6.29103">
        <ele>659.5</ele>
        <time>2024-10-30T09:15:19.000Z</time>
      </trkpt>
      <trkpt lat="43.60579" lon="6.29103">
        <ele>659</ele>
        <time>2024-10-30T09:15:27.000Z</time>
      </trkpt>
      <trkpt lat="43.60571" lon="6.291">
        <ele>658.8</ele>
        <time>2024-10-30T09:15:36.000Z</time>
      </trkpt>
      <trkpt lat="43.60563" lon="6.29096">
        <ele>657.9</ele>
        <time>2024-10-30T09:15:45.000Z</time>
      </trkpt>
      <trkpt lat="43.60561" lon="6.29096">
        <ele>657.8</ele>
        <time>2024-10-30T09:15:46.000Z</time>
      </trkpt>
      <trkpt lat="43.60547" lon="6.29089">
        <ele>657.1</ele>
        <time>2024-10-30T09:16:00.000Z</time>
      </trkpt>
      <trkpt lat="43.60539" lon="6.29086">
        <ele>656.4</ele>
        <time>2024-10-30T09:16:08.000Z</time>
      </trkpt>
      <trkpt lat="43.60531" lon="6.29084">
        <ele>656.1</ele>
        <time>2024-10-30T09:16:15.000Z</time>
      </trkpt>
      <trkpt lat="43.60523" lon="6.29084">
        <ele>655.8</ele>
        <time>2024-10-30T09:16:21.000Z</time>
      </trkpt>
      <trkpt lat="43.60514" lon="6.29085">
        <ele>655.9</ele>
        <time>2024-10-30T09:16:28.000Z</time>
      </trkpt>
      <trkpt lat="43.60506" lon="6.29087">
        <ele>655.9</ele>
        <time>2024-10-30T09:16:36.000Z</time>
      </trkpt>
      <trkpt lat="43.60498" lon="6.29091">
        <ele>656</ele>
        <time>2024-10-30T09:16:44.000Z</time>
      </trkpt>
      <trkpt lat="43.6049" lon="6.29095">
        <ele>656.1</ele>
        <time>2024-10-30T09:16:53.000Z</time>
      </trkpt>
      <trkpt lat="43.60489" lon="6.29095">
        <ele>656.1</ele>
        <time>2024-10-30T09:16:54.000Z</time>
      </trkpt>
      <trkpt lat="43.60475" lon="6.29105">
        <ele>656.2</ele>
        <time>2024-10-30T09:17:08.000Z</time>
      </trkpt>
      <trkpt lat="43.60467" lon="6.29108">
        <ele>655.9</ele>
        <time>2024-10-30T09:17:17.000Z</time>
      </trkpt>
      <trkpt lat="43.60458" lon="6.29107">
        <ele>655.4</ele>
        <time>2024-10-30T09:17:27.000Z</time>
      </trkpt>
      <trkpt lat="43.60449" lon="6.29107">
        <ele>654.7</ele>
        <time>2024-10-30T09:17:36.000Z</time>
      </trkpt>
      <trkpt lat="43.60441" lon="6.29104">
        <ele>654.7</ele>
        <time>2024-10-30T09:17:46.000Z</time>
      </trkpt>
      <trkpt lat="43.60434" lon="6.29108">
        <ele>654</ele>
        <time>2024-10-30T09:17:58.000Z</time>
      </trkpt>
      <trkpt lat="43.60433" lon="6.29108">
        <ele>654</ele>
        <time>2024-10-30T09:17:59.000Z</time>
      </trkpt>
      <trkpt lat="43.60417" lon="6.29104">
        <ele>652.9</ele>
        <time>2024-10-30T09:18:19.000Z</time>
      </trkpt>
      <trkpt lat="43.60409" lon="6.29103">
        <ele>652.3</ele>
        <time>2024-10-30T09:18:28.000Z</time>
      </trkpt>
      <trkpt lat="43.604" lon="6.29102">
        <ele>652.2</ele>
        <time>2024-10-30T09:18:38.000Z</time>
      </trkpt>
      <trkpt lat="43.60392" lon="6.29099">
        <ele>652.3</ele>
        <time>2024-10-30T09:18:47.000Z</time>
      </trkpt>
      <trkpt lat="43.60383" lon="6.29096">
        <ele>651.8</ele>
        <time>2024-10-30T09:18:56.000Z</time>
      </trkpt>
      <trkpt lat="43.60376" lon="6.29093">
        <ele>651.7</ele>
        <time>2024-10-30T09:19:04.000Z</time>
      </trkpt>
      <trkpt lat="43.60374" lon="6.29092">
        <ele>651.8</ele>
        <time>2024-10-30T09:19:05.000Z</time>
      </trkpt>
      <trkpt lat="43.6036" lon="6.29085">
        <ele>652.1</ele>
        <time>2024-10-30T09:19:20.000Z</time>
      </trkpt>
      <trkpt lat="43.60352" lon="6.2908">
        <ele>652.3</ele>
        <time>2024-10-30T09:19:28.000Z</time>
      </trkpt>
      <trkpt lat="43.60345" lon="6.29075">
        <ele>652.2</ele>
        <time>2024-10-30T09:19:35.000Z</time>
      </trkpt>
      <trkpt lat="43.60338" lon="6.29067">
        <ele>652</ele>
        <time>2024-10-30T09:19:43.000Z</time>
      </trkpt>
      <trkpt lat="43.60332" lon="6.29058">
        <ele>651.7</ele>
        <time>2024-10-30T09:19:52.000Z</time>
      </trkpt>
      <trkpt lat="43.60329" lon="6.29048">
        <ele>651.6</ele>
        <time>2024-10-30T09:20:00.000Z</time>
      </trkpt>
      <trkpt lat="43.60331" lon="6.29036">
        <ele>649.9</ele>
        <time>2024-10-30T09:24:48.000Z</time>
      </trkpt>
      <trkpt lat="43.60332" lon="6.29036">
        <ele>649.9</ele>
        <time>2024-10-30T09:24:49.000Z</time>
      </trkpt>
      <trkpt lat="43.60348" lon="6.2904">
        <ele>650.8</ele>
        <time>2024-10-30T09:25:14.000Z</time>
      </trkpt>
      <trkpt lat="43.60356" lon="6.29043">
        <ele>651.9</ele>
        <time>2024-10-30T09:25:26.000Z</time>
      </trkpt>
      <trkpt lat="43.60365" lon="6.29047">
        <ele>652.9</ele>
        <time>2024-10-30T09:25:39.000Z</time>
      </trkpt>
      <trkpt lat="43.60373" lon="6.2905">
        <ele>653.7</ele>
        <time>2024-10-30T09:25:49.000Z</time>
      </trkpt>
      <trkpt lat="43.60382" lon="6.29051">
        <ele>655.1</ele>
        <time>2024-10-30T09:26:00.000Z</time>
      </trkpt>
      <trkpt lat="43.60383" lon="6.29051">
        <ele>655.3</ele>
        <time>2024-10-30T09:26:01.000Z</time>
      </trkpt>
      <trkpt lat="43.60399" lon="6.2905">
        <ele>656.8</ele>
        <time>2024-10-30T09:26:22.000Z</time>
      </trkpt>
      <trkpt lat="43.60407" lon="6.29052">
        <ele>657.7</ele>
        <time>2024-10-30T09:26:32.000Z</time>
      </trkpt>
      <trkpt lat="43.60416" lon="6.29053">
        <ele>658.4</ele>
        <time>2024-10-30T09:26:43.000Z</time>
      </trkpt>
      <trkpt lat="43.60425" lon="6.29054">
        <ele>659.5</ele>
        <time>2024-10-30T09:26:53.000Z</time>
      </trkpt>
      <trkpt lat="43.60433" lon="6.29056">
        <ele>660</ele>
        <time>2024-10-30T09:27:02.000Z</time>
      </trkpt>
      <trkpt lat="43.60434" lon="6.29056">
        <ele>660.2</ele>
        <time>2024-10-30T09:27:03.000Z</time>
      </trkpt>
      <trkpt lat="43.60449" lon="6.29052">
        <ele>661.2</ele>
        <time>2024-10-30T09:27:22.000Z</time>
      </trkpt>
      <trkpt lat="43.60456" lon="6.29046">
        <ele>661.8</ele>
        <time>2024-10-30T09:27:32.000Z</time>
      </trkpt>
      <trkpt lat="43.60464" lon="6.29042">
        <ele>662.7</ele>
        <time>2024-10-30T09:27:41.000Z</time>
      </trkpt>
      <trkpt lat="43.60472" lon="6.29039">
        <ele>663.3</ele>
        <time>2024-10-30T09:27:50.000Z</time>
      </trkpt>
      <trkpt lat="43.60481" lon="6.29038">
        <ele>664.3</ele>
        <time>2024-10-30T09:28:00.000Z</time>
      </trkpt>
      <trkpt lat="43.60489" lon="6.29035">
        <ele>665.6</ele>
        <time>2024-10-30T09:28:10.000Z</time>
      </trkpt>
      <trkpt lat="43.6049" lon="6.29034">
        <ele>665.7</ele>
        <time>2024-10-30T09:28:11.000Z</time>
      </trkpt>
      <trkpt lat="43.60501" lon="6.29019">
        <ele>666.8</ele>
        <time>2024-10-30T09:28:30.000Z</time>
      </trkpt>
      <trkpt lat="43.60504" lon="6.29008">
        <ele>668</ele>
        <time>2024-10-30T09:28:40.000Z</time>
      </trkpt>
      <trkpt lat="43.60505" lon="6.28997">
        <ele>669</ele>
        <time>2024-10-30T09:28:51.000Z</time>
      </trkpt>
      <trkpt lat="43.60508" lon="6.28985">
        <ele>669.7</ele>
        <time>2024-10-30T09:29:01.000Z</time>
      </trkpt>
      <trkpt lat="43.6051" lon="6.28974">
        <ele>670.9</ele>
        <time>2024-10-30T09:29:11.000Z</time>
      </trkpt>
      <trkpt lat="43.6051" lon="6.28973">
        <ele>671.1</ele>
        <time>2024-10-30T09:29:12.000Z</time>
      </trkpt>
      <trkpt lat="43.60512" lon="6.28951">
        <ele>672.8</ele>
        <time>2024-10-30T09:29:33.000Z</time>
      </trkpt>
      <trkpt lat="43.60512" lon="6.28939">
        <ele>673.9</ele>
        <time>2024-10-30T09:29:44.000Z</time>
      </trkpt>
      <trkpt lat="43.6051" lon="6.28928">
        <ele>675.1</ele>
        <time>2024-10-30T09:29:54.000Z</time>
      </trkpt>
      <trkpt lat="43.6051" lon="6.28916">
        <ele>676.1</ele>
        <time>2024-10-30T09:30:03.000Z</time>
      </trkpt>
      <trkpt lat="43.60514" lon="6.28905">
        <ele>676.7</ele>
        <time>2024-10-30T09:30:12.000Z</time>
      </trkpt>
      <trkpt lat="43.60519" lon="6.28897">
        <ele>677</ele>
        <time>2024-10-30T09:30:22.000Z</time>
      </trkpt>
      <trkpt lat="43.6052" lon="6.28896">
        <ele>677.1</ele>
        <time>2024-10-30T09:30:23.000Z</time>
      </trkpt>
      <trkpt lat="43.60535" lon="6.2889">
        <ele>677.8</ele>
        <time>2024-10-30T09:30:40.000Z</time>
      </trkpt>
      <trkpt lat="43.60544" lon="6.28887">
        <ele>678.5</ele>
        <time>2024-10-30T09:30:49.000Z</time>
      </trkpt>
      <trkpt lat="43.60552" lon="6.28884">
        <ele>679.4</ele>
        <time>2024-10-30T09:30:58.000Z</time>
      </trkpt>
      <trkpt lat="43.6056" lon="6.28882">
        <ele>679.8</ele>
        <time>2024-10-30T09:31:06.000Z</time>
      </trkpt>
      <trkpt lat="43.60569" lon="6.28882">
        <ele>680.4</ele>
        <time>2024-10-30T09:31:15.000Z</time>
      </trkpt>
      <trkpt lat="43.60577" lon="6.28879">
        <ele>681.4</ele>
        <time>2024-10-30T09:31:24.000Z</time>
      </trkpt>
      <trkpt lat="43.60579" lon="6.28879">
        <ele>681.5</ele>
        <time>2024-10-30T09:31:25.000Z</time>
      </trkpt>
      <trkpt lat="43.60594" lon="6.28884">
        <ele>682.5</ele>
        <time>2024-10-30T09:31:41.000Z</time>
      </trkpt>
      <trkpt lat="43.60601" lon="6.28891">
        <ele>683.2</ele>
        <time>2024-10-30T09:31:50.000Z</time>
      </trkpt>
      <trkpt lat="43.60607" lon="6.28899">
        <ele>683.7</ele>
        <time>2024-10-30T09:31:58.000Z</time>
      </trkpt>
      <trkpt lat="43.60613" lon="6.28907">
        <ele>683.9</ele>
        <time>2024-10-30T09:32:06.000Z</time>
      </trkpt>
      <trkpt lat="43.60617" lon="6.28918">
        <ele>684.1</ele>
        <time>2024-10-30T09:32:15.000Z</time>
      </trkpt>
      <trkpt lat="43.60621" lon="6.28929">
        <ele>684.4</ele>
        <time>2024-10-30T09:32:24.000Z</time>
      </trkpt>
      <trkpt lat="43.60623" lon="6.2894">
        <ele>684.7</ele>
        <time>2024-10-30T09:32:31.000Z</time>
      </trkpt>
      <trkpt lat="43.60623" lon="6.28941">
        <ele>684.8</ele>
        <time>2024-10-30T09:32:32.000Z</time>
      </trkpt>
      <trkpt lat="43.60627" lon="6.28963">
        <ele>684.3</ele>
        <time>2024-10-30T09:32:47.000Z</time>
      </trkpt>
      <trkpt lat="43.60629" lon="6.28975">
        <ele>683.7</ele>
        <time>2024-10-30T09:32:55.000Z</time>
      </trkpt>
      <trkpt lat="43.60631" lon="6.28986">
        <ele>683.2</ele>
        <time>2024-10-30T09:33:03.000Z</time>
      </trkpt>
      <trkpt lat="43.60635" lon="6.28995">
        <ele>682.7</ele>
        <time>2024-10-30T09:33:11.000Z</time>
      </trkpt>
      <trkpt lat="43.6064" lon="6.29004">
        <ele>682.8</ele>
        <time>2024-10-30T09:33:19.000Z</time>
      </trkpt>
      <trkpt lat="43.60646" lon="6.29012">
        <ele>683.1</ele>
        <time>2024-10-30T09:33:27.000Z</time>
      </trkpt>
      <trkpt lat="43.60653" lon="6.2902">
        <ele>683.2</ele>
        <time>2024-10-30T09:33:35.000Z</time>
      </trkpt>
      <trkpt lat="43.60653" lon="6.29021">
        <ele>683.1</ele>
        <time>2024-10-30T09:33:36.000Z</time>
      </trkpt>
      <trkpt lat="43.60662" lon="6.29038">
        <ele>682.8</ele>
        <time>2024-10-30T09:33:51.000Z</time>
      </trkpt>
      <trkpt lat="43.60667" lon="6.29047">
        <ele>682.1</ele>
        <time>2024-10-30T09:33:59.000Z</time>
      </trkpt>
      <trkpt lat="43.60674" lon="6.29055">
        <ele>682.1</ele>
        <time>2024-10-30T09:34:08.000Z</time>
      </trkpt>
      <trkpt lat="43.60681" lon="6.2906">
        <ele>681.8</ele>
        <time>2024-10-30T09:34:16.000Z</time>
      </trkpt>
      <trkpt lat="43.60688" lon="6.29067">
        <ele>681.6</ele>
        <time>2024-10-30T09:34:25.000Z</time>
      </trkpt>
      <trkpt lat="43.60697" lon="6.2907">
        <ele>681.6</ele>
        <time>2024-10-30T09:34:33.000Z</time>
      </trkpt>
      <trkpt lat="43.60704" lon="6.29075">
        <ele>681.7</ele>
        <time>2024-10-30T09:34:42.000Z</time>
      </trkpt>
      <trkpt lat="43.60705" lon="6.29076">
        <ele>681.8</ele>
        <time>2024-10-30T09:34:43.000Z</time>
      </trkpt>
      <trkpt lat="43.60721" lon="6.2908">
        <ele>682.3</ele>
        <time>2024-10-30T09:34:59.000Z</time>
      </trkpt>
      <trkpt lat="43.60729" lon="6.29077">
        <ele>682.4</ele>
        <time>2024-10-30T09:35:08.000Z</time>
      </trkpt>
      <trkpt lat="43.60737" lon="6.29073">
        <ele>683.3</ele>
        <time>2024-10-30T09:35:19.000Z</time>
      </trkpt>
      <trkpt lat="43.60745" lon="6.29067">
        <ele>684.2</ele>
        <time>2024-10-30T09:35:28.000Z</time>
      </trkpt>
      <trkpt lat="43.60752" lon="6.29063">
        <ele>684.5</ele>
        <time>2024-10-30T09:35:36.000Z</time>
      </trkpt>
      <trkpt lat="43.6076" lon="6.29058">
        <ele>684.5</ele>
        <time>2024-10-30T09:35:44.000Z</time>
      </trkpt>
      <trkpt lat="43.60761" lon="6.29058">
        <ele>684.5</ele>
        <time>2024-10-30T09:35:45.000Z</time>
      </trkpt>
      <trkpt lat="43.60775" lon="6.29047">
        <ele>684.9</ele>
        <time>2024-10-30T09:36:02.000Z</time>
      </trkpt>
      <trkpt lat="43.60782" lon="6.29039">
        <ele>685.2</ele>
        <time>2024-10-30T09:36:11.000Z</time>
      </trkpt>
      <trkpt lat="43.60789" lon="6.29034">
        <ele>685.2</ele>
        <time>2024-10-30T09:36:18.000Z</time>
      </trkpt>
      <trkpt lat="43.60796" lon="6.2903">
        <ele>685.2</ele>
        <time>2024-10-30T09:36:25.000Z</time>
      </trkpt>
      <trkpt lat="43.60804" lon="6.29028">
        <ele>685.7</ele>
        <time>2024-10-30T09:36:32.000Z</time>
      </trkpt>
      <trkpt lat="43.60812" lon="6.29023">
        <ele>686</ele>
        <time>2024-10-30T09:36:40.000Z</time>
      </trkpt>
      <trkpt lat="43.6082" lon="6.29017">
        <ele>686.2</ele>
        <time>2024-10-30T09:36:48.000Z</time>
      </trkpt>
      <trkpt lat="43.6082" lon="6.29016">
        <ele>686.2</ele>
        <time>2024-10-30T09:36:49.000Z</time>
      </trkpt>
      <trkpt lat="43.60835" lon="6.29007">
        <ele>687</ele>
        <time>2024-10-30T09:37:06.000Z</time>
      </trkpt>
      <trkpt lat="43.60843" lon="6.29005">
        <ele>687.5</ele>
        <time>2024-10-30T09:37:16.000Z</time>
      </trkpt>
      <trkpt lat="43.60851" lon="6.28999">
        <ele>688.1</ele>
        <time>2024-10-30T09:37:28.000Z</time>
      </trkpt>
      <trkpt lat="43.60856" lon="6.28991">
        <ele>688.6</ele>
        <time>2024-10-30T09:37:36.000Z</time>
      </trkpt>
      <trkpt lat="43.60862" lon="6.28983">
        <ele>688.9</ele>
        <time>2024-10-30T09:37:45.000Z</time>
      </trkpt>
      <trkpt lat="43.60869" lon="6.28976">
        <ele>689</ele>
        <time>2024-10-30T09:37:53.000Z</time>
      </trkpt>
      <trkpt lat="43.6087" lon="6.28975">
        <ele>689.1</ele>
        <time>2024-10-30T09:37:54.000Z</time>
      </trkpt>
      <trkpt lat="43.60881" lon="6.2896">
        <ele>688.8</ele>
        <time>2024-10-30T09:38:11.000Z</time>
      </trkpt>
      <trkpt lat="43.60887" lon="6.28953">
        <ele>688.9</ele>
        <time>2024-10-30T09:38:19.000Z</time>
      </trkpt>
      <trkpt lat="43.60895" lon="6.28947">
        <ele>689</ele>
        <time>2024-10-30T09:38:26.000Z</time>
      </trkpt>
      <trkpt lat="43.60901" lon="6.28938">
        <ele>689.1</ele>
        <time>2024-10-30T09:38:33.000Z</time>
      </trkpt>
      <trkpt lat="43.60905" lon="6.28928">
        <ele>689.3</ele>
        <time>2024-10-30T09:38:41.000Z</time>
      </trkpt>
      <trkpt lat="43.6091" lon="6.28919">
        <ele>689.6</ele>
        <time>2024-10-30T09:38:49.000Z</time>
      </trkpt>
      <trkpt lat="43.60917" lon="6.28914">
        <ele>689.6</ele>
        <time>2024-10-30T09:38:57.000Z</time>
      </trkpt>
      <trkpt lat="43.60919" lon="6.28913">
        <ele>689.5</ele>
        <time>2024-10-30T09:38:58.000Z</time>
      </trkpt>
      <trkpt lat="43.60932" lon="6.28904">
        <ele>689.8</ele>
        <time>2024-10-30T09:39:10.000Z</time>
      </trkpt>
      <trkpt lat="43.6094" lon="6.289">
        <ele>690.3</ele>
        <time>2024-10-30T09:39:17.000Z</time>
      </trkpt>
      <trkpt lat="43.60948" lon="6.28898">
        <ele>690.7</ele>
        <time>2024-10-30T09:39:26.000Z</time>
      </trkpt>
      <trkpt lat="43.60956" lon="6.28896">
        <ele>690.7</ele>
        <time>2024-10-30T09:39:33.000Z</time>
      </trkpt>
      <trkpt lat="43.60965" lon="6.28892">
        <ele>690.7</ele>
        <time>2024-10-30T09:39:40.000Z</time>
      </trkpt>
      <trkpt lat="43.60973" lon="6.2889">
        <ele>690.4</ele>
        <time>2024-10-30T09:39:47.000Z</time>
      </trkpt>
      <trkpt lat="43.60981" lon="6.28887">
        <ele>690.1</ele>
        <time>2024-10-30T09:39:54.000Z</time>
      </trkpt>
      <trkpt lat="43.60989" lon="6.28886">
        <ele>689.6</ele>
        <time>2024-10-30T09:40:01.000Z</time>
      </trkpt>
      <trkpt lat="43.60991" lon="6.28885">
        <ele>689.5</ele>
        <time>2024-10-30T09:40:02.000Z</time>
      </trkpt>
      <trkpt lat="43.61005" lon="6.2888">
        <ele>688.9</ele>
        <time>2024-10-30T09:40:14.000Z</time>
      </trkpt>
      <trkpt lat="43.61012" lon="6.28878">
        <ele>688.9</ele>
        <time>2024-10-30T09:40:21.000Z</time>
      </trkpt>
      <trkpt lat="43.6102" lon="6.28875">
        <ele>688.9</ele>
        <time>2024-10-30T09:40:29.000Z</time>
      </trkpt>
      <trkpt lat="43.61028" lon="6.2887">
        <ele>689</ele>
        <time>2024-10-30T09:40:38.000Z</time>
      </trkpt>
      <trkpt lat="43.61036" lon="6.28867">
        <ele>689.5</ele>
        <time>2024-10-30T09:40:46.000Z</time>
      </trkpt>
      <trkpt lat="43.61045" lon="6.28864">
        <ele>690.2</ele>
        <time>2024-10-30T09:40:56.000Z</time>
      </trkpt>
      <trkpt lat="43.61052" lon="6.28859">
        <ele>690.7</ele>
        <time>2024-10-30T09:41:03.000Z</time>
      </trkpt>
      <trkpt lat="43.61053" lon="6.28859">
        <ele>690.8</ele>
        <time>2024-10-30T09:41:04.000Z</time>
      </trkpt>
      <trkpt lat="43.61069" lon="6.28851">
        <ele>692.2</ele>
        <time>2024-10-30T09:41:18.000Z</time>
      </trkpt>
      <trkpt lat="43.61076" lon="6.28846">
        <ele>692.7</ele>
        <time>2024-10-30T09:41:26.000Z</time>
      </trkpt>
      <trkpt lat="43.61082" lon="6.28839">
        <ele>693</ele>
        <time>2024-10-30T09:41:33.000Z</time>
      </trkpt>
      <trkpt lat="43.6109" lon="6.28834">
        <ele>693.2</ele>
        <time>2024-10-30T09:41:40.000Z</time>
      </trkpt>
      <trkpt lat="43.61098" lon="6.28829">
        <ele>693.4</ele>
        <time>2024-10-30T09:41:47.000Z</time>
      </trkpt>
      <trkpt lat="43.61106" lon="6.28825">
        <ele>693.8</ele>
        <time>2024-10-30T09:41:54.000Z</time>
      </trkpt>
      <trkpt lat="43.61115" lon="6.28824">
        <ele>694.1</ele>
        <time>2024-10-30T09:42:03.000Z</time>
      </trkpt>
      <trkpt lat="43.61124" lon="6.28824">
        <ele>694.9</ele>
        <time>2024-10-30T09:42:13.000Z</time>
      </trkpt>
      <trkpt lat="43.61125" lon="6.28824">
        <ele>695</ele>
        <time>2024-10-30T09:42:14.000Z</time>
      </trkpt>
      <trkpt lat="43.61138" lon="6.28813">
        <ele>696</ele>
        <time>2024-10-30T09:42:31.000Z</time>
      </trkpt>
      <trkpt lat="43.61142" lon="6.28802">
        <ele>696.3</ele>
        <time>2024-10-30T09:42:38.000Z</time>
      </trkpt>
      <trkpt lat="43.61147" lon="6.28793">
        <ele>697.1</ele>
        <time>2024-10-30T09:42:48.000Z</time>
      </trkpt>
      <trkpt lat="43.61154" lon="6.28786">
        <ele>697.7</ele>
        <time>2024-10-30T09:42:54.000Z</time>
      </trkpt>
      <trkpt lat="43.61161" lon="6.28781">
        <ele>698.4</ele>
        <time>2024-10-30T09:43:01.000Z</time>
      </trkpt>
      <trkpt lat="43.61169" lon="6.28776">
        <ele>699.3</ele>
        <time>2024-10-30T09:43:09.000Z</time>
      </trkpt>
      <trkpt lat="43.61177" lon="6.28773">
        <ele>700</ele>
        <time>2024-10-30T09:43:16.000Z</time>
      </trkpt>
      <trkpt lat="43.61178" lon="6.28773">
        <ele>700.1</ele>
        <time>2024-10-30T09:43:17.000Z</time>
      </trkpt>
      <trkpt lat="43.61193" lon="6.28766">
        <ele>701.5</ele>
        <time>2024-10-30T09:43:31.000Z</time>
      </trkpt>
      <trkpt lat="43.61199" lon="6.28758">
        <ele>702</ele>
        <time>2024-10-30T09:43:42.000Z</time>
      </trkpt>
      <trkpt lat="43.61206" lon="6.2875">
        <ele>702.6</ele>
        <time>2024-10-30T09:43:50.000Z</time>
      </trkpt>
      <trkpt lat="43.61213" lon="6.28742">
        <ele>703.1</ele>
        <time>2024-10-30T09:43:59.000Z</time>
      </trkpt>
      <trkpt lat="43.61218" lon="6.28734">
        <ele>703.5</ele>
        <time>2024-10-30T09:44:07.000Z</time>
      </trkpt>
      <trkpt lat="43.61221" lon="6.28722">
        <ele>704.5</ele>
        <time>2024-10-30T09:44:19.000Z</time>
      </trkpt>
      <trkpt lat="43.61222" lon="6.28721">
        <ele>704.6</ele>
        <time>2024-10-30T09:44:20.000Z</time>
      </trkpt>
      <trkpt lat="43.61223" lon="6.28701">
        <ele>706.3</ele>
        <time>2024-10-30T09:44:39.000Z</time>
      </trkpt>
      <trkpt lat="43.61224" lon="6.2869">
        <ele>707.1</ele>
        <time>2024-10-30T09:44:46.000Z</time>
      </trkpt>
      <trkpt lat="43.61226" lon="6.28679">
        <ele>708.2</ele>
        <time>2024-10-30T09:44:55.000Z</time>
      </trkpt>
      <trkpt lat="43.61229" lon="6.28669">
        <ele>708.9</ele>
        <time>2024-10-30T09:45:01.000Z</time>
      </trkpt>
      <trkpt lat="43.61234" lon="6.28659">
        <ele>709.7</ele>
        <time>2024-10-30T09:45:08.000Z</time>
      </trkpt>
      <trkpt lat="43.61238" lon="6.28648">
        <ele>711.1</ele>
        <time>2024-10-30T09:45:19.000Z</time>
      </trkpt>
      <trkpt lat="43.61242" lon="6.28638">
        <ele>711.9</ele>
        <time>2024-10-30T09:45:27.000Z</time>
      </trkpt>
      <trkpt lat="43.61242" lon="6.28637">
        <ele>712</ele>
        <time>2024-10-30T09:45:28.000Z</time>
      </trkpt>
      <trkpt lat="43.6125" lon="6.28618">
        <ele>713.8</ele>
        <time>2024-10-30T09:45:49.000Z</time>
      </trkpt>
      <trkpt lat="43.61256" lon="6.28611">
        <ele>714.1</ele>
        <time>2024-10-30T09:45:54.000Z</time>
      </trkpt>
      <trkpt lat="43.61262" lon="6.28604">
        <ele>714.3</ele>
        <time>2024-10-30T09:46:01.000Z</time>
      </trkpt>
      <trkpt lat="43.61269" lon="6.28596">
        <ele>714.7</ele>
        <time>2024-10-30T09:46:09.000Z</time>
      </trkpt>
      <trkpt lat="43.61275" lon="6.28589">
        <ele>715.4</ele>
        <time>2024-10-30T09:46:18.000Z</time>
      </trkpt>
      <trkpt lat="43.61282" lon="6.28582">
        <ele>716</ele>
        <time>2024-10-30T09:46:29.000Z</time>
      </trkpt>
      <trkpt lat="43.61283" lon="6.28581">
        <ele>716.1</ele>
        <time>2024-10-30T09:46:30.000Z</time>
      </trkpt>
      <trkpt lat="43.61296" lon="6.28567">
        <ele>718.3</ele>
        <time>2024-10-30T09:46:50.000Z</time>
      </trkpt>
      <trkpt lat="43.61302" lon="6.2856">
        <ele>719.4</ele>
        <time>2024-10-30T09:47:02.000Z</time>
      </trkpt>
      <trkpt lat="43.61308" lon="6.28551">
        <ele>720</ele>
        <time>2024-10-30T09:47:11.000Z</time>
      </trkpt>
      <trkpt lat="43.61314" lon="6.28544">
        <ele>721</ele>
        <time>2024-10-30T09:47:22.000Z</time>
      </trkpt>
      <trkpt lat="43.61322" lon="6.28539">
        <ele>721.9</ele>
        <time>2024-10-30T09:47:30.000Z</time>
      </trkpt>
      <trkpt lat="43.61328" lon="6.28531">
        <ele>722.8</ele>
        <time>2024-10-30T09:47:41.000Z</time>
      </trkpt>
      <trkpt lat="43.61328" lon="6.2853">
        <ele>722.9</ele>
        <time>2024-10-30T09:47:42.000Z</time>
      </trkpt>
      <trkpt lat="43.61342" lon="6.28519">
        <ele>725.1</ele>
        <time>2024-10-30T09:48:07.000Z</time>
      </trkpt>
      <trkpt lat="43.61349" lon="6.28515">
        <ele>725.8</ele>
        <time>2024-10-30T09:48:16.000Z</time>
      </trkpt>
      <trkpt lat="43.61357" lon="6.28511">
        <ele>726.9</ele>
        <time>2024-10-30T09:48:30.000Z</time>
      </trkpt>
      <trkpt lat="43.61366" lon="6.28509">
        <ele>728</ele>
        <time>2024-10-30T09:48:42.000Z</time>
      </trkpt>
      <trkpt lat="43.61375" lon="6.28509">
        <ele>728.8</ele>
        <time>2024-10-30T09:48:55.000Z</time>
      </trkpt>
      <trkpt lat="43.61376" lon="6.28509">
        <ele>728.9</ele>
        <time>2024-10-30T09:48:56.000Z</time>
      </trkpt>
      <trkpt lat="43.61393" lon="6.28511">
        <ele>731.1</ele>
        <time>2024-10-30T09:49:23.000Z</time>
      </trkpt>
      <trkpt lat="43.614" lon="6.28518">
        <ele>734</ele>
        <time>2024-10-30T09:49:52.000Z</time>
      </trkpt>
      <trkpt lat="43.61408" lon="6.2852">
        <ele>735.2</ele>
        <time>2024-10-30T09:50:32.000Z</time>
      </trkpt>
      <trkpt lat="43.61409" lon="6.2852">
        <ele>735.2</ele>
        <time>2024-10-30T09:50:33.000Z</time>
      </trkpt>
      <trkpt lat="43.61425" lon="6.28522">
        <ele>736.6</ele>
        <time>2024-10-30T09:50:53.000Z</time>
      </trkpt>
      <trkpt lat="43.61433" lon="6.28521">
        <ele>738.5</ele>
        <time>2024-10-30T09:51:12.000Z</time>
      </trkpt>
      <trkpt lat="43.61442" lon="6.2852">
        <ele>739.9</ele>
        <time>2024-10-30T09:51:25.000Z</time>
      </trkpt>
      <trkpt lat="43.61451" lon="6.28519">
        <ele>741.7</ele>
        <time>2024-10-30T09:51:40.000Z</time>
      </trkpt>
      <trkpt lat="43.61451" lon="6.28519">
        <ele>741.9</ele>
        <time>2024-10-30T09:51:41.000Z</time>
      </trkpt>
      <trkpt lat="43.61466" lon="6.28515">
        <ele>744.9</ele>
        <time>2024-10-30T09:52:09.000Z</time>
      </trkpt>
      <trkpt lat="43.61466" lon="6.28526">
        <ele>745.8</ele>
        <time>2024-10-30T09:54:57.000Z</time>
      </trkpt>
      <trkpt lat="43.61466" lon="6.28527">
        <ele>745.8</ele>
        <time>2024-10-30T09:54:58.000Z</time>
      </trkpt>
      <trkpt lat="43.61473" lon="6.28519">
        <ele>746.1</ele>
        <time>2024-10-30T09:57:54.000Z</time>
      </trkpt>
      <trkpt lat="43.61474" lon="6.28518">
        <ele>746.1</ele>
        <time>2024-10-30T09:57:55.000Z</time>
      </trkpt>
      <trkpt lat="43.61489" lon="6.28526">
        <ele>748.8</ele>
        <time>2024-10-30T09:58:19.000Z</time>
      </trkpt>
      <trkpt lat="43.61495" lon="6.28535">
        <ele>750.7</ele>
        <time>2024-10-30T09:58:30.000Z</time>
      </trkpt>
      <trkpt lat="43.61501" lon="6.28542">
        <ele>751.9</ele>
        <time>2024-10-30T09:58:40.000Z</time>
      </trkpt>
      <trkpt lat="43.61506" lon="6.28551">
        <ele>752.5</ele>
        <time>2024-10-30T09:58:48.000Z</time>
      </trkpt>
      <trkpt lat="43.61506" lon="6.28563">
        <ele>753.4</ele>
        <time>2024-10-30T09:59:00.000Z</time>
      </trkpt>
      <trkpt lat="43.61505" lon="6.28564">
        <ele>753.4</ele>
        <time>2024-10-30T09:59:01.000Z</time>
      </trkpt>
      <trkpt lat="43.61499" lon="6.28584">
        <ele>754.4</ele>
        <time>2024-10-30T09:59:18.000Z</time>
      </trkpt>
      <trkpt lat="43.61497" lon="6.28595">
        <ele>754.7</ele>
        <time>2024-10-30T09:59:27.000Z</time>
      </trkpt>
      <trkpt lat="43.61498" lon="6.28607">
        <ele>755.2</ele>
        <time>2024-10-30T09:59:37.000Z</time>
      </trkpt>
      <trkpt lat="43.61501" lon="6.28619">
        <ele>755.8</ele>
        <time>2024-10-30T09:59:46.000Z</time>
      </trkpt>
      <trkpt lat="43.61505" lon="6.28628">
        <ele>756.5</ele>
        <time>2024-10-30T09:59:56.000Z</time>
      </trkpt>
      <trkpt lat="43.61511" lon="6.28637">
        <ele>757.3</ele>
        <time>2024-10-30T10:00:06.000Z</time>
      </trkpt>
      <trkpt lat="43.61511" lon="6.28638">
        <ele>757.4</ele>
        <time>2024-10-30T10:00:07.000Z</time>
      </trkpt>
      <trkpt lat="43.61522" lon="6.28655">
        <ele>758.6</ele>
        <time>2024-10-30T10:00:25.000Z</time>
      </trkpt>
      <trkpt lat="43.6153" lon="6.28659">
        <ele>759</ele>
        <time>2024-10-30T10:00:35.000Z</time>
      </trkpt>
      <trkpt lat="43.61538" lon="6.28663">
        <ele>759.2</ele>
        <time>2024-10-30T10:00:44.000Z</time>
      </trkpt>
      <trkpt lat="43.61546" lon="6.28667">
        <ele>759.4</ele>
        <time>2024-10-30T10:00:54.000Z</time>
      </trkpt>
      <trkpt lat="43.61554" lon="6.28669">
        <ele>759.4</ele>
        <time>2024-10-30T10:01:03.000Z</time>
      </trkpt>
      <trkpt lat="43.61562" lon="6.28673">
        <ele>759.5</ele>
        <time>2024-10-30T10:01:12.000Z</time>
      </trkpt>
      <trkpt lat="43.61563" lon="6.28674">
        <ele>759.5</ele>
        <time>2024-10-30T10:01:13.000Z</time>
      </trkpt>
      <trkpt lat="43.61579" lon="6.28677">
        <ele>760.4</ele>
        <time>2024-10-30T10:01:31.000Z</time>
      </trkpt>
      <trkpt lat="43.61587" lon="6.28677">
        <ele>761.2</ele>
        <time>2024-10-30T10:01:42.000Z</time>
      </trkpt>
      <trkpt lat="43.61596" lon="6.28678">
        <ele>762</ele>
        <time>2024-10-30T10:01:52.000Z</time>
      </trkpt>
      <trkpt lat="43.61604" lon="6.2868">
        <ele>762.8</ele>
        <time>2024-10-30T10:02:02.000Z</time>
      </trkpt>
      <trkpt lat="43.61613" lon="6.28679">
        <ele>763.5</ele>
        <time>2024-10-30T10:02:14.000Z</time>
      </trkpt>
      <trkpt lat="43.61614" lon="6.28679">
        <ele>763.6</ele>
        <time>2024-10-30T10:02:15.000Z</time>
      </trkpt>
      <trkpt lat="43.6163" lon="6.28673">
        <ele>764.6</ele>
        <time>2024-10-30T10:02:34.000Z</time>
      </trkpt>
      <trkpt lat="43.61638" lon="6.28669">
        <ele>765.6</ele>
        <time>2024-10-30T10:02:44.000Z</time>
      </trkpt>
      <trkpt lat="43.61646" lon="6.28666">
        <ele>766.7</ele>
        <time>2024-10-30T10:02:56.000Z</time>
      </trkpt>
      <trkpt lat="43.61655" lon="6.28662">
        <ele>767.3</ele>
        <time>2024-10-30T10:03:06.000Z</time>
      </trkpt>
      <trkpt lat="43.61663" lon="6.28659">
        <ele>768.1</ele>
        <time>2024-10-30T10:03:18.000Z</time>
      </trkpt>
      <trkpt lat="43.61664" lon="6.28659">
        <ele>768.1</ele>
        <time>2024-10-30T10:03:19.000Z</time>
      </trkpt>
      <trkpt lat="43.61679" lon="6.2865">
        <ele>770.7</ele>
        <time>2024-10-30T10:04:11.000Z</time>
      </trkpt>
      <trkpt lat="43.61685" lon="6.28641">
        <ele>770.9</ele>
        <time>2024-10-30T10:07:05.000Z</time>
      </trkpt>
      <trkpt lat="43.61686" lon="6.2864">
        <ele>770.9</ele>
        <time>2024-10-30T10:07:06.000Z</time>
      </trkpt>
      <trkpt lat="43.61699" lon="6.28628">
        <ele>772.1</ele>
        <time>2024-10-30T10:07:28.000Z</time>
      </trkpt>
      <trkpt lat="43.61708" lon="6.28625">
        <ele>772.6</ele>
        <time>2024-10-30T10:07:39.000Z</time>
      </trkpt>
      <trkpt lat="43.61716" lon="6.28622">
        <ele>773.3</ele>
        <time>2024-10-30T10:07:50.000Z</time>
      </trkpt>
      <trkpt lat="43.61724" lon="6.28618">
        <ele>773.8</ele>
        <time>2024-10-30T10:07:59.000Z</time>
      </trkpt>
      <trkpt lat="43.61733" lon="6.28615">
        <ele>774.3</ele>
        <time>2024-10-30T10:08:08.000Z</time>
      </trkpt>
      <trkpt lat="43.61734" lon="6.28615">
        <ele>774.4</ele>
        <time>2024-10-30T10:08:09.000Z</time>
      </trkpt>
      <trkpt lat="43.6175" lon="6.28612">
        <ele>774.6</ele>
        <time>2024-10-30T10:08:26.000Z</time>
      </trkpt>
      <trkpt lat="43.61758" lon="6.28608">
        <ele>774.6</ele>
        <time>2024-10-30T10:08:34.000Z</time>
      </trkpt>
      <trkpt lat="43.61767" lon="6.28607">
        <ele>774.6</ele>
        <time>2024-10-30T10:08:43.000Z</time>
      </trkpt>
      <trkpt lat="43.61776" lon="6.28608">
        <ele>774.8</ele>
        <time>2024-10-30T10:08:57.000Z</time>
      </trkpt>
      <trkpt lat="43.61784" lon="6.28606">
        <ele>775.7</ele>
        <time>2024-10-30T10:09:07.000Z</time>
      </trkpt>
      <trkpt lat="43.61793" lon="6.28608">
        <ele>776.5</ele>
        <time>2024-10-30T10:09:18.000Z</time>
      </trkpt>
      <trkpt lat="43.61793" lon="6.28609">
        <ele>776.6</ele>
        <time>2024-10-30T10:09:19.000Z</time>
      </trkpt>
      <trkpt lat="43.6181" lon="6.28612">
        <ele>778.7</ele>
        <time>2024-10-30T10:09:39.000Z</time>
      </trkpt>
      <trkpt lat="43.61818" lon="6.28612">
        <ele>779.6</ele>
        <time>2024-10-30T10:09:50.000Z</time>
      </trkpt>
      <trkpt lat="43.61826" lon="6.28607">
        <ele>780.4</ele>
        <time>2024-10-30T10:10:00.000Z</time>
      </trkpt>
      <trkpt lat="43.61834" lon="6.28602">
        <ele>781.4</ele>
        <time>2024-10-30T10:10:11.000Z</time>
      </trkpt>
      <trkpt lat="43.61841" lon="6.28594">
        <ele>781.9</ele>
        <time>2024-10-30T10:10:22.000Z</time>
      </trkpt>
      <trkpt lat="43.61842" lon="6.28593">
        <ele>781.9</ele>
        <time>2024-10-30T10:10:23.000Z</time>
      </trkpt>
      <trkpt lat="43.61854" lon="6.28579">
        <ele>782.4</ele>
        <time>2024-10-30T10:10:42.000Z</time>
      </trkpt>
      <trkpt lat="43.61861" lon="6.28572">
        <ele>782.8</ele>
        <time>2024-10-30T10:10:52.000Z</time>
      </trkpt>
      <trkpt lat="43.61866" lon="6.28563">
        <ele>783</ele>
        <time>2024-10-30T10:11:00.000Z</time>
      </trkpt>
      <trkpt lat="43.61871" lon="6.28553">
        <ele>783.1</ele>
        <time>2024-10-30T10:11:08.000Z</time>
      </trkpt>
      <trkpt lat="43.61871" lon="6.28541">
        <ele>782.8</ele>
        <time>2024-10-30T10:11:18.000Z</time>
      </trkpt>
      <trkpt lat="43.61876" lon="6.28531">
        <ele>782.4</ele>
        <time>2024-10-30T10:11:27.000Z</time>
      </trkpt>
      <trkpt lat="43.61877" lon="6.2853">
        <ele>782.3</ele>
        <time>2024-10-30T10:11:28.000Z</time>
      </trkpt>
      <trkpt lat="43.6188" lon="6.28509">
        <ele>781.8</ele>
        <time>2024-10-30T10:11:46.000Z</time>
      </trkpt>
      <trkpt lat="43.61883" lon="6.28499">
        <ele>781.6</ele>
        <time>2024-10-30T10:11:54.000Z</time>
      </trkpt>
      <trkpt lat="43.61885" lon="6.28487">
        <ele>781.5</ele>
        <time>2024-10-30T10:12:03.000Z</time>
      </trkpt>
      <trkpt lat="43.61887" lon="6.28476">
        <ele>781.4</ele>
        <time>2024-10-30T10:12:11.000Z</time>
      </trkpt>
      <trkpt lat="43.6189" lon="6.28466">
        <ele>781.4</ele>
        <time>2024-10-30T10:12:18.000Z</time>
      </trkpt>
      <trkpt lat="43.61896" lon="6.28458">
        <ele>781.4</ele>
        <time>2024-10-30T10:12:23.000Z</time>
      </trkpt>
      <trkpt lat="43.61901" lon="6.28451">
        <ele>781.8</ele>
        <time>2024-10-30T10:12:30.000Z</time>
      </trkpt>
      <trkpt lat="43.61902" lon="6.2845">
        <ele>781.9</ele>
        <time>2024-10-30T10:12:31.000Z</time>
      </trkpt>
      <trkpt lat="43.61916" lon="6.28437">
        <ele>782.9</ele>
        <time>2024-10-30T10:12:47.000Z</time>
      </trkpt>
      <trkpt lat="43.61921" lon="6.28427">
        <ele>783.8</ele>
        <time>2024-10-30T10:12:57.000Z</time>
      </trkpt>
      <trkpt lat="43.61927" lon="6.28418">
        <ele>785.4</ele>
        <time>2024-10-30T10:13:11.000Z</time>
      </trkpt>
      <trkpt lat="43.61935" lon="6.28415">
        <ele>786.9</ele>
        <time>2024-10-30T10:13:25.000Z</time>
      </trkpt>
      <trkpt lat="43.61944" lon="6.28414">
        <ele>788.9</ele>
        <time>2024-10-30T10:13:43.000Z</time>
      </trkpt>
      <trkpt lat="43.61945" lon="6.28414">
        <ele>789</ele>
        <time>2024-10-30T10:13:44.000Z</time>
      </trkpt>
      <trkpt lat="43.6196" lon="6.28408">
        <ele>791.7</ele>
        <time>2024-10-30T10:14:11.000Z</time>
      </trkpt>
      <trkpt lat="43.61969" lon="6.28406">
        <ele>793.6</ele>
        <time>2024-10-30T10:14:26.000Z</time>
      </trkpt>
      <trkpt lat="43.61963" lon="6.28399">
        <ele>797.1</ele>
        <time>2024-10-30T10:15:10.000Z</time>
      </trkpt>
      <trkpt lat="43.61962" lon="6.28398">
        <ele>797.1</ele>
        <time>2024-10-30T10:15:11.000Z</time>
      </trkpt>
      <trkpt lat="43.61952" lon="6.28382">
        <ele>798.6</ele>
        <time>2024-10-30T10:15:31.000Z</time>
      </trkpt>
      <trkpt lat="43.61945" lon="6.28375">
        <ele>799.8</ele>
        <time>2024-10-30T10:15:45.000Z</time>
      </trkpt>
      <trkpt lat="43.61938" lon="6.28369">
        <ele>800.6</ele>
        <time>2024-10-30T10:15:54.000Z</time>
      </trkpt>
      <trkpt lat="43.6193" lon="6.28362">
        <ele>802</ele>
        <time>2024-10-30T10:16:10.000Z</time>
      </trkpt>
      <trkpt lat="43.61921" lon="6.28364">
        <ele>805</ele>
        <time>2024-10-30T10:16:52.000Z</time>
      </trkpt>
      <trkpt lat="43.61921" lon="6.28364">
        <ele>805.1</ele>
        <time>2024-10-30T10:16:53.000Z</time>
      </trkpt>
      <trkpt lat="43.61905" lon="6.28373">
        <ele>808.1</ele>
        <time>2024-10-30T10:17:26.000Z</time>
      </trkpt>
      <trkpt lat="43.61898" lon="6.28367">
        <ele>810.1</ele>
        <time>2024-10-30T10:17:47.000Z</time>
      </trkpt>
      <trkpt lat="43.619" lon="6.28355">
        <ele>811.5</ele>
        <time>2024-10-30T10:18:06.000Z</time>
      </trkpt>
      <trkpt lat="43.619" lon="6.28354">
        <ele>811.6</ele>
        <time>2024-10-30T10:18:07.000Z</time>
      </trkpt>
      <trkpt lat="43.61905" lon="6.28331">
        <ele>815</ele>
        <time>2024-10-30T10:18:43.000Z</time>
      </trkpt>
      <trkpt lat="43.61908" lon="6.2832">
        <ele>816.1</ele>
        <time>2024-10-30T10:18:58.000Z</time>
      </trkpt>
      <trkpt lat="43.61912" lon="6.28309">
        <ele>817.1</ele>
        <time>2024-10-30T10:19:12.000Z</time>
      </trkpt>
      <trkpt lat="43.61912" lon="6.28309">
        <ele>817.2</ele>
        <time>2024-10-30T10:19:13.000Z</time>
      </trkpt>
      <trkpt lat="43.61912" lon="6.28286">
        <ele>820</ele>
        <time>2024-10-30T10:19:48.000Z</time>
      </trkpt>
      <trkpt lat="43.61918" lon="6.28281">
        <ele>821</ele>
        <time>2024-10-30T10:20:39.000Z</time>
      </trkpt>
      <trkpt lat="43.61922" lon="6.28281">
        <ele>821</ele>
        <time>2024-10-30T10:20:43.000Z</time>
      </trkpt>
      <trkpt lat="43.61919" lon="6.28279">
        <ele>821.6</ele>
        <time>2024-10-30T10:22:08.000Z</time>
      </trkpt>
      <trkpt lat="43.61917" lon="6.2828">
        <ele>821.6</ele>
        <time>2024-10-30T10:22:09.000Z</time>
      </trkpt>
      <trkpt lat="43.61935" lon="6.2827">
        <ele>821.9</ele>
        <time>2024-10-30T10:22:51.000Z</time>
      </trkpt>
      <trkpt lat="43.61942" lon="6.28263">
        <ele>822.5</ele>
        <time>2024-10-30T10:23:06.000Z</time>
      </trkpt>
      <trkpt lat="43.61949" lon="6.28261">
        <ele>822.7</ele>
        <time>2024-10-30T10:23:16.000Z</time>
      </trkpt>
      <trkpt lat="43.61951" lon="6.2826">
        <ele>822.8</ele>
        <time>2024-10-30T10:23:17.000Z</time>
      </trkpt>
      <trkpt lat="43.61966" lon="6.28259">
        <ele>823.5</ele>
        <time>2024-10-30T10:23:31.000Z</time>
      </trkpt>
      <trkpt lat="43.61972" lon="6.28265">
        <ele>824.7</ele>
        <time>2024-10-30T10:23:41.000Z</time>
      </trkpt>
      <trkpt lat="43.6198" lon="6.28272">
        <ele>825.9</ele>
        <time>2024-10-30T10:23:53.000Z</time>
      </trkpt>
      <trkpt lat="43.61987" lon="6.28279">
        <ele>827.2</ele>
        <time>2024-10-30T10:24:08.000Z</time>
      </trkpt>
      <trkpt lat="43.61994" lon="6.28286">
        <ele>828.4</ele>
        <time>2024-10-30T10:24:18.000Z</time>
      </trkpt>
      <trkpt lat="43.61995" lon="6.28286">
        <ele>828.5</ele>
        <time>2024-10-30T10:24:19.000Z</time>
      </trkpt>
      <trkpt lat="43.62009" lon="6.28296">
        <ele>830.9</ele>
        <time>2024-10-30T10:24:43.000Z</time>
      </trkpt>
      <trkpt lat="43.62017" lon="6.28301">
        <ele>833</ele>
        <time>2024-10-30T10:25:00.000Z</time>
      </trkpt>
      <trkpt lat="43.62025" lon="6.28308">
        <ele>833.9</ele>
        <time>2024-10-30T10:25:11.000Z</time>
      </trkpt>
      <trkpt lat="43.62032" lon="6.28313">
        <ele>835.4</ele>
        <time>2024-10-30T10:25:27.000Z</time>
      </trkpt>
      <trkpt lat="43.62033" lon="6.28314">
        <ele>835.6</ele>
        <time>2024-10-30T10:25:28.000Z</time>
      </trkpt>
      <trkpt lat="43.62049" lon="6.28312">
        <ele>838.2</ele>
        <time>2024-10-30T10:25:53.000Z</time>
      </trkpt>
      <trkpt lat="43.62056" lon="6.28305">
        <ele>839.1</ele>
        <time>2024-10-30T10:26:04.000Z</time>
      </trkpt>
      <trkpt lat="43.62064" lon="6.28298">
        <ele>839.3</ele>
        <time>2024-10-30T10:26:16.000Z</time>
      </trkpt>
      <trkpt lat="43.62072" lon="6.28294">
        <ele>839.3</ele>
        <time>2024-10-30T10:26:27.000Z</time>
      </trkpt>
      <trkpt lat="43.6208" lon="6.28294">
        <ele>839.3</ele>
        <time>2024-10-30T10:26:38.000Z</time>
      </trkpt>
      <trkpt lat="43.62081" lon="6.28294">
        <ele>839.3</ele>
        <time>2024-10-30T10:26:39.000Z</time>
      </trkpt>
      <trkpt lat="43.62098" lon="6.28294">
        <ele>839.6</ele>
        <time>2024-10-30T10:27:02.000Z</time>
      </trkpt>
      <trkpt lat="43.62106" lon="6.28297">
        <ele>840</ele>
        <time>2024-10-30T10:27:18.000Z</time>
      </trkpt>
      <trkpt lat="43.62114" lon="6.28301">
        <ele>840.6</ele>
        <time>2024-10-30T10:27:29.000Z</time>
      </trkpt>
      <trkpt lat="43.62121" lon="6.28308">
        <ele>841.6</ele>
        <time>2024-10-30T10:27:39.000Z</time>
      </trkpt>
      <trkpt lat="43.62125" lon="6.28317">
        <ele>842.8</ele>
        <time>2024-10-30T10:27:50.000Z</time>
      </trkpt>
      <trkpt lat="43.62125" lon="6.28319">
        <ele>842.9</ele>
        <time>2024-10-30T10:27:51.000Z</time>
      </trkpt>
      <trkpt lat="43.62134" lon="6.28336">
        <ele>843.6</ele>
        <time>2024-10-30T10:28:11.000Z</time>
      </trkpt>
      <trkpt lat="43.6214" lon="6.28344">
        <ele>843.8</ele>
        <time>2024-10-30T10:28:22.000Z</time>
      </trkpt>
      <trkpt lat="43.62144" lon="6.28354">
        <ele>843.9</ele>
        <time>2024-10-30T10:28:32.000Z</time>
      </trkpt>
      <trkpt lat="43.6215" lon="6.28364">
        <ele>844.6</ele>
        <time>2024-10-30T10:28:44.000Z</time>
      </trkpt>
      <trkpt lat="43.62156" lon="6.28371">
        <ele>845.1</ele>
        <time>2024-10-30T10:28:52.000Z</time>
      </trkpt>
      <trkpt lat="43.62156" lon="6.28372">
        <ele>845.2</ele>
        <time>2024-10-30T10:28:53.000Z</time>
      </trkpt>
      <trkpt lat="43.6217" lon="6.28383">
        <ele>847.3</ele>
        <time>2024-10-30T10:29:16.000Z</time>
      </trkpt>
      <trkpt lat="43.62178" lon="6.28386">
        <ele>847.8</ele>
        <time>2024-10-30T10:29:23.000Z</time>
      </trkpt>
      <trkpt lat="43.62186" lon="6.28389">
        <ele>848</ele>
        <time>2024-10-30T10:29:32.000Z</time>
      </trkpt>
      <trkpt lat="43.62194" lon="6.28391">
        <ele>848.6</ele>
        <time>2024-10-30T10:29:45.000Z</time>
      </trkpt>
      <trkpt lat="43.62202" lon="6.28394">
        <ele>849.7</ele>
        <time>2024-10-30T10:30:03.000Z</time>
      </trkpt>
      <trkpt lat="43.62203" lon="6.28394">
        <ele>849.7</ele>
        <time>2024-10-30T10:30:04.000Z</time>
      </trkpt>
      <trkpt lat="43.62216" lon="6.28409">
        <ele>849.5</ele>
        <time>2024-10-30T10:30:20.000Z</time>
      </trkpt>
      <trkpt lat="43.62222" lon="6.28417">
        <ele>849.9</ele>
        <time>2024-10-30T10:30:28.000Z</time>
      </trkpt>
      <trkpt lat="43.62228" lon="6.28425">
        <ele>850.5</ele>
        <time>2024-10-30T10:30:43.000Z</time>
      </trkpt>
      <trkpt lat="43.62236" lon="6.28431">
        <ele>851.7</ele>
        <time>2024-10-30T10:30:56.000Z</time>
      </trkpt>
      <trkpt lat="43.62243" lon="6.28438">
        <ele>852.5</ele>
        <time>2024-10-30T10:31:09.000Z</time>
      </trkpt>
      <trkpt lat="43.62244" lon="6.28439">
        <ele>852.5</ele>
        <time>2024-10-30T10:31:10.000Z</time>
      </trkpt>
      <trkpt lat="43.62244" lon="6.28437">
        <ele>853.6</ele>
        <time>2024-10-30T10:32:57.000Z</time>
      </trkpt>
      <trkpt lat="43.62243" lon="6.28437">
        <ele>853.6</ele>
        <time>2024-10-30T10:32:58.000Z</time>
      </trkpt>
      <trkpt lat="43.62259" lon="6.28445">
        <ele>854.6</ele>
        <time>2024-10-30T10:33:45.000Z</time>
      </trkpt>
      <trkpt lat="43.62266" lon="6.28448">
        <ele>854.7</ele>
        <time>2024-10-30T10:33:53.000Z</time>
      </trkpt>
      <trkpt lat="43.62274" lon="6.28454">
        <ele>854.8</ele>
        <time>2024-10-30T10:34:00.000Z</time>
      </trkpt>
      <trkpt lat="43.62275" lon="6.28454">
        <ele>854.8</ele>
        <time>2024-10-30T10:34:01.000Z</time>
      </trkpt>
      <trkpt lat="43.6229" lon="6.28459">
        <ele>856.1</ele>
        <time>2024-10-30T10:34:25.000Z</time>
      </trkpt>
      <trkpt lat="43.62298" lon="6.28458">
        <ele>856.7</ele>
        <time>2024-10-30T10:34:35.000Z</time>
      </trkpt>
      <trkpt lat="43.62307" lon="6.28458">
        <ele>857.2</ele>
        <time>2024-10-30T10:34:45.000Z</time>
      </trkpt>
      <trkpt lat="43.62315" lon="6.28459">
        <ele>857.4</ele>
        <time>2024-10-30T10:34:52.000Z</time>
      </trkpt>
      <trkpt lat="43.62324" lon="6.28459">
        <ele>857.7</ele>
        <time>2024-10-30T10:35:02.000Z</time>
      </trkpt>
      <trkpt lat="43.62325" lon="6.28459">
        <ele>857.8</ele>
        <time>2024-10-30T10:35:03.000Z</time>
      </trkpt>
      <trkpt lat="43.62341" lon="6.28457">
        <ele>858.2</ele>
        <time>2024-10-30T10:35:23.000Z</time>
      </trkpt>
      <trkpt lat="43.62349" lon="6.28454">
        <ele>858.4</ele>
        <time>2024-10-30T10:35:32.000Z</time>
      </trkpt>
      <trkpt lat="43.62357" lon="6.2845">
        <ele>858.8</ele>
        <time>2024-10-30T10:35:43.000Z</time>
      </trkpt>
      <trkpt lat="43.62366" lon="6.28452">
        <ele>860.1</ele>
        <time>2024-10-30T10:35:56.000Z</time>
      </trkpt>
      <trkpt lat="43.62372" lon="6.2846">
        <ele>861.6</ele>
        <time>2024-10-30T10:36:13.000Z</time>
      </trkpt>
      <trkpt lat="43.62373" lon="6.28461">
        <ele>861.7</ele>
        <time>2024-10-30T10:36:14.000Z</time>
      </trkpt>
      <trkpt lat="43.62382" lon="6.28479">
        <ele>863.9</ele>
        <time>2024-10-30T10:36:50.000Z</time>
      </trkpt>
      <trkpt lat="43.62389" lon="6.28487">
        <ele>864.2</ele>
        <time>2024-10-30T10:36:59.000Z</time>
      </trkpt>
      <trkpt lat="43.62394" lon="6.28496">
        <ele>865</ele>
        <time>2024-10-30T10:37:12.000Z</time>
      </trkpt>
      <trkpt lat="43.62401" lon="6.28504">
        <ele>865.8</ele>
        <time>2024-10-30T10:37:25.000Z</time>
      </trkpt>
      <trkpt lat="43.62401" lon="6.28505">
        <ele>865.9</ele>
        <time>2024-10-30T10:37:26.000Z</time>
      </trkpt>
      <trkpt lat="43.62411" lon="6.28521">
        <ele>867.9</ele>
        <time>2024-10-30T10:37:52.000Z</time>
      </trkpt>
      <trkpt lat="43.62416" lon="6.28531">
        <ele>868.3</ele>
        <time>2024-10-30T10:38:00.000Z</time>
      </trkpt>
      <trkpt lat="43.62421" lon="6.2854">
        <ele>868.8</ele>
        <time>2024-10-30T10:38:13.000Z</time>
      </trkpt>
      <trkpt lat="43.62428" lon="6.28548">
        <ele>868.8</ele>
        <time>2024-10-30T10:38:32.000Z</time>
      </trkpt>
      <trkpt lat="43.62428" lon="6.28548">
        <ele>868.8</ele>
        <time>2024-10-30T10:38:33.000Z</time>
      </trkpt>
      <trkpt lat="43.62431" lon="6.28566">
        <ele>869.3</ele>
        <time>2024-10-30T10:39:26.000Z</time>
      </trkpt>
      <trkpt lat="43.62424" lon="6.28572">
        <ele>868.9</ele>
        <time>2024-10-30T10:39:35.000Z</time>
      </trkpt>
      <trkpt lat="43.62422" lon="6.28572">
        <ele>868.9</ele>
        <time>2024-10-30T10:39:36.000Z</time>
      </trkpt>
      <trkpt lat="43.62411" lon="6.28585">
        <ele>868.7</ele>
        <time>2024-10-30T10:39:51.000Z</time>
      </trkpt>
      <trkpt lat="43.62404" lon="6.28593">
        <ele>868.4</ele>
        <time>2024-10-30T10:39:59.000Z</time>
      </trkpt>
      <trkpt lat="43.62401" lon="6.28604">
        <ele>868.2</ele>
        <time>2024-10-30T10:40:12.000Z</time>
      </trkpt>
      <trkpt lat="43.62399" lon="6.28616">
        <ele>868.1</ele>
        <time>2024-10-30T10:40:22.000Z</time>
      </trkpt>
      <trkpt lat="43.62399" lon="6.28628">
        <ele>868</ele>
        <time>2024-10-30T10:40:33.000Z</time>
      </trkpt>
      <trkpt lat="43.62401" lon="6.28639">
        <ele>867.9</ele>
        <time>2024-10-30T10:40:42.000Z</time>
      </trkpt>
      <trkpt lat="43.62401" lon="6.28641">
        <ele>867.9</ele>
        <time>2024-10-30T10:40:43.000Z</time>
      </trkpt>
      <trkpt lat="43.62394" lon="6.2866">
        <ele>867.9</ele>
        <time>2024-10-30T10:41:00.000Z</time>
      </trkpt>
      <trkpt lat="43.62388" lon="6.28667">
        <ele>868.1</ele>
        <time>2024-10-30T10:41:09.000Z</time>
      </trkpt>
      <trkpt lat="43.62383" lon="6.28676">
        <ele>868.2</ele>
        <time>2024-10-30T10:41:15.000Z</time>
      </trkpt>
      <trkpt lat="43.62377" lon="6.28684">
        <ele>868.2</ele>
        <time>2024-10-30T10:41:22.000Z</time>
      </trkpt>
      <trkpt lat="43.62371" lon="6.28693">
        <ele>868.2</ele>
        <time>2024-10-30T10:41:29.000Z</time>
      </trkpt>
      <trkpt lat="43.62365" lon="6.28701">
        <ele>868.2</ele>
        <time>2024-10-30T10:41:40.000Z</time>
      </trkpt>
      <trkpt lat="43.62358" lon="6.28709">
        <ele>868</ele>
        <time>2024-10-30T10:41:55.000Z</time>
      </trkpt>
      <trkpt lat="43.62357" lon="6.28709">
        <ele>868</ele>
        <time>2024-10-30T10:41:56.000Z</time>
      </trkpt>
      <trkpt lat="43.62343" lon="6.28697">
        <ele>868</ele>
        <time>2024-10-30T10:42:20.000Z</time>
      </trkpt>
      <trkpt lat="43.62337" lon="6.28691">
        <ele>867.8</ele>
        <time>2024-10-30T10:42:33.000Z</time>
      </trkpt>
      <trkpt lat="43.6233" lon="6.28689">
        <ele>867.8</ele>
        <time>2024-10-30T10:42:40.000Z</time>
      </trkpt>
      <trkpt lat="43.62321" lon="6.28689">
        <ele>867.6</ele>
        <time>2024-10-30T10:42:48.000Z</time>
      </trkpt>
      <trkpt lat="43.62313" lon="6.28687">
        <ele>867.4</ele>
        <time>2024-10-30T10:42:57.000Z</time>
      </trkpt>
      <trkpt lat="43.62312" lon="6.28687">
        <ele>867.4</ele>
        <time>2024-10-30T10:42:58.000Z</time>
      </trkpt>
      <trkpt lat="43.62298" lon="6.28677">
        <ele>866.9</ele>
        <time>2024-10-30T10:43:19.000Z</time>
      </trkpt>
      <trkpt lat="43.62291" lon="6.28677">
        <ele>866.4</ele>
        <time>2024-10-30T10:43:27.000Z</time>
      </trkpt>
      <trkpt lat="43.62284" lon="6.28669">
        <ele>865.4</ele>
        <time>2024-10-30T10:43:38.000Z</time>
      </trkpt>
      <trkpt lat="43.62283" lon="6.28657">
        <ele>864.6</ele>
        <time>2024-10-30T10:43:49.000Z</time>
      </trkpt>
      <trkpt lat="43.62284" lon="6.28646">
        <ele>863.7</ele>
        <time>2024-10-30T10:44:01.000Z</time>
      </trkpt>
      <trkpt lat="43.62284" lon="6.28644">
        <ele>863.7</ele>
        <time>2024-10-30T10:44:02.000Z</time>
      </trkpt>
      <trkpt lat="43.62285" lon="6.28623">
        <ele>861.7</ele>
        <time>2024-10-30T10:44:25.000Z</time>
      </trkpt>
      <trkpt lat="43.62288" lon="6.28613">
        <ele>861</ele>
        <time>2024-10-30T10:44:34.000Z</time>
      </trkpt>
      <trkpt lat="43.62285" lon="6.28602">
        <ele>860.1</ele>
        <time>2024-10-30T10:44:43.000Z</time>
      </trkpt>
      <trkpt lat="43.62281" lon="6.28593">
        <ele>859.5</ele>
        <time>2024-10-30T10:44:49.000Z</time>
      </trkpt>
      <trkpt lat="43.62282" lon="6.28581">
        <ele>858.6</ele>
        <time>2024-10-30T10:44:59.000Z</time>
      </trkpt>
      <trkpt lat="43.6228" lon="6.28571">
        <ele>857.7</ele>
        <time>2024-10-30T10:45:10.000Z</time>
      </trkpt>
      <trkpt lat="43.62279" lon="6.28569">
        <ele>857.7</ele>
        <time>2024-10-30T10:45:11.000Z</time>
      </trkpt>
      <trkpt lat="43.6227" lon="6.28551">
        <ele>857.3</ele>
        <time>2024-10-30T10:45:23.000Z</time>
      </trkpt>
      <trkpt lat="43.62263" lon="6.28544">
        <ele>857.2</ele>
        <time>2024-10-30T10:45:31.000Z</time>
      </trkpt>
      <trkpt lat="43.62258" lon="6.28534">
        <ele>857.2</ele>
        <time>2024-10-30T10:45:42.000Z</time>
      </trkpt>
      <trkpt lat="43.6225" lon="6.28529">
        <ele>856.3</ele>
        <time>2024-10-30T10:45:52.000Z</time>
      </trkpt>
      <trkpt lat="43.62241" lon="6.28527">
        <ele>855.6</ele>
        <time>2024-10-30T10:46:00.000Z</time>
      </trkpt>
      <trkpt lat="43.62237" lon="6.28516">
        <ele>854.5</ele>
        <time>2024-10-30T10:46:12.000Z</time>
      </trkpt>
      <trkpt lat="43.62236" lon="6.28515">
        <ele>854.4</ele>
        <time>2024-10-30T10:46:13.000Z</time>
      </trkpt>
      <trkpt lat="43.62238" lon="6.28515">
        <ele>853.2</ele>
        <time>2024-10-30T10:47:03.000Z</time>
      </trkpt>
      <trkpt lat="43.62245" lon="6.28519">
        <ele>854.3</ele>
        <time>2024-10-30T10:47:18.000Z</time>
      </trkpt>
      <trkpt lat="43.62246" lon="6.2852">
        <ele>854.4</ele>
        <time>2024-10-30T10:47:19.000Z</time>
      </trkpt>
      <trkpt lat="43.62261" lon="6.28526">
        <ele>855.6</ele>
        <time>2024-10-30T10:47:35.000Z</time>
      </trkpt>
      <trkpt lat="43.62268" lon="6.28534">
        <ele>856.2</ele>
        <time>2024-10-30T10:47:45.000Z</time>
      </trkpt>
      <trkpt lat="43.62272" lon="6.28544">
        <ele>856.5</ele>
        <time>2024-10-30T10:47:54.000Z</time>
      </trkpt>
      <trkpt lat="43.62275" lon="6.28555">
        <ele>857.2</ele>
        <time>2024-10-30T10:48:04.000Z</time>
      </trkpt>
      <trkpt lat="43.62279" lon="6.28564">
        <ele>857.4</ele>
        <time>2024-10-30T10:48:13.000Z</time>
      </trkpt>
      <trkpt lat="43.62284" lon="6.28573">
        <ele>857.7</ele>
        <time>2024-10-30T10:48:23.000Z</time>
      </trkpt>
      <trkpt lat="43.62284" lon="6.28575">
        <ele>857.7</ele>
        <time>2024-10-30T10:48:24.000Z</time>
      </trkpt>
      <trkpt lat="43.62292" lon="6.28593">
        <ele>858.1</ele>
        <time>2024-10-30T10:48:39.000Z</time>
      </trkpt>
      <trkpt lat="43.62293" lon="6.28605">
        <ele>858.8</ele>
        <time>2024-10-30T10:48:48.000Z</time>
      </trkpt>
      <trkpt lat="43.6229" lon="6.28617">
        <ele>859.7</ele>
        <time>2024-10-30T10:48:58.000Z</time>
      </trkpt>
      <trkpt lat="43.62293" lon="6.28628">
        <ele>860.7</ele>
        <time>2024-10-30T10:49:08.000Z</time>
      </trkpt>
      <trkpt lat="43.62288" lon="6.28638">
        <ele>861.2</ele>
        <time>2024-10-30T10:49:17.000Z</time>
      </trkpt>
      <trkpt lat="43.62284" lon="6.28648">
        <ele>861.6</ele>
        <time>2024-10-30T10:49:26.000Z</time>
      </trkpt>
      <trkpt lat="43.62284" lon="6.28649">
        <ele>861.7</ele>
        <time>2024-10-30T10:49:27.000Z</time>
      </trkpt>
      <trkpt lat="43.62273" lon="6.28666">
        <ele>862.3</ele>
        <time>2024-10-30T10:49:47.000Z</time>
      </trkpt>
      <trkpt lat="43.62269" lon="6.28677">
        <ele>862.6</ele>
        <time>2024-10-30T10:50:03.000Z</time>
      </trkpt>
      <trkpt lat="43.62263" lon="6.28684">
        <ele>862.5</ele>
        <time>2024-10-30T10:50:12.000Z</time>
      </trkpt>
      <trkpt lat="43.62257" lon="6.28691">
        <ele>862.3</ele>
        <time>2024-10-30T10:50:21.000Z</time>
      </trkpt>
      <trkpt lat="43.6225" lon="6.28694">
        <ele>861.8</ele>
        <time>2024-10-30T10:50:28.000Z</time>
      </trkpt>
      <trkpt lat="43.62247" lon="6.28695">
        <ele>861.7</ele>
        <time>2024-10-30T10:50:29.000Z</time>
      </trkpt>
      <trkpt lat="43.62234" lon="6.28696">
        <ele>860.3</ele>
        <time>2024-10-30T10:50:43.000Z</time>
      </trkpt>
      <trkpt lat="43.62226" lon="6.28693">
        <ele>858.3</ele>
        <time>2024-10-30T10:51:00.000Z</time>
      </trkpt>
      <trkpt lat="43.62218" lon="6.28695">
        <ele>857.2</ele>
        <time>2024-10-30T10:51:11.000Z</time>
      </trkpt>
      <trkpt lat="43.62211" lon="6.28701">
        <ele>856.2</ele>
        <time>2024-10-30T10:51:22.000Z</time>
      </trkpt>
      <trkpt lat="43.62207" lon="6.28712">
        <ele>855.8</ele>
        <time>2024-10-30T10:51:31.000Z</time>
      </trkpt>
      <trkpt lat="43.62207" lon="6.28713">
        <ele>855.8</ele>
        <time>2024-10-30T10:51:32.000Z</time>
      </trkpt>
      <trkpt lat="43.62199" lon="6.28733">
        <ele>854.8</ele>
        <time>2024-10-30T10:51:50.000Z</time>
      </trkpt>
      <trkpt lat="43.62192" lon="6.28742">
        <ele>854.4</ele>
        <time>2024-10-30T10:52:00.000Z</time>
      </trkpt>
      <trkpt lat="43.62188" lon="6.28753">
        <ele>853.7</ele>
        <time>2024-10-30T10:52:07.000Z</time>
      </trkpt>
      <trkpt lat="43.62185" lon="6.28762">
        <ele>853.2</ele>
        <time>2024-10-30T10:52:14.000Z</time>
      </trkpt>
      <trkpt lat="43.62184" lon="6.28774">
        <ele>852.9</ele>
        <time>2024-10-30T10:52:25.000Z</time>
      </trkpt>
      <trkpt lat="43.62178" lon="6.2878">
        <ele>852.8</ele>
        <time>2024-10-30T10:52:32.000Z</time>
      </trkpt>
      <trkpt lat="43.6217" lon="6.28783">
        <ele>852.4</ele>
        <time>2024-10-30T10:52:41.000Z</time>
      </trkpt>
      <trkpt lat="43.62169" lon="6.28784">
        <ele>852.3</ele>
        <time>2024-10-30T10:52:42.000Z</time>
      </trkpt>
      <trkpt lat="43.62156" lon="6.28794">
        <ele>851.3</ele>
        <time>2024-10-30T10:52:59.000Z</time>
      </trkpt>
      <trkpt lat="43.6215" lon="6.288">
        <ele>851.1</ele>
        <time>2024-10-30T10:53:03.000Z</time>
      </trkpt>
      <trkpt lat="43.62144" lon="6.28807">
        <ele>850.6</ele>
        <time>2024-10-30T10:53:09.000Z</time>
      </trkpt>
      <trkpt lat="43.62138" lon="6.28814">
        <ele>850.3</ele>
        <time>2024-10-30T10:53:17.000Z</time>
      </trkpt>
      <trkpt lat="43.62134" lon="6.28825">
        <ele>849.9</ele>
        <time>2024-10-30T10:53:24.000Z</time>
      </trkpt>
      <trkpt lat="43.62135" lon="6.28837">
        <ele>849.5</ele>
        <time>2024-10-30T10:53:32.000Z</time>
      </trkpt>
      <trkpt lat="43.6213" lon="6.28847">
        <ele>849.5</ele>
        <time>2024-10-30T10:53:41.000Z</time>
      </trkpt>
      <trkpt lat="43.62125" lon="6.28856">
        <ele>849.5</ele>
        <time>2024-10-30T10:53:51.000Z</time>
      </trkpt>
      <trkpt lat="43.62123" lon="6.28857">
        <ele>849.5</ele>
        <time>2024-10-30T10:53:52.000Z</time>
      </trkpt>
      <trkpt lat="43.6211" lon="6.28866">
        <ele>849.4</ele>
        <time>2024-10-30T10:54:03.000Z</time>
      </trkpt>
      <trkpt lat="43.62102" lon="6.28868">
        <ele>849.8</ele>
        <time>2024-10-30T10:54:10.000Z</time>
      </trkpt>
      <trkpt lat="43.62094" lon="6.28873">
        <ele>850.6</ele>
        <time>2024-10-30T10:54:26.000Z</time>
      </trkpt>
      <trkpt lat="43.62086" lon="6.28879">
        <ele>851.6</ele>
        <time>2024-10-30T10:54:38.000Z</time>
      </trkpt>
      <trkpt lat="43.6208" lon="6.28885">
        <ele>853.2</ele>
        <time>2024-10-30T10:54:53.000Z</time>
      </trkpt>
      <trkpt lat="43.62079" lon="6.28886">
        <ele>853.3</ele>
        <time>2024-10-30T10:54:54.000Z</time>
      </trkpt>
      <trkpt lat="43.62067" lon="6.28884">
        <ele>854.9</ele>
        <time>2024-10-30T10:55:10.000Z</time>
      </trkpt>
      <trkpt lat="43.62059" lon="6.28881">
        <ele>856</ele>
        <time>2024-10-30T10:55:25.000Z</time>
      </trkpt>
      <trkpt lat="43.62051" lon="6.28876">
        <ele>856.6</ele>
        <time>2024-10-30T10:55:35.000Z</time>
      </trkpt>
      <trkpt lat="43.62042" lon="6.28875">
        <ele>857.1</ele>
        <time>2024-10-30T10:55:44.000Z</time>
      </trkpt>
      <trkpt lat="43.62034" lon="6.28873">
        <ele>857.6</ele>
        <time>2024-10-30T10:55:53.000Z</time>
      </trkpt>
      <trkpt lat="43.62025" lon="6.28876">
        <ele>858</ele>
        <time>2024-10-30T10:56:03.000Z</time>
      </trkpt>
      <trkpt lat="43.62024" lon="6.28877">
        <ele>858</ele>
        <time>2024-10-30T10:56:04.000Z</time>
      </trkpt>
      <trkpt lat="43.62009" lon="6.28875">
        <ele>857.6</ele>
        <time>2024-10-30T10:56:29.000Z</time>
      </trkpt>
      <trkpt lat="43.62001" lon="6.28875">
        <ele>857.3</ele>
        <time>2024-10-30T10:56:35.000Z</time>
      </trkpt>
      <trkpt lat="43.61994" lon="6.2888">
        <ele>856.6</ele>
        <time>2024-10-30T10:56:47.000Z</time>
      </trkpt>
      <trkpt lat="43.61985" lon="6.28883">
        <ele>855.1</ele>
        <time>2024-10-30T10:56:59.000Z</time>
      </trkpt>
      <trkpt lat="43.61978" lon="6.2889">
        <ele>853.5</ele>
        <time>2024-10-30T10:57:10.000Z</time>
      </trkpt>
      <trkpt lat="43.61978" lon="6.2889">
        <ele>853.4</ele>
        <time>2024-10-30T10:57:11.000Z</time>
      </trkpt>
      <trkpt lat="43.61962" lon="6.28899">
        <ele>850.6</ele>
        <time>2024-10-30T10:57:32.000Z</time>
      </trkpt>
      <trkpt lat="43.61957" lon="6.28907">
        <ele>849.3</ele>
        <time>2024-10-30T10:57:44.000Z</time>
      </trkpt>
      <trkpt lat="43.61951" lon="6.28914">
        <ele>848.3</ele>
        <time>2024-10-30T10:57:52.000Z</time>
      </trkpt>
      <trkpt lat="43.61943" lon="6.28917">
        <ele>847.4</ele>
        <time>2024-10-30T10:58:04.000Z</time>
      </trkpt>
      <trkpt lat="43.61935" lon="6.28922">
        <ele>846.3</ele>
        <time>2024-10-30T10:58:16.000Z</time>
      </trkpt>
      <trkpt lat="43.61934" lon="6.28922">
        <ele>846.2</ele>
        <time>2024-10-30T10:58:17.000Z</time>
      </trkpt>
      <trkpt lat="43.61921" lon="6.28935">
        <ele>842.3</ele>
        <time>2024-10-30T10:58:46.000Z</time>
      </trkpt>
      <trkpt lat="43.61915" lon="6.28942">
        <ele>840.2</ele>
        <time>2024-10-30T10:59:01.000Z</time>
      </trkpt>
      <trkpt lat="43.61909" lon="6.28951">
        <ele>838</ele>
        <time>2024-10-30T10:59:14.000Z</time>
      </trkpt>
      <trkpt lat="43.61903" lon="6.2896">
        <ele>836</ele>
        <time>2024-10-30T10:59:30.000Z</time>
      </trkpt>
      <trkpt lat="43.61903" lon="6.2896">
        <ele>835.8</ele>
        <time>2024-10-30T10:59:31.000Z</time>
      </trkpt>
      <trkpt lat="43.61892" lon="6.28978">
        <ele>831.7</ele>
        <time>2024-10-30T10:59:59.000Z</time>
      </trkpt>
      <trkpt lat="43.61886" lon="6.28987">
        <ele>829.2</ele>
        <time>2024-10-30T11:00:17.000Z</time>
      </trkpt>
      <trkpt lat="43.61881" lon="6.28995">
        <ele>828.4</ele>
        <time>2024-10-30T11:00:28.000Z</time>
      </trkpt>
      <trkpt lat="43.61873" lon="6.29">
        <ele>826.9</ele>
        <time>2024-10-30T11:00:44.000Z</time>
      </trkpt>
      <trkpt lat="43.61872" lon="6.29">
        <ele>826.8</ele>
        <time>2024-10-30T11:00:45.000Z</time>
      </trkpt>
      <trkpt lat="43.61856" lon="6.29004">
        <ele>823.9</ele>
        <time>2024-10-30T11:01:15.000Z</time>
      </trkpt>
      <trkpt lat="43.61848" lon="6.29008">
        <ele>822.3</ele>
        <time>2024-10-30T11:01:35.000Z</time>
      </trkpt>
      <trkpt lat="43.61841" lon="6.29014">
        <ele>821.2</ele>
        <time>2024-10-30T11:01:48.000Z</time>
      </trkpt>
      <trkpt lat="43.6184" lon="6.29014">
        <ele>821.2</ele>
        <time>2024-10-30T11:01:49.000Z</time>
      </trkpt>
      <trkpt lat="43.61824" lon="6.29016">
        <ele>819.6</ele>
        <time>2024-10-30T11:02:17.000Z</time>
      </trkpt>
      <trkpt lat="43.61816" lon="6.29016">
        <ele>818.9</ele>
        <time>2024-10-30T11:02:32.000Z</time>
      </trkpt>
      <trkpt lat="43.61808" lon="6.29019">
        <ele>818.4</ele>
        <time>2024-10-30T11:02:42.000Z</time>
      </trkpt>
      <trkpt lat="43.61799" lon="6.2902">
        <ele>817.5</ele>
        <time>2024-10-30T11:02:52.000Z</time>
      </trkpt>
      <trkpt lat="43.61798" lon="6.2902">
        <ele>817.5</ele>
        <time>2024-10-30T11:02:53.000Z</time>
      </trkpt>
      <trkpt lat="43.61783" lon="6.29021">
        <ele>814.6</ele>
        <time>2024-10-30T11:03:18.000Z</time>
      </trkpt>
      <trkpt lat="43.61783" lon="6.29022">
        <ele>813.7</ele>
        <time>2024-10-30T11:03:25.000Z</time>
      </trkpt>
      <trkpt lat="43.61809" lon="6.2899">
        <ele>813</ele>
        <time>2024-10-30T11:03:30.000Z</time>
      </trkpt>
      <trkpt lat="43.61805" lon="6.29">
        <ele>812.7</ele>
        <time>2024-10-30T11:03:37.000Z</time>
      </trkpt>
      <trkpt lat="43.61802" lon="6.2901">
        <ele>812</ele>
        <time>2024-10-30T11:03:43.000Z</time>
      </trkpt>
      <trkpt lat="43.61799" lon="6.29019">
        <ele>811.6</ele>
        <time>2024-10-30T11:03:47.000Z</time>
      </trkpt>
      <trkpt lat="43.61794" lon="6.2903">
        <ele>811.1</ele>
        <time>2024-10-30T11:03:52.000Z</time>
      </trkpt>
      <trkpt lat="43.6179" lon="6.29041">
        <ele>810.7</ele>
        <time>2024-10-30T11:03:57.000Z</time>
      </trkpt>
      <trkpt lat="43.6179" lon="6.29043">
        <ele>810.6</ele>
        <time>2024-10-30T11:03:58.000Z</time>
      </trkpt>
      <trkpt lat="43.61786" lon="6.29063">
        <ele>808.6</ele>
        <time>2024-10-30T11:04:16.000Z</time>
      </trkpt>
      <trkpt lat="43.61786" lon="6.29074">
        <ele>807.1</ele>
        <time>2024-10-30T11:04:31.000Z</time>
      </trkpt>
      <trkpt lat="43.61786" lon="6.29086">
        <ele>805.7</ele>
        <time>2024-10-30T11:04:42.000Z</time>
      </trkpt>
      <trkpt lat="43.61781" lon="6.29095">
        <ele>804.7</ele>
        <time>2024-10-30T11:04:57.000Z</time>
      </trkpt>
      <trkpt lat="43.61773" lon="6.29098">
        <ele>803.5</ele>
        <time>2024-10-30T11:05:16.000Z</time>
      </trkpt>
      <trkpt lat="43.61772" lon="6.29098">
        <ele>803.4</ele>
        <time>2024-10-30T11:05:17.000Z</time>
      </trkpt>
      <trkpt lat="43.61756" lon="6.29099">
        <ele>797.8</ele>
        <time>2024-10-30T11:06:00.000Z</time>
      </trkpt>
      <trkpt lat="43.61748" lon="6.29097">
        <ele>796.5</ele>
        <time>2024-10-30T11:06:12.000Z</time>
      </trkpt>
      <trkpt lat="43.61739" lon="6.29095">
        <ele>794.8</ele>
        <time>2024-10-30T11:06:24.000Z</time>
      </trkpt>
      <trkpt lat="43.61739" lon="6.29095">
        <ele>794.6</ele>
        <time>2024-10-30T11:06:25.000Z</time>
      </trkpt>
      <trkpt lat="43.61723" lon="6.29088">
        <ele>791.1</ele>
        <time>2024-10-30T11:06:51.000Z</time>
      </trkpt>
      <trkpt lat="43.61715" lon="6.29084">
        <ele>790</ele>
        <time>2024-10-30T11:07:02.000Z</time>
      </trkpt>
      <trkpt lat="43.61706" lon="6.29081">
        <ele>788.6</ele>
        <time>2024-10-30T11:07:13.000Z</time>
      </trkpt>
      <trkpt lat="43.61698" lon="6.29078">
        <ele>787.4</ele>
        <time>2024-10-30T11:07:22.000Z</time>
      </trkpt>
      <trkpt lat="43.6169" lon="6.29077">
        <ele>786.4</ele>
        <time>2024-10-30T11:07:31.000Z</time>
      </trkpt>
      <trkpt lat="43.61688" lon="6.29078">
        <ele>786.4</ele>
        <time>2024-10-30T11:07:32.000Z</time>
      </trkpt>
      <trkpt lat="43.61674" lon="6.29073">
        <ele>784.4</ele>
        <time>2024-10-30T11:07:49.000Z</time>
      </trkpt>
      <trkpt lat="43.61666" lon="6.29073">
        <ele>783.4</ele>
        <time>2024-10-30T11:07:58.000Z</time>
      </trkpt>
      <trkpt lat="43.61658" lon="6.29069">
        <ele>782.5</ele>
        <time>2024-10-30T11:08:10.000Z</time>
      </trkpt>
      <trkpt lat="43.6165" lon="6.29068">
        <ele>781.9</ele>
        <time>2024-10-30T11:08:17.000Z</time>
      </trkpt>
      <trkpt lat="43.61642" lon="6.29067">
        <ele>780.6</ele>
        <time>2024-10-30T11:08:25.000Z</time>
      </trkpt>
      <trkpt lat="43.61633" lon="6.29066">
        <ele>778.8</ele>
        <time>2024-10-30T11:08:36.000Z</time>
      </trkpt>
      <trkpt lat="43.61633" lon="6.29066">
        <ele>778.6</ele>
        <time>2024-10-30T11:08:37.000Z</time>
      </trkpt>
      <trkpt lat="43.61617" lon="6.29068">
        <ele>777</ele>
        <time>2024-10-30T11:08:51.000Z</time>
      </trkpt>
      <trkpt lat="43.61609" lon="6.29067">
        <ele>775.5</ele>
        <time>2024-10-30T11:09:07.000Z</time>
      </trkpt>
      <trkpt lat="43.616" lon="6.29069">
        <ele>773.9</ele>
        <time>2024-10-30T11:09:23.000Z</time>
      </trkpt>
      <trkpt lat="43.61591" lon="6.29071">
        <ele>771.6</ele>
        <time>2024-10-30T11:09:47.000Z</time>
      </trkpt>
      <trkpt lat="43.61591" lon="6.29071">
        <ele>771.5</ele>
        <time>2024-10-30T11:09:48.000Z</time>
      </trkpt>
      <trkpt lat="43.61587" lon="6.2905">
        <ele>766.7</ele>
        <time>2024-10-30T11:10:28.000Z</time>
      </trkpt>
      <trkpt lat="43.61579" lon="6.29047">
        <ele>763.7</ele>
        <time>2024-10-30T11:10:56.000Z</time>
      </trkpt>
      <trkpt lat="43.61579" lon="6.29046">
        <ele>763.6</ele>
        <time>2024-10-30T11:10:57.000Z</time>
      </trkpt>
      <trkpt lat="43.61564" lon="6.29036">
        <ele>759.3</ele>
        <time>2024-10-30T11:11:37.000Z</time>
      </trkpt>
      <trkpt lat="43.61556" lon="6.29035">
        <ele>757.9</ele>
        <time>2024-10-30T11:11:49.000Z</time>
      </trkpt>
      <trkpt lat="43.61548" lon="6.29034">
        <ele>755.9</ele>
        <time>2024-10-30T11:12:03.000Z</time>
      </trkpt>
      <trkpt lat="43.61547" lon="6.29034">
        <ele>755.8</ele>
        <time>2024-10-30T11:12:04.000Z</time>
      </trkpt>
      <trkpt lat="43.6153" lon="6.29038">
        <ele>752.1</ele>
        <time>2024-10-30T11:12:36.000Z</time>
      </trkpt>
      <trkpt lat="43.61522" lon="6.29036">
        <ele>750.2</ele>
        <time>2024-10-30T11:12:52.000Z</time>
      </trkpt>
      <trkpt lat="43.61513" lon="6.29034">
        <ele>749.1</ele>
        <time>2024-10-30T11:13:05.000Z</time>
      </trkpt>
      <trkpt lat="43.61513" lon="6.29034">
        <ele>749.1</ele>
        <time>2024-10-30T11:13:06.000Z</time>
      </trkpt>
      <trkpt lat="43.61497" lon="6.29035">
        <ele>746.2</ele>
        <time>2024-10-30T11:13:45.000Z</time>
      </trkpt>
      <trkpt lat="43.61496" lon="6.29047">
        <ele>745.4</ele>
        <time>2024-10-30T11:13:58.000Z</time>
      </trkpt>
      <trkpt lat="43.61488" lon="6.29053">
        <ele>742.9</ele>
        <time>2024-10-30T11:14:19.000Z</time>
      </trkpt>
      <trkpt lat="43.61488" lon="6.29053">
        <ele>742.8</ele>
        <time>2024-10-30T11:14:20.000Z</time>
      </trkpt>
      <trkpt lat="43.61472" lon="6.29056">
        <ele>740.5</ele>
        <time>2024-10-30T11:14:42.000Z</time>
      </trkpt>
      <trkpt lat="43.61464" lon="6.29057">
        <ele>737.9</ele>
        <time>2024-10-30T11:15:49.000Z</time>
      </trkpt>
      <trkpt lat="43.61463" lon="6.29057">
        <ele>737.9</ele>
        <time>2024-10-30T11:15:50.000Z</time>
      </trkpt>
      <trkpt lat="43.61448" lon="6.29064">
        <ele>735.7</ele>
        <time>2024-10-30T11:16:47.000Z</time>
      </trkpt>
      <trkpt lat="43.61439" lon="6.29067">
        <ele>733.5</ele>
        <time>2024-10-30T11:17:11.000Z</time>
      </trkpt>
      <trkpt lat="43.61439" lon="6.29067">
        <ele>733.5</ele>
        <time>2024-10-30T11:17:12.000Z</time>
      </trkpt>
      <trkpt lat="43.61423" lon="6.29071">
        <ele>730.4</ele>
        <time>2024-10-30T11:17:41.000Z</time>
      </trkpt>
      <trkpt lat="43.61416" lon="6.29078">
        <ele>728.2</ele>
        <time>2024-10-30T11:18:01.000Z</time>
      </trkpt>
      <trkpt lat="43.61408" lon="6.29076">
        <ele>726.9</ele>
        <time>2024-10-30T11:18:13.000Z</time>
      </trkpt>
      <trkpt lat="43.61407" lon="6.29076">
        <ele>726.8</ele>
        <time>2024-10-30T11:18:14.000Z</time>
      </trkpt>
      <trkpt lat="43.61395" lon="6.2909">
        <ele>725</ele>
        <time>2024-10-30T11:18:31.000Z</time>
      </trkpt>
      <trkpt lat="43.61389" lon="6.29097">
        <ele>724</ele>
        <time>2024-10-30T11:18:39.000Z</time>
      </trkpt>
      <trkpt lat="43.61381" lon="6.29102">
        <ele>721</ele>
        <time>2024-10-30T11:18:58.000Z</time>
      </trkpt>
      <trkpt lat="43.61378" lon="6.29112">
        <ele>719.7</ele>
        <time>2024-10-30T11:19:11.000Z</time>
      </trkpt>
      <trkpt lat="43.61372" lon="6.29121">
        <ele>718.2</ele>
        <time>2024-10-30T11:19:21.000Z</time>
      </trkpt>
      <trkpt lat="43.6137" lon="6.29122">
        <ele>718.1</ele>
        <time>2024-10-30T11:19:22.000Z</time>
      </trkpt>
      <trkpt lat="43.6136" lon="6.2914">
        <ele>715.5</ele>
        <time>2024-10-30T11:19:44.000Z</time>
      </trkpt>
      <trkpt lat="43.61355" lon="6.29149">
        <ele>714.2</ele>
        <time>2024-10-30T11:19:55.000Z</time>
      </trkpt>
      <trkpt lat="43.61346" lon="6.2915">
        <ele>712.8</ele>
        <time>2024-10-30T11:20:07.000Z</time>
      </trkpt>
      <trkpt lat="43.61338" lon="6.29154">
        <ele>712.1</ele>
        <time>2024-10-30T11:20:15.000Z</time>
      </trkpt>
      <trkpt lat="43.6133" lon="6.29153">
        <ele>710.3</ele>
        <time>2024-10-30T11:20:30.000Z</time>
      </trkpt>
      <trkpt lat="43.61329" lon="6.29154">
        <ele>710.2</ele>
        <time>2024-10-30T11:20:31.000Z</time>
      </trkpt>
      <trkpt lat="43.61315" lon="6.29165">
        <ele>708</ele>
        <time>2024-10-30T11:20:57.000Z</time>
      </trkpt>
      <trkpt lat="43.61308" lon="6.29168">
        <ele>707.3</ele>
        <time>2024-10-30T11:21:02.000Z</time>
      </trkpt>
      <trkpt lat="43.61301" lon="6.29172">
        <ele>705.5</ele>
        <time>2024-10-30T11:21:21.000Z</time>
      </trkpt>
      <trkpt lat="43.61292" lon="6.29177">
        <ele>703.2</ele>
        <time>2024-10-30T11:21:36.000Z</time>
      </trkpt>
      <trkpt lat="43.61292" lon="6.29177">
        <ele>703</ele>
        <time>2024-10-30T11:21:37.000Z</time>
      </trkpt>
      <trkpt lat="43.61277" lon="6.29189">
        <ele>701.1</ele>
        <time>2024-10-30T11:22:30.000Z</time>
      </trkpt>
      <trkpt lat="43.6127" lon="6.29191">
        <ele>700.9</ele>
        <time>2024-10-30T11:22:45.000Z</time>
      </trkpt>
      <trkpt lat="43.61268" lon="6.29193">
        <ele>700.9</ele>
        <time>2024-10-30T11:22:46.000Z</time>
      </trkpt>
      <trkpt lat="43.61254" lon="6.29199">
        <ele>701</ele>
        <time>2024-10-30T11:23:02.000Z</time>
      </trkpt>
      <trkpt lat="43.61246" lon="6.29202">
        <ele>700.9</ele>
        <time>2024-10-30T11:23:13.000Z</time>
      </trkpt>
      <trkpt lat="43.61238" lon="6.29207">
        <ele>701</ele>
        <time>2024-10-30T11:24:09.000Z</time>
      </trkpt>
      <trkpt lat="43.61237" lon="6.29208">
        <ele>701</ele>
        <time>2024-10-30T11:24:10.000Z</time>
      </trkpt>
      <trkpt lat="43.61221" lon="6.2921">
        <ele>700.3</ele>
        <time>2024-10-30T11:24:34.000Z</time>
      </trkpt>
      <trkpt lat="43.61213" lon="6.2921">
        <ele>699.4</ele>
        <time>2024-10-30T11:24:44.000Z</time>
      </trkpt>
      <trkpt lat="43.61205" lon="6.2921">
        <ele>699.4</ele>
        <time>2024-10-30T11:24:55.000Z</time>
      </trkpt>
      <trkpt lat="43.61196" lon="6.29209">
        <ele>699.2</ele>
        <time>2024-10-30T11:25:03.000Z</time>
      </trkpt>
      <trkpt lat="43.61189" lon="6.29216">
        <ele>698.5</ele>
        <time>2024-10-30T11:25:12.000Z</time>
      </trkpt>
      <trkpt lat="43.61189" lon="6.29216">
        <ele>698.5</ele>
        <time>2024-10-30T11:25:13.000Z</time>
      </trkpt>
      <trkpt lat="43.61173" lon="6.29225">
        <ele>697.6</ele>
        <time>2024-10-30T11:25:31.000Z</time>
      </trkpt>
      <trkpt lat="43.61165" lon="6.29228">
        <ele>697</ele>
        <time>2024-10-30T11:25:40.000Z</time>
      </trkpt>
      <trkpt lat="43.61157" lon="6.29232">
        <ele>696.9</ele>
        <time>2024-10-30T11:25:47.000Z</time>
      </trkpt>
      <trkpt lat="43.6115" lon="6.29238">
        <ele>696.4</ele>
        <time>2024-10-30T11:25:57.000Z</time>
      </trkpt>
      <trkpt lat="43.61145" lon="6.29247">
        <ele>696.2</ele>
        <time>2024-10-30T11:26:04.000Z</time>
      </trkpt>
      <trkpt lat="43.61144" lon="6.29259">
        <ele>696.5</ele>
        <time>2024-10-30T11:26:13.000Z</time>
      </trkpt>
      <trkpt lat="43.61144" lon="6.29271">
        <ele>696.5</ele>
        <time>2024-10-30T11:26:20.000Z</time>
      </trkpt>
      <trkpt lat="43.61144" lon="6.29273">
        <ele>696.5</ele>
        <time>2024-10-30T11:26:21.000Z</time>
      </trkpt>
      <trkpt lat="43.61143" lon="6.29295">
        <ele>697.2</ele>
        <time>2024-10-30T11:26:40.000Z</time>
      </trkpt>
      <trkpt lat="43.61145" lon="6.29306">
        <ele>697.1</ele>
        <time>2024-10-30T11:26:49.000Z</time>
      </trkpt>
      <trkpt lat="43.61151" lon="6.29315">
        <ele>696.5</ele>
        <time>2024-10-30T11:27:01.000Z</time>
      </trkpt>
      <trkpt lat="43.61159" lon="6.29322">
        <ele>696.2</ele>
        <time>2024-10-30T11:27:10.000Z</time>
      </trkpt>
      <trkpt lat="43.61164" lon="6.29332">
        <ele>696.3</ele>
        <time>2024-10-30T11:27:19.000Z</time>
      </trkpt>
      <trkpt lat="43.61162" lon="6.29343">
        <ele>696.5</ele>
        <time>2024-10-30T11:27:30.000Z</time>
      </trkpt>
      <trkpt lat="43.61161" lon="6.29345">
        <ele>696.5</ele>
        <time>2024-10-30T11:27:31.000Z</time>
      </trkpt>
      <trkpt lat="43.61152" lon="6.29363">
        <ele>696.2</ele>
        <time>2024-10-30T11:27:49.000Z</time>
      </trkpt>
      <trkpt lat="43.61151" lon="6.29364">
        <ele>696.2</ele>
        <time>2024-10-30T11:27:50.000Z</time>
      </trkpt>
      <trkpt lat="43.61156" lon="6.29374">
        <ele>695.3</ele>
        <time>2024-10-30T11:28:06.000Z</time>
      </trkpt>
      <trkpt lat="43.61155" lon="6.29386">
        <ele>695.1</ele>
        <time>2024-10-30T11:28:12.000Z</time>
      </trkpt>
      <trkpt lat="43.61155" lon="6.29397">
        <ele>695.1</ele>
        <time>2024-10-30T11:28:19.000Z</time>
      </trkpt>
      <trkpt lat="43.61153" lon="6.29409">
        <ele>694.9</ele>
        <time>2024-10-30T11:28:27.000Z</time>
      </trkpt>
      <trkpt lat="43.61148" lon="6.29419">
        <ele>694.8</ele>
        <time>2024-10-30T11:28:35.000Z</time>
      </trkpt>
      <trkpt lat="43.61147" lon="6.2942">
        <ele>694.9</ele>
        <time>2024-10-30T11:28:36.000Z</time>
      </trkpt>
      <trkpt lat="43.61133" lon="6.29432">
        <ele>695.5</ele>
        <time>2024-10-30T11:28:54.000Z</time>
      </trkpt>
      <trkpt lat="43.61127" lon="6.29438">
        <ele>695.5</ele>
        <time>2024-10-30T11:29:03.000Z</time>
      </trkpt>
      <trkpt lat="43.61119" lon="6.29444">
        <ele>695.5</ele>
        <time>2024-10-30T11:29:13.000Z</time>
      </trkpt>
      <trkpt lat="43.61112" lon="6.29451">
        <ele>695.6</ele>
        <time>2024-10-30T11:29:21.000Z</time>
      </trkpt>
      <trkpt lat="43.61105" lon="6.29458">
        <ele>695.6</ele>
        <time>2024-10-30T11:29:27.000Z</time>
      </trkpt>
      <trkpt lat="43.61097" lon="6.29464">
        <ele>695.2</ele>
        <time>2024-10-30T11:29:34.000Z</time>
      </trkpt>
      <trkpt lat="43.61091" lon="6.29473">
        <ele>695.1</ele>
        <time>2024-10-30T11:29:42.000Z</time>
      </trkpt>
      <trkpt lat="43.6109" lon="6.29474">
        <ele>695.1</ele>
        <time>2024-10-30T11:29:43.000Z</time>
      </trkpt>
      <trkpt lat="43.61081" lon="6.29492">
        <ele>694.6</ele>
        <time>2024-10-30T11:29:59.000Z</time>
      </trkpt>
      <trkpt lat="43.61076" lon="6.295">
        <ele>694.1</ele>
        <time>2024-10-30T11:30:05.000Z</time>
      </trkpt>
      <trkpt lat="43.61072" lon="6.29511">
        <ele>693.9</ele>
        <time>2024-10-30T11:30:14.000Z</time>
      </trkpt>
      <trkpt lat="43.61068" lon="6.2952">
        <ele>693.9</ele>
        <time>2024-10-30T11:30:22.000Z</time>
      </trkpt>
      <trkpt lat="43.61065" lon="6.29532">
        <ele>694.1</ele>
        <time>2024-10-30T11:30:30.000Z</time>
      </trkpt>
      <trkpt lat="43.61062" lon="6.29543">
        <ele>694.1</ele>
        <time>2024-10-30T11:30:38.000Z</time>
      </trkpt>
      <trkpt lat="43.61058" lon="6.29554">
        <ele>693.8</ele>
        <time>2024-10-30T11:30:47.000Z</time>
      </trkpt>
      <trkpt lat="43.61057" lon="6.29555">
        <ele>693.8</ele>
        <time>2024-10-30T11:30:48.000Z</time>
      </trkpt>
      <trkpt lat="43.61049" lon="6.29571">
        <ele>693.7</ele>
        <time>2024-10-30T11:30:59.000Z</time>
      </trkpt>
      <trkpt lat="43.61045" lon="6.29581">
        <ele>693.8</ele>
        <time>2024-10-30T11:31:07.000Z</time>
      </trkpt>
      <trkpt lat="43.61039" lon="6.29589">
        <ele>694.1</ele>
        <time>2024-10-30T11:31:14.000Z</time>
      </trkpt>
      <trkpt lat="43.61033" lon="6.29597">
        <ele>694</ele>
        <time>2024-10-30T11:31:22.000Z</time>
      </trkpt>
      <trkpt lat="43.61026" lon="6.29605">
        <ele>693.5</ele>
        <time>2024-10-30T11:31:29.000Z</time>
      </trkpt>
      <trkpt lat="43.6102" lon="6.29613">
        <ele>693</ele>
        <time>2024-10-30T11:31:38.000Z</time>
      </trkpt>
      <trkpt lat="43.61016" lon="6.29622">
        <ele>692.3</ele>
        <time>2024-10-30T11:31:45.000Z</time>
      </trkpt>
      <trkpt lat="43.6101" lon="6.29629">
        <ele>691.6</ele>
        <time>2024-10-30T11:31:53.000Z</time>
      </trkpt>
      <trkpt lat="43.61009" lon="6.29631">
        <ele>691.5</ele>
        <time>2024-10-30T11:31:54.000Z</time>
      </trkpt>
      <trkpt lat="43.61001" lon="6.2965">
        <ele>691</ele>
        <time>2024-10-30T11:32:09.000Z</time>
      </trkpt>
      <trkpt lat="43.60997" lon="6.2966">
        <ele>690.3</ele>
        <time>2024-10-30T11:32:18.000Z</time>
      </trkpt>
      <trkpt lat="43.60995" lon="6.2967">
        <ele>689.9</ele>
        <time>2024-10-30T11:32:26.000Z</time>
      </trkpt>
      <trkpt lat="43.60992" lon="6.29681">
        <ele>688.8</ele>
        <time>2024-10-30T11:32:35.000Z</time>
      </trkpt>
      <trkpt lat="43.60985" lon="6.29688">
        <ele>688</ele>
        <time>2024-10-30T11:32:44.000Z</time>
      </trkpt>
      <trkpt lat="43.60979" lon="6.29697">
        <ele>687.3</ele>
        <time>2024-10-30T11:32:52.000Z</time>
      </trkpt>
      <trkpt lat="43.60976" lon="6.29709">
        <ele>686.2</ele>
        <time>2024-10-30T11:33:02.000Z</time>
      </trkpt>
      <trkpt lat="43.60977" lon="6.29709">
        <ele>686.2</ele>
        <time>2024-10-30T11:33:03.000Z</time>
      </trkpt>
      <trkpt lat="43.60979" lon="6.2973">
        <ele>685.2</ele>
        <time>2024-10-30T11:33:24.000Z</time>
      </trkpt>
      <trkpt lat="43.60985" lon="6.29738">
        <ele>684.7</ele>
        <time>2024-10-30T11:33:45.000Z</time>
      </trkpt>
      <trkpt lat="43.60994" lon="6.29739">
        <ele>684.7</ele>
        <time>2024-10-30T11:34:00.000Z</time>
      </trkpt>
      <trkpt lat="43.61003" lon="6.2974">
        <ele>684</ele>
        <time>2024-10-30T11:34:17.000Z</time>
      </trkpt>
      <trkpt lat="43.61004" lon="6.2974">
        <ele>683.9</ele>
        <time>2024-10-30T11:34:18.000Z</time>
      </trkpt>
      <trkpt lat="43.61019" lon="6.29746">
        <ele>682.8</ele>
        <time>2024-10-30T11:34:46.000Z</time>
      </trkpt>
      <trkpt lat="43.61027" lon="6.29749">
        <ele>682</ele>
        <time>2024-10-30T11:34:55.000Z</time>
      </trkpt>
      <trkpt lat="43.61035" lon="6.29751">
        <ele>680.9</ele>
        <time>2024-10-30T11:35:09.000Z</time>
      </trkpt>
      <trkpt lat="43.61041" lon="6.29758">
        <ele>679.9</ele>
        <time>2024-10-30T11:35:22.000Z</time>
      </trkpt>
      <trkpt lat="43.61042" lon="6.29759">
        <ele>679.9</ele>
        <time>2024-10-30T11:35:23.000Z</time>
      </trkpt>
      <trkpt lat="43.61039" lon="6.29782">
        <ele>680</ele>
        <time>2024-10-30T11:35:42.000Z</time>
      </trkpt>
      <trkpt lat="43.61034" lon="6.29792">
        <ele>680.7</ele>
        <time>2024-10-30T11:35:51.000Z</time>
      </trkpt>
      <trkpt lat="43.61028" lon="6.29801">
        <ele>681.4</ele>
        <time>2024-10-30T11:36:02.000Z</time>
      </trkpt>
      <trkpt lat="43.61023" lon="6.29811">
        <ele>682.6</ele>
        <time>2024-10-30T11:36:15.000Z</time>
      </trkpt>
      <trkpt lat="43.6102" lon="6.29822">
        <ele>683.3</ele>
        <time>2024-10-30T11:36:27.000Z</time>
      </trkpt>
      <trkpt lat="43.6102" lon="6.29822">
        <ele>683.3</ele>
        <time>2024-10-30T11:36:28.000Z</time>
      </trkpt>
      <trkpt lat="43.61023" lon="6.29843">
        <ele>686.6</ele>
        <time>2024-10-30T11:36:58.000Z</time>
      </trkpt>
      <trkpt lat="43.61029" lon="6.29851">
        <ele>687.7</ele>
        <time>2024-10-30T11:38:32.000Z</time>
      </trkpt>
      <trkpt lat="43.61029" lon="6.29852">
        <ele>687.7</ele>
        <time>2024-10-30T11:38:33.000Z</time>
      </trkpt>
      <trkpt lat="43.61027" lon="6.29863">
        <ele>690.5</ele>
        <time>2024-10-30T11:58:48.000Z</time>
      </trkpt>
      <trkpt lat="43.61027" lon="6.29863">
        <ele>690.5</ele>
        <time>2024-10-30T11:58:49.000Z</time>
      </trkpt>
      <trkpt lat="43.61031" lon="6.29852">
        <ele>689.5</ele>
        <time>2024-10-30T12:00:20.000Z</time>
      </trkpt>
      <trkpt lat="43.61023" lon="6.29858">
        <ele>689.6</ele>
        <time>2024-10-30T12:07:55.000Z</time>
      </trkpt>
      <trkpt lat="43.61022" lon="6.29858">
        <ele>689.6</ele>
        <time>2024-10-30T12:07:56.000Z</time>
      </trkpt>
      <trkpt lat="43.6103" lon="6.2985">
        <ele>690.5</ele>
        <time>2024-10-30T12:11:28.000Z</time>
      </trkpt>
      <trkpt lat="43.6103" lon="6.2985">
        <ele>690.5</ele>
        <time>2024-10-30T12:11:29.000Z</time>
      </trkpt>
      <trkpt lat="43.61034" lon="6.29861">
        <ele>688.8</ele>
        <time>2024-10-30T12:13:37.000Z</time>
      </trkpt>
      <trkpt lat="43.61034" lon="6.29862">
        <ele>688.8</ele>
        <time>2024-10-30T12:13:38.000Z</time>
      </trkpt>
      <trkpt lat="43.61034" lon="6.29873">
        <ele>688</ele>
        <time>2024-10-30T12:16:33.000Z</time>
      </trkpt>
      <trkpt lat="43.61034" lon="6.29874">
        <ele>688</ele>
        <time>2024-10-30T12:16:34.000Z</time>
      </trkpt>
      <trkpt lat="43.61028" lon="6.29895">
        <ele>688.9</ele>
        <time>2024-10-30T12:16:57.000Z</time>
      </trkpt>
      <trkpt lat="43.61023" lon="6.29904">
        <ele>689.5</ele>
        <time>2024-10-30T12:17:08.000Z</time>
      </trkpt>
      <trkpt lat="43.61019" lon="6.29915">
        <ele>690.4</ele>
        <time>2024-10-30T12:17:20.000Z</time>
      </trkpt>
      <trkpt lat="43.61017" lon="6.29927">
        <ele>691.6</ele>
        <time>2024-10-30T12:17:33.000Z</time>
      </trkpt>
      <trkpt lat="43.61012" lon="6.29937">
        <ele>692.6</ele>
        <time>2024-10-30T12:17:44.000Z</time>
      </trkpt>
      <trkpt lat="43.61012" lon="6.29939">
        <ele>692.7</ele>
        <time>2024-10-30T12:17:45.000Z</time>
      </trkpt>
      <trkpt lat="43.61002" lon="6.29956">
        <ele>693.2</ele>
        <time>2024-10-30T12:18:02.000Z</time>
      </trkpt>
      <trkpt lat="43.60999" lon="6.29967">
        <ele>693</ele>
        <time>2024-10-30T12:18:11.000Z</time>
      </trkpt>
      <trkpt lat="43.61001" lon="6.29978">
        <ele>692.2</ele>
        <time>2024-10-30T12:18:21.000Z</time>
      </trkpt>
      <trkpt lat="43.61005" lon="6.29989">
        <ele>690.9</ele>
        <time>2024-10-30T12:18:34.000Z</time>
      </trkpt>
      <trkpt lat="43.61011" lon="6.29997">
        <ele>690.5</ele>
        <time>2024-10-30T12:18:44.000Z</time>
      </trkpt>
      <trkpt lat="43.61017" lon="6.30005">
        <ele>690.2</ele>
        <time>2024-10-30T12:18:53.000Z</time>
      </trkpt>
      <trkpt lat="43.61017" lon="6.30006">
        <ele>690.2</ele>
        <time>2024-10-30T12:18:54.000Z</time>
      </trkpt>
      <trkpt lat="43.61025" lon="6.30025">
        <ele>690.1</ele>
        <time>2024-10-30T12:19:10.000Z</time>
      </trkpt>
      <trkpt lat="43.61029" lon="6.30035">
        <ele>690.1</ele>
        <time>2024-10-30T12:19:17.000Z</time>
      </trkpt>
      <trkpt lat="43.61034" lon="6.30044">
        <ele>690.2</ele>
        <time>2024-10-30T12:19:25.000Z</time>
      </trkpt>
      <trkpt lat="43.61037" lon="6.30054">
        <ele>690.3</ele>
        <time>2024-10-30T12:19:36.000Z</time>
      </trkpt>
      <trkpt lat="43.61039" lon="6.30065">
        <ele>690.3</ele>
        <time>2024-10-30T12:19:44.000Z</time>
      </trkpt>
      <trkpt lat="43.6104" lon="6.30077">
        <ele>690.1</ele>
        <time>2024-10-30T12:19:52.000Z</time>
      </trkpt>
      <trkpt lat="43.61037" lon="6.30088">
        <ele>690</ele>
        <time>2024-10-30T12:20:02.000Z</time>
      </trkpt>
      <trkpt lat="43.61036" lon="6.30089">
        <ele>690</ele>
        <time>2024-10-30T12:20:03.000Z</time>
      </trkpt>
      <trkpt lat="43.61039" lon="6.30111">
        <ele>691.2</ele>
        <time>2024-10-30T12:20:22.000Z</time>
      </trkpt>
      <trkpt lat="43.61041" lon="6.30122">
        <ele>691.8</ele>
        <time>2024-10-30T12:20:32.000Z</time>
      </trkpt>
      <trkpt lat="43.61042" lon="6.30134">
        <ele>692.5</ele>
        <time>2024-10-30T12:20:41.000Z</time>
      </trkpt>
      <trkpt lat="43.61046" lon="6.30145">
        <ele>693.2</ele>
        <time>2024-10-30T12:20:50.000Z</time>
      </trkpt>
      <trkpt lat="43.6105" lon="6.30155">
        <ele>694.1</ele>
        <time>2024-10-30T12:21:02.000Z</time>
      </trkpt>
      <trkpt lat="43.61057" lon="6.30163">
        <ele>694.7</ele>
        <time>2024-10-30T12:21:11.000Z</time>
      </trkpt>
      <trkpt lat="43.61057" lon="6.30164">
        <ele>694.7</ele>
        <time>2024-10-30T12:21:12.000Z</time>
      </trkpt>
      <trkpt lat="43.61065" lon="6.30182">
        <ele>695.8</ele>
        <time>2024-10-30T12:21:29.000Z</time>
      </trkpt>
      <trkpt lat="43.61066" lon="6.30195">
        <ele>696.1</ele>
        <time>2024-10-30T12:21:38.000Z</time>
      </trkpt>
      <trkpt lat="43.61065" lon="6.30207">
        <ele>696.4</ele>
        <time>2024-10-30T12:21:47.000Z</time>
      </trkpt>
      <trkpt lat="43.61067" lon="6.30218">
        <ele>696.7</ele>
        <time>2024-10-30T12:21:55.000Z</time>
      </trkpt>
      <trkpt lat="43.61068" lon="6.30229">
        <ele>696.8</ele>
        <time>2024-10-30T12:22:04.000Z</time>
      </trkpt>
      <trkpt lat="43.61073" lon="6.30239">
        <ele>696.7</ele>
        <time>2024-10-30T12:22:14.000Z</time>
      </trkpt>
      <trkpt lat="43.61074" lon="6.3024">
        <ele>696.6</ele>
        <time>2024-10-30T12:22:15.000Z</time>
      </trkpt>
      <trkpt lat="43.61083" lon="6.30256">
        <ele>695.2</ele>
        <time>2024-10-30T12:22:30.000Z</time>
      </trkpt>
      <trkpt lat="43.61088" lon="6.30267">
        <ele>694.3</ele>
        <time>2024-10-30T12:22:38.000Z</time>
      </trkpt>
      <trkpt lat="43.61093" lon="6.30275">
        <ele>693.3</ele>
        <time>2024-10-30T12:22:47.000Z</time>
      </trkpt>
      <trkpt lat="43.61097" lon="6.30285">
        <ele>692.6</ele>
        <time>2024-10-30T12:22:54.000Z</time>
      </trkpt>
      <trkpt lat="43.61097" lon="6.30297">
        <ele>692</ele>
        <time>2024-10-30T12:23:04.000Z</time>
      </trkpt>
      <trkpt lat="43.61093" lon="6.30307">
        <ele>692</ele>
        <time>2024-10-30T12:23:15.000Z</time>
      </trkpt>
      <trkpt lat="43.61093" lon="6.30308">
        <ele>692.1</ele>
        <time>2024-10-30T12:23:16.000Z</time>
      </trkpt>
      <trkpt lat="43.61085" lon="6.30328">
        <ele>693.5</ele>
        <time>2024-10-30T12:23:35.000Z</time>
      </trkpt>
      <trkpt lat="43.61083" lon="6.30339">
        <ele>693.9</ele>
        <time>2024-10-30T12:23:44.000Z</time>
      </trkpt>
      <trkpt lat="43.61086" lon="6.3035">
        <ele>694.5</ele>
        <time>2024-10-30T12:23:55.000Z</time>
      </trkpt>
      <trkpt lat="43.61093" lon="6.30357">
        <ele>695</ele>
        <time>2024-10-30T12:24:08.000Z</time>
      </trkpt>
      <trkpt lat="43.611" lon="6.30363">
        <ele>695.2</ele>
        <time>2024-10-30T12:24:17.000Z</time>
      </trkpt>
      <trkpt lat="43.61101" lon="6.30364">
        <ele>695.2</ele>
        <time>2024-10-30T12:24:18.000Z</time>
      </trkpt>
      <trkpt lat="43.61113" lon="6.30377">
        <ele>695.3</ele>
        <time>2024-10-30T12:24:32.000Z</time>
      </trkpt>
      <trkpt lat="43.61119" lon="6.30383">
        <ele>695.4</ele>
        <time>2024-10-30T12:24:40.000Z</time>
      </trkpt>
      <trkpt lat="43.61126" lon="6.30391">
        <ele>695.1</ele>
        <time>2024-10-30T12:24:48.000Z</time>
      </trkpt>
      <trkpt lat="43.6113" lon="6.30401">
        <ele>694.9</ele>
        <time>2024-10-30T12:24:55.000Z</time>
      </trkpt>
      <trkpt lat="43.61133" lon="6.30412">
        <ele>694.7</ele>
        <time>2024-10-30T12:25:03.000Z</time>
      </trkpt>
      <trkpt lat="43.61134" lon="6.30424">
        <ele>694.7</ele>
        <time>2024-10-30T12:25:13.000Z</time>
      </trkpt>
      <trkpt lat="43.61133" lon="6.30436">
        <ele>694.9</ele>
        <time>2024-10-30T12:25:22.000Z</time>
      </trkpt>
      <trkpt lat="43.61133" lon="6.30437">
        <ele>694.9</ele>
        <time>2024-10-30T12:25:23.000Z</time>
      </trkpt>
      <trkpt lat="43.6113" lon="6.3046">
        <ele>695.5</ele>
        <time>2024-10-30T12:25:43.000Z</time>
      </trkpt>
      <trkpt lat="43.61129" lon="6.30471">
        <ele>695.7</ele>
        <time>2024-10-30T12:25:51.000Z</time>
      </trkpt>
      <trkpt lat="43.61128" lon="6.30483">
        <ele>695.8</ele>
        <time>2024-10-30T12:25:58.000Z</time>
      </trkpt>
      <trkpt lat="43.61127" lon="6.30494">
        <ele>695.8</ele>
        <time>2024-10-30T12:26:05.000Z</time>
      </trkpt>
      <trkpt lat="43.61124" lon="6.30506">
        <ele>695.9</ele>
        <time>2024-10-30T12:26:14.000Z</time>
      </trkpt>
      <trkpt lat="43.61123" lon="6.30517">
        <ele>695.9</ele>
        <time>2024-10-30T12:26:24.000Z</time>
      </trkpt>
      <trkpt lat="43.61123" lon="6.30518">
        <ele>695.9</ele>
        <time>2024-10-30T12:26:25.000Z</time>
      </trkpt>
      <trkpt lat="43.61123" lon="6.30541">
        <ele>696.5</ele>
        <time>2024-10-30T12:26:41.000Z</time>
      </trkpt>
      <trkpt lat="43.61125" lon="6.30552">
        <ele>696.7</ele>
        <time>2024-10-30T12:26:48.000Z</time>
      </trkpt>
      <trkpt lat="43.61127" lon="6.30563">
        <ele>696.8</ele>
        <time>2024-10-30T12:26:55.000Z</time>
      </trkpt>
      <trkpt lat="43.6113" lon="6.30573">
        <ele>696.9</ele>
        <time>2024-10-30T12:27:02.000Z</time>
      </trkpt>
      <trkpt lat="43.61134" lon="6.30583">
        <ele>697</ele>
        <time>2024-10-30T12:27:10.000Z</time>
      </trkpt>
      <trkpt lat="43.61137" lon="6.30595">
        <ele>697</ele>
        <time>2024-10-30T12:27:19.000Z</time>
      </trkpt>
      <trkpt lat="43.6114" lon="6.30606">
        <ele>696.7</ele>
        <time>2024-10-30T12:27:28.000Z</time>
      </trkpt>
      <trkpt lat="43.6114" lon="6.30608">
        <ele>696.6</ele>
        <time>2024-10-30T12:27:29.000Z</time>
      </trkpt>
      <trkpt lat="43.61145" lon="6.30629">
        <ele>695.8</ele>
        <time>2024-10-30T12:27:46.000Z</time>
      </trkpt>
      <trkpt lat="43.61148" lon="6.3064">
        <ele>695.4</ele>
        <time>2024-10-30T12:27:55.000Z</time>
      </trkpt>
      <trkpt lat="43.61151" lon="6.30652">
        <ele>695.2</ele>
        <time>2024-10-30T12:28:02.000Z</time>
      </trkpt>
      <trkpt lat="43.61154" lon="6.30662">
        <ele>695</ele>
        <time>2024-10-30T12:28:11.000Z</time>
      </trkpt>
      <trkpt lat="43.61158" lon="6.30672">
        <ele>694.8</ele>
        <time>2024-10-30T12:28:18.000Z</time>
      </trkpt>
      <trkpt lat="43.61162" lon="6.30682">
        <ele>694.8</ele>
        <time>2024-10-30T12:28:25.000Z</time>
      </trkpt>
      <trkpt lat="43.61166" lon="6.30691">
        <ele>694.7</ele>
        <time>2024-10-30T12:28:32.000Z</time>
      </trkpt>
      <trkpt lat="43.61166" lon="6.30693">
        <ele>694.7</ele>
        <time>2024-10-30T12:28:33.000Z</time>
      </trkpt>
      <trkpt lat="43.6118" lon="6.30705">
        <ele>694.9</ele>
        <time>2024-10-30T12:28:54.000Z</time>
      </trkpt>
      <trkpt lat="43.61188" lon="6.3071">
        <ele>695.4</ele>
        <time>2024-10-30T12:29:05.000Z</time>
      </trkpt>
      <trkpt lat="43.61196" lon="6.30715">
        <ele>696.1</ele>
        <time>2024-10-30T12:29:14.000Z</time>
      </trkpt>
      <trkpt lat="43.61203" lon="6.30721">
        <ele>697.1</ele>
        <time>2024-10-30T12:29:23.000Z</time>
      </trkpt>
      <trkpt lat="43.61212" lon="6.30724">
        <ele>698.2</ele>
        <time>2024-10-30T12:29:34.000Z</time>
      </trkpt>
      <trkpt lat="43.61213" lon="6.30724">
        <ele>698.3</ele>
        <time>2024-10-30T12:29:35.000Z</time>
      </trkpt>
      <trkpt lat="43.61228" lon="6.30728">
        <ele>699.4</ele>
        <time>2024-10-30T12:29:55.000Z</time>
      </trkpt>
      <trkpt lat="43.61237" lon="6.30728">
        <ele>700.5</ele>
        <time>2024-10-30T12:30:08.000Z</time>
      </trkpt>
      <trkpt lat="43.61246" lon="6.30728">
        <ele>701.5</ele>
        <time>2024-10-30T12:30:19.000Z</time>
      </trkpt>
      <trkpt lat="43.61254" lon="6.30731">
        <ele>702.3</ele>
        <time>2024-10-30T12:30:29.000Z</time>
      </trkpt>
      <trkpt lat="43.61262" lon="6.30733">
        <ele>703.1</ele>
        <time>2024-10-30T12:30:39.000Z</time>
      </trkpt>
      <trkpt lat="43.61263" lon="6.30733">
        <ele>703.2</ele>
        <time>2024-10-30T12:30:40.000Z</time>
      </trkpt>
      <trkpt lat="43.61278" lon="6.30742">
        <ele>704.5</ele>
        <time>2024-10-30T12:30:58.000Z</time>
      </trkpt>
      <trkpt lat="43.61286" lon="6.30748">
        <ele>705.3</ele>
        <time>2024-10-30T12:31:08.000Z</time>
      </trkpt>
      <trkpt lat="43.61293" lon="6.30754">
        <ele>705.7</ele>
        <time>2024-10-30T12:31:17.000Z</time>
      </trkpt>
      <trkpt lat="43.61299" lon="6.30761">
        <ele>705.8</ele>
        <time>2024-10-30T12:31:24.000Z</time>
      </trkpt>
      <trkpt lat="43.61305" lon="6.30769">
        <ele>705.9</ele>
        <time>2024-10-30T12:31:31.000Z</time>
      </trkpt>
      <trkpt lat="43.61311" lon="6.30778">
        <ele>705.7</ele>
        <time>2024-10-30T12:31:39.000Z</time>
      </trkpt>
      <trkpt lat="43.61318" lon="6.30785">
        <ele>705.7</ele>
        <time>2024-10-30T12:31:47.000Z</time>
      </trkpt>
      <trkpt lat="43.61319" lon="6.30786">
        <ele>705.8</ele>
        <time>2024-10-30T12:31:48.000Z</time>
      </trkpt>
      <trkpt lat="43.61335" lon="6.30793">
        <ele>705.7</ele>
        <time>2024-10-30T12:32:03.000Z</time>
      </trkpt>
      <trkpt lat="43.61341" lon="6.30799">
        <ele>705.6</ele>
        <time>2024-10-30T12:32:10.000Z</time>
      </trkpt>
      <trkpt lat="43.61345" lon="6.3081">
        <ele>705.5</ele>
        <time>2024-10-30T12:32:16.000Z</time>
      </trkpt>
      <trkpt lat="43.61344" lon="6.30821">
        <ele>705.7</ele>
        <time>2024-10-30T12:32:25.000Z</time>
      </trkpt>
      <trkpt lat="43.61341" lon="6.30833">
        <ele>706.2</ele>
        <time>2024-10-30T12:32:35.000Z</time>
      </trkpt>
      <trkpt lat="43.6134" lon="6.30845">
        <ele>707</ele>
        <time>2024-10-30T12:32:44.000Z</time>
      </trkpt>
      <trkpt lat="43.61342" lon="6.30856">
        <ele>707.6</ele>
        <time>2024-10-30T12:32:53.000Z</time>
      </trkpt>
      <trkpt lat="43.61342" lon="6.30857">
        <ele>707.7</ele>
        <time>2024-10-30T12:32:54.000Z</time>
      </trkpt>
      <trkpt lat="43.61349" lon="6.30877">
        <ele>708.2</ele>
        <time>2024-10-30T12:33:10.000Z</time>
      </trkpt>
      <trkpt lat="43.61356" lon="6.30885">
        <ele>708.6</ele>
        <time>2024-10-30T12:33:20.000Z</time>
      </trkpt>
      <trkpt lat="43.61363" lon="6.30892">
        <ele>709.1</ele>
        <time>2024-10-30T12:33:39.000Z</time>
      </trkpt>
      <trkpt lat="43.61366" lon="6.30903">
        <ele>709.4</ele>
        <time>2024-10-30T12:34:46.000Z</time>
      </trkpt>
      <trkpt lat="43.61366" lon="6.30904">
        <ele>709.4</ele>
        <time>2024-10-30T12:34:47.000Z</time>
      </trkpt>
      <trkpt lat="43.61353" lon="6.30919">
        <ele>708.5</ele>
        <time>2024-10-30T12:35:11.000Z</time>
      </trkpt>
      <trkpt lat="43.61345" lon="6.30922">
        <ele>708.3</ele>
        <time>2024-10-30T12:35:22.000Z</time>
      </trkpt>
      <trkpt lat="43.61336" lon="6.30923">
        <ele>708.4</ele>
        <time>2024-10-30T12:35:32.000Z</time>
      </trkpt>
      <trkpt lat="43.61328" lon="6.30925">
        <ele>708.1</ele>
        <time>2024-10-30T12:35:43.000Z</time>
      </trkpt>
      <trkpt lat="43.6132" lon="6.30923">
        <ele>708</ele>
        <time>2024-10-30T12:35:50.000Z</time>
      </trkpt>
      <trkpt lat="43.61319" lon="6.30922">
        <ele>708</ele>
        <time>2024-10-30T12:35:51.000Z</time>
      </trkpt>
      <trkpt lat="43.61305" lon="6.30911">
        <ele>707.7</ele>
        <time>2024-10-30T12:36:05.000Z</time>
      </trkpt>
      <trkpt lat="43.61298" lon="6.30904">
        <ele>707.4</ele>
        <time>2024-10-30T12:36:13.000Z</time>
      </trkpt>
      <trkpt lat="43.61292" lon="6.30897">
        <ele>707</ele>
        <time>2024-10-30T12:36:21.000Z</time>
      </trkpt>
      <trkpt lat="43.61284" lon="6.30892">
        <ele>706.3</ele>
        <time>2024-10-30T12:36:32.000Z</time>
      </trkpt>
      <trkpt lat="43.61275" lon="6.3089">
        <ele>705.2</ele>
        <time>2024-10-30T12:36:43.000Z</time>
      </trkpt>
      <trkpt lat="43.61267" lon="6.30887">
        <ele>703.8</ele>
        <time>2024-10-30T12:36:54.000Z</time>
      </trkpt>
      <trkpt lat="43.61266" lon="6.30886">
        <ele>703.7</ele>
        <time>2024-10-30T12:36:55.000Z</time>
      </trkpt>
      <trkpt lat="43.61251" lon="6.30881">
        <ele>702.5</ele>
        <time>2024-10-30T12:37:10.000Z</time>
      </trkpt>
      <trkpt lat="43.61243" lon="6.3088">
        <ele>702.2</ele>
        <time>2024-10-30T12:37:19.000Z</time>
      </trkpt>
      <trkpt lat="43.61234" lon="6.30882">
        <ele>702.5</ele>
        <time>2024-10-30T12:37:30.000Z</time>
      </trkpt>
      <trkpt lat="43.61226" lon="6.30883">
        <ele>703.4</ele>
        <time>2024-10-30T12:37:41.000Z</time>
      </trkpt>
      <trkpt lat="43.61219" lon="6.30878">
        <ele>704.1</ele>
        <time>2024-10-30T12:37:49.000Z</time>
      </trkpt>
      <trkpt lat="43.61211" lon="6.30872">
        <ele>704.9</ele>
        <time>2024-10-30T12:37:58.000Z</time>
      </trkpt>
      <trkpt lat="43.6121" lon="6.30872">
        <ele>705</ele>
        <time>2024-10-30T12:37:59.000Z</time>
      </trkpt>
      <trkpt lat="43.61195" lon="6.30869">
        <ele>706.4</ele>
        <time>2024-10-30T12:38:15.000Z</time>
      </trkpt>
      <trkpt lat="43.61186" lon="6.30868">
        <ele>707.1</ele>
        <time>2024-10-30T12:38:24.000Z</time>
      </trkpt>
      <trkpt lat="43.61178" lon="6.30868">
        <ele>707.6</ele>
        <time>2024-10-30T12:38:33.000Z</time>
      </trkpt>
      <trkpt lat="43.61169" lon="6.30866">
        <ele>707.9</ele>
        <time>2024-10-30T12:38:43.000Z</time>
      </trkpt>
      <trkpt lat="43.61161" lon="6.30865">
        <ele>708.4</ele>
        <time>2024-10-30T12:38:51.000Z</time>
      </trkpt>
      <trkpt lat="43.61153" lon="6.30864">
        <ele>709</ele>
        <time>2024-10-30T12:38:59.000Z</time>
      </trkpt>
      <trkpt lat="43.61152" lon="6.30864">
        <ele>709</ele>
        <time>2024-10-30T12:39:00.000Z</time>
      </trkpt>
      <trkpt lat="43.61136" lon="6.30864">
        <ele>709.9</ele>
        <time>2024-10-30T12:39:17.000Z</time>
      </trkpt>
      <trkpt lat="43.61127" lon="6.30866">
        <ele>710</ele>
        <time>2024-10-30T12:39:26.000Z</time>
      </trkpt>
      <trkpt lat="43.61119" lon="6.30867">
        <ele>710.1</ele>
        <time>2024-10-30T12:39:33.000Z</time>
      </trkpt>
      <trkpt lat="43.61111" lon="6.30867">
        <ele>710.2</ele>
        <time>2024-10-30T12:39:40.000Z</time>
      </trkpt>
      <trkpt lat="43.61103" lon="6.30867">
        <ele>710.2</ele>
        <time>2024-10-30T12:39:47.000Z</time>
      </trkpt>
      <trkpt lat="43.61095" lon="6.30864">
        <ele>710.3</ele>
        <time>2024-10-30T12:39:55.000Z</time>
      </trkpt>
      <trkpt lat="43.61087" lon="6.3086">
        <ele>710.6</ele>
        <time>2024-10-30T12:40:04.000Z</time>
      </trkpt>
      <trkpt lat="43.61086" lon="6.30859">
        <ele>710.6</ele>
        <time>2024-10-30T12:40:05.000Z</time>
      </trkpt>
      <trkpt lat="43.61073" lon="6.30846">
        <ele>711.7</ele>
        <time>2024-10-30T12:40:22.000Z</time>
      </trkpt>
      <trkpt lat="43.61068" lon="6.30837">
        <ele>712.2</ele>
        <time>2024-10-30T12:40:31.000Z</time>
      </trkpt>
      <trkpt lat="43.61063" lon="6.30826">
        <ele>712.8</ele>
        <time>2024-10-30T12:40:40.000Z</time>
      </trkpt>
      <trkpt lat="43.61057" lon="6.30818">
        <ele>713.5</ele>
        <time>2024-10-30T12:40:50.000Z</time>
      </trkpt>
      <trkpt lat="43.6105" lon="6.30812">
        <ele>714.2</ele>
        <time>2024-10-30T12:41:00.000Z</time>
      </trkpt>
      <trkpt lat="43.61042" lon="6.30808">
        <ele>714.7</ele>
        <time>2024-10-30T12:41:09.000Z</time>
      </trkpt>
      <trkpt lat="43.61042" lon="6.30808">
        <ele>714.8</ele>
        <time>2024-10-30T12:41:10.000Z</time>
      </trkpt>
      <trkpt lat="43.61026" lon="6.30804">
        <ele>715.3</ele>
        <time>2024-10-30T12:41:30.000Z</time>
      </trkpt>
      <trkpt lat="43.61017" lon="6.30802">
        <ele>715.8</ele>
        <time>2024-10-30T12:41:40.000Z</time>
      </trkpt>
      <trkpt lat="43.61009" lon="6.30806">
        <ele>716.8</ele>
        <time>2024-10-30T12:41:51.000Z</time>
      </trkpt>
      <trkpt lat="43.61004" lon="6.30815">
        <ele>717.4</ele>
        <time>2024-10-30T12:42:00.000Z</time>
      </trkpt>
      <trkpt lat="43.61" lon="6.30826">
        <ele>718.3</ele>
        <time>2024-10-30T12:42:12.000Z</time>
      </trkpt>
      <trkpt lat="43.61" lon="6.30828">
        <ele>718.3</ele>
        <time>2024-10-30T12:42:13.000Z</time>
      </trkpt>
      <trkpt lat="43.60997" lon="6.3085">
        <ele>719.5</ele>
        <time>2024-10-30T12:42:35.000Z</time>
      </trkpt>
      <trkpt lat="43.60996" lon="6.30862">
        <ele>720</ele>
        <time>2024-10-30T12:42:45.000Z</time>
      </trkpt>
      <trkpt lat="43.60996" lon="6.30874">
        <ele>721</ele>
        <time>2024-10-30T12:42:57.000Z</time>
      </trkpt>
      <trkpt lat="43.60996" lon="6.30886">
        <ele>722.3</ele>
        <time>2024-10-30T12:43:09.000Z</time>
      </trkpt>
      <trkpt lat="43.60995" lon="6.30898">
        <ele>723.7</ele>
        <time>2024-10-30T12:43:22.000Z</time>
      </trkpt>
      <trkpt lat="43.60995" lon="6.309">
        <ele>723.9</ele>
        <time>2024-10-30T12:43:23.000Z</time>
      </trkpt>
      <trkpt lat="43.60996" lon="6.30922">
        <ele>725.1</ele>
        <time>2024-10-30T12:43:39.000Z</time>
      </trkpt>
      <trkpt lat="43.60995" lon="6.30934">
        <ele>725.4</ele>
        <time>2024-10-30T12:43:50.000Z</time>
      </trkpt>
      <trkpt lat="43.60989" lon="6.30943">
        <ele>725.5</ele>
        <time>2024-10-30T12:44:18.000Z</time>
      </trkpt>
      <trkpt lat="43.60982" lon="6.30948">
        <ele>725.7</ele>
        <time>2024-10-30T12:44:31.000Z</time>
      </trkpt>
      <trkpt lat="43.60981" lon="6.30948">
        <ele>725.8</ele>
        <time>2024-10-30T12:44:32.000Z</time>
      </trkpt>
      <trkpt lat="43.60968" lon="6.30962">
        <ele>727.3</ele>
        <time>2024-10-30T12:44:57.000Z</time>
      </trkpt>
      <trkpt lat="43.60962" lon="6.30972">
        <ele>728.9</ele>
        <time>2024-10-30T12:45:12.000Z</time>
      </trkpt>
      <trkpt lat="43.60959" lon="6.30983">
        <ele>729.9</ele>
        <time>2024-10-30T12:45:24.000Z</time>
      </trkpt>
      <trkpt lat="43.60956" lon="6.30994">
        <ele>730.4</ele>
        <time>2024-10-30T12:45:32.000Z</time>
      </trkpt>
      <trkpt lat="43.60952" lon="6.31005">
        <ele>730.8</ele>
        <time>2024-10-30T12:45:43.000Z</time>
      </trkpt>
      <trkpt lat="43.60952" lon="6.31006">
        <ele>730.8</ele>
        <time>2024-10-30T12:45:44.000Z</time>
      </trkpt>
      <trkpt lat="43.60943" lon="6.31022">
        <ele>731</ele>
        <time>2024-10-30T12:46:01.000Z</time>
      </trkpt>
      <trkpt lat="43.60934" lon="6.31025">
        <ele>730.7</ele>
        <time>2024-10-30T12:46:11.000Z</time>
      </trkpt>
      <trkpt lat="43.60925" lon="6.31023">
        <ele>730</ele>
        <time>2024-10-30T12:46:21.000Z</time>
      </trkpt>
      <trkpt lat="43.60917" lon="6.31022">
        <ele>728.7</ele>
        <time>2024-10-30T12:46:32.000Z</time>
      </trkpt>
      <trkpt lat="43.6091" lon="6.31015">
        <ele>727.5</ele>
        <time>2024-10-30T12:46:42.000Z</time>
      </trkpt>
      <trkpt lat="43.60903" lon="6.31008">
        <ele>726.3</ele>
        <time>2024-10-30T12:46:51.000Z</time>
      </trkpt>
      <trkpt lat="43.60902" lon="6.31007">
        <ele>726.1</ele>
        <time>2024-10-30T12:46:52.000Z</time>
      </trkpt>
      <trkpt lat="43.60891" lon="6.30992">
        <ele>724.5</ele>
        <time>2024-10-30T12:47:09.000Z</time>
      </trkpt>
      <trkpt lat="43.60885" lon="6.30984">
        <ele>724.1</ele>
        <time>2024-10-30T12:47:22.000Z</time>
      </trkpt>
      <trkpt lat="43.60877" lon="6.30979">
        <ele>725.1</ele>
        <time>2024-10-30T12:47:37.000Z</time>
      </trkpt>
      <trkpt lat="43.60869" lon="6.30976">
        <ele>727.3</ele>
        <time>2024-10-30T12:47:54.000Z</time>
      </trkpt>
      <trkpt lat="43.60868" lon="6.30976">
        <ele>727.5</ele>
        <time>2024-10-30T12:47:55.000Z</time>
      </trkpt>
      <trkpt lat="43.60854" lon="6.30965">
        <ele>730.7</ele>
        <time>2024-10-30T12:48:22.000Z</time>
      </trkpt>
      <trkpt lat="43.60862" lon="6.30962">
        <ele>731.3</ele>
        <time>2024-10-30T12:49:18.000Z</time>
      </trkpt>
      <trkpt lat="43.60862" lon="6.30962">
        <ele>731.2</ele>
        <time>2024-10-30T12:49:19.000Z</time>
      </trkpt>
      <trkpt lat="43.60878" lon="6.30972">
        <ele>727.9</ele>
        <time>2024-10-30T12:49:57.000Z</time>
      </trkpt>
      <trkpt lat="43.60885" lon="6.30977">
        <ele>726.5</ele>
        <time>2024-10-30T12:50:08.000Z</time>
      </trkpt>
      <trkpt lat="43.60893" lon="6.30982">
        <ele>725.5</ele>
        <time>2024-10-30T12:50:19.000Z</time>
      </trkpt>
      <trkpt lat="43.60894" lon="6.30983">
        <ele>725.5</ele>
        <time>2024-10-30T12:50:20.000Z</time>
      </trkpt>
      <trkpt lat="43.60904" lon="6.31">
        <ele>724.9</ele>
        <time>2024-10-30T12:50:36.000Z</time>
      </trkpt>
      <trkpt lat="43.60909" lon="6.3101">
        <ele>726.2</ele>
        <time>2024-10-30T12:50:53.000Z</time>
      </trkpt>
      <trkpt lat="43.60917" lon="6.31014">
        <ele>727.8</ele>
        <time>2024-10-30T12:51:07.000Z</time>
      </trkpt>
      <trkpt lat="43.60925" lon="6.31018">
        <ele>729.1</ele>
        <time>2024-10-30T12:51:18.000Z</time>
      </trkpt>
      <trkpt lat="43.60934" lon="6.31018">
        <ele>730.1</ele>
        <time>2024-10-30T12:51:30.000Z</time>
      </trkpt>
      <trkpt lat="43.60935" lon="6.31018">
        <ele>730.2</ele>
        <time>2024-10-30T12:51:31.000Z</time>
      </trkpt>
      <trkpt lat="43.6095" lon="6.31018">
        <ele>731.4</ele>
        <time>2024-10-30T12:51:48.000Z</time>
      </trkpt>
      <trkpt lat="43.60957" lon="6.31024">
        <ele>731.8</ele>
        <time>2024-10-30T12:51:59.000Z</time>
      </trkpt>
      <trkpt lat="43.60963" lon="6.31032">
        <ele>732.1</ele>
        <time>2024-10-30T12:52:09.000Z</time>
      </trkpt>
      <trkpt lat="43.60963" lon="6.31044">
        <ele>732.5</ele>
        <time>2024-10-30T12:52:20.000Z</time>
      </trkpt>
      <trkpt lat="43.60967" lon="6.31055">
        <ele>732.6</ele>
        <time>2024-10-30T12:52:29.000Z</time>
      </trkpt>
      <trkpt lat="43.6097" lon="6.31065">
        <ele>732.8</ele>
        <time>2024-10-30T12:52:38.000Z</time>
      </trkpt>
      <trkpt lat="43.6097" lon="6.31067">
        <ele>732.8</ele>
        <time>2024-10-30T12:52:39.000Z</time>
      </trkpt>
      <trkpt lat="43.60972" lon="6.31088">
        <ele>733.2</ele>
        <time>2024-10-30T12:52:54.000Z</time>
      </trkpt>
      <trkpt lat="43.60972" lon="6.31099">
        <ele>733.3</ele>
        <time>2024-10-30T12:53:00.000Z</time>
      </trkpt>
      <trkpt lat="43.60971" lon="6.3111">
        <ele>733.4</ele>
        <time>2024-10-30T12:53:07.000Z</time>
      </trkpt>
      <trkpt lat="43.60969" lon="6.31122">
        <ele>733.5</ele>
        <time>2024-10-30T12:53:16.000Z</time>
      </trkpt>
      <trkpt lat="43.60967" lon="6.31134">
        <ele>733.6</ele>
        <time>2024-10-30T12:53:24.000Z</time>
      </trkpt>
      <trkpt lat="43.60965" lon="6.31146">
        <ele>733.6</ele>
        <time>2024-10-30T12:53:33.000Z</time>
      </trkpt>
      <trkpt lat="43.60964" lon="6.31158">
        <ele>733.7</ele>
        <time>2024-10-30T12:53:42.000Z</time>
      </trkpt>
      <trkpt lat="43.60964" lon="6.31159">
        <ele>733.7</ele>
        <time>2024-10-30T12:53:43.000Z</time>
      </trkpt>
      <trkpt lat="43.60966" lon="6.31181">
        <ele>733.8</ele>
        <time>2024-10-30T12:53:58.000Z</time>
      </trkpt>
      <trkpt lat="43.60964" lon="6.31193">
        <ele>733.9</ele>
        <time>2024-10-30T12:54:07.000Z</time>
      </trkpt>
      <trkpt lat="43.60962" lon="6.31204">
        <ele>733.9</ele>
        <time>2024-10-30T12:54:15.000Z</time>
      </trkpt>
      <trkpt lat="43.60959" lon="6.31214">
        <ele>733.9</ele>
        <time>2024-10-30T12:54:22.000Z</time>
      </trkpt>
      <trkpt lat="43.60954" lon="6.31223">
        <ele>733.9</ele>
        <time>2024-10-30T12:54:30.000Z</time>
      </trkpt>
      <trkpt lat="43.60958" lon="6.31235">
        <ele>733.9</ele>
        <time>2024-10-30T12:54:58.000Z</time>
      </trkpt>
      <trkpt lat="43.60958" lon="6.31235">
        <ele>733.9</ele>
        <time>2024-10-30T12:54:59.000Z</time>
      </trkpt>
      <trkpt lat="43.60949" lon="6.31234">
        <ele>733.6</ele>
        <time>2024-10-30T12:56:05.000Z</time>
      </trkpt>
      <trkpt lat="43.60944" lon="6.31245">
        <ele>733.8</ele>
        <time>2024-10-30T12:57:36.000Z</time>
      </trkpt>
      <trkpt lat="43.60931" lon="6.3126">
        <ele>733.8</ele>
        <time>2024-10-30T12:57:57.000Z</time>
      </trkpt>
      <trkpt lat="43.60926" lon="6.31269">
        <ele>733.7</ele>
        <time>2024-10-30T12:58:07.000Z</time>
      </trkpt>
      <trkpt lat="43.6092" lon="6.31276">
        <ele>733.4</ele>
        <time>2024-10-30T12:58:15.000Z</time>
      </trkpt>
      <trkpt lat="43.60914" lon="6.31285">
        <ele>732.8</ele>
        <time>2024-10-30T12:58:24.000Z</time>
      </trkpt>
      <trkpt lat="43.6091" lon="6.31295">
        <ele>732.4</ele>
        <time>2024-10-30T12:58:31.000Z</time>
      </trkpt>
      <trkpt lat="43.60906" lon="6.31306">
        <ele>732</ele>
        <time>2024-10-30T12:58:39.000Z</time>
      </trkpt>
      <trkpt lat="43.60905" lon="6.31307">
        <ele>731.9</ele>
        <time>2024-10-30T12:58:40.000Z</time>
      </trkpt>
      <trkpt lat="43.60897" lon="6.31326">
        <ele>730.8</ele>
        <time>2024-10-30T12:58:57.000Z</time>
      </trkpt>
      <trkpt lat="43.60893" lon="6.31337">
        <ele>730.3</ele>
        <time>2024-10-30T12:59:06.000Z</time>
      </trkpt>
      <trkpt lat="43.60888" lon="6.31347">
        <ele>729.7</ele>
        <time>2024-10-30T12:59:15.000Z</time>
      </trkpt>
      <trkpt lat="43.60882" lon="6.31356">
        <ele>728.9</ele>
        <time>2024-10-30T12:59:24.000Z</time>
      </trkpt>
      <trkpt lat="43.60882" lon="6.31368">
        <ele>728.3</ele>
        <time>2024-10-30T12:59:32.000Z</time>
      </trkpt>
      <trkpt lat="43.60877" lon="6.31379">
        <ele>727.6</ele>
        <time>2024-10-30T12:59:41.000Z</time>
      </trkpt>
      <trkpt lat="43.60877" lon="6.3138">
        <ele>727.5</ele>
        <time>2024-10-30T12:59:42.000Z</time>
      </trkpt>
      <trkpt lat="43.60869" lon="6.31399">
        <ele>726.5</ele>
        <time>2024-10-30T13:00:10.000Z</time>
      </trkpt>
      <trkpt lat="43.60864" lon="6.31408">
        <ele>726.2</ele>
        <time>2024-10-30T13:00:20.000Z</time>
      </trkpt>
      <trkpt lat="43.60859" lon="6.31418">
        <ele>725.8</ele>
        <time>2024-10-30T13:00:29.000Z</time>
      </trkpt>
      <trkpt lat="43.60853" lon="6.31426">
        <ele>725.4</ele>
        <time>2024-10-30T13:00:35.000Z</time>
      </trkpt>
      <trkpt lat="43.60847" lon="6.31434">
        <ele>725</ele>
        <time>2024-10-30T13:00:42.000Z</time>
      </trkpt>
      <trkpt lat="43.60841" lon="6.31442">
        <ele>724.8</ele>
        <time>2024-10-30T13:00:49.000Z</time>
      </trkpt>
      <trkpt lat="43.6084" lon="6.31443">
        <ele>724.8</ele>
        <time>2024-10-30T13:00:50.000Z</time>
      </trkpt>
      <trkpt lat="43.60825" lon="6.31451">
        <ele>724.6</ele>
        <time>2024-10-30T13:01:04.000Z</time>
      </trkpt>
      <trkpt lat="43.60816" lon="6.31452">
        <ele>724.1</ele>
        <time>2024-10-30T13:01:14.000Z</time>
      </trkpt>
      <trkpt lat="43.60808" lon="6.3145">
        <ele>723.9</ele>
        <time>2024-10-30T13:01:18.000Z</time>
      </trkpt>
      <trkpt lat="43.608" lon="6.31448">
        <ele>723.7</ele>
        <time>2024-10-30T13:01:23.000Z</time>
      </trkpt>
      <trkpt lat="43.60793" lon="6.31443">
        <ele>723.1</ele>
        <time>2024-10-30T13:01:33.000Z</time>
      </trkpt>
      <trkpt lat="43.60784" lon="6.3144">
        <ele>722.5</ele>
        <time>2024-10-30T13:01:43.000Z</time>
      </trkpt>
      <trkpt lat="43.60776" lon="6.31439">
        <ele>722.1</ele>
        <time>2024-10-30T13:01:54.000Z</time>
      </trkpt>
      <trkpt lat="43.60775" lon="6.31439">
        <ele>722.1</ele>
        <time>2024-10-30T13:01:55.000Z</time>
      </trkpt>
      <trkpt lat="43.60759" lon="6.31436">
        <ele>721.1</ele>
        <time>2024-10-30T13:02:11.000Z</time>
      </trkpt>
      <trkpt lat="43.60751" lon="6.31437">
        <ele>720.8</ele>
        <time>2024-10-30T13:02:19.000Z</time>
      </trkpt>
      <trkpt lat="43.60743" lon="6.31442">
        <ele>720.7</ele>
        <time>2024-10-30T13:02:26.000Z</time>
      </trkpt>
      <trkpt lat="43.60736" lon="6.31449">
        <ele>720.6</ele>
        <time>2024-10-30T13:02:33.000Z</time>
      </trkpt>
      <trkpt lat="43.6073" lon="6.31456">
        <ele>720.7</ele>
        <time>2024-10-30T13:02:41.000Z</time>
      </trkpt>
      <trkpt lat="43.60725" lon="6.31466">
        <ele>721.1</ele>
        <time>2024-10-30T13:02:52.000Z</time>
      </trkpt>
      <trkpt lat="43.60721" lon="6.31477">
        <ele>721.6</ele>
        <time>2024-10-30T13:03:01.000Z</time>
      </trkpt>
      <trkpt lat="43.60721" lon="6.31478">
        <ele>721.6</ele>
        <time>2024-10-30T13:03:02.000Z</time>
      </trkpt>
      <trkpt lat="43.60717" lon="6.315">
        <ele>722</ele>
        <time>2024-10-30T13:03:19.000Z</time>
      </trkpt>
      <trkpt lat="43.60712" lon="6.3151">
        <ele>722.1</ele>
        <time>2024-10-30T13:03:28.000Z</time>
      </trkpt>
      <trkpt lat="43.60708" lon="6.3152">
        <ele>722.2</ele>
        <time>2024-10-30T13:03:36.000Z</time>
      </trkpt>
      <trkpt lat="43.60706" lon="6.31532">
        <ele>722.2</ele>
        <time>2024-10-30T13:03:43.000Z</time>
      </trkpt>
      <trkpt lat="43.60704" lon="6.31543">
        <ele>722.2</ele>
        <time>2024-10-30T13:03:51.000Z</time>
      </trkpt>
      <trkpt lat="43.60699" lon="6.31553">
        <ele>722.2</ele>
        <time>2024-10-30T13:03:57.000Z</time>
      </trkpt>
      <trkpt lat="43.60694" lon="6.31562">
        <ele>722.2</ele>
        <time>2024-10-30T13:04:04.000Z</time>
      </trkpt>
      <trkpt lat="43.60694" lon="6.31564">
        <ele>722.1</ele>
        <time>2024-10-30T13:04:05.000Z</time>
      </trkpt>
      <trkpt lat="43.60687" lon="6.31583">
        <ele>721.7</ele>
        <time>2024-10-30T13:04:19.000Z</time>
      </trkpt>
      <trkpt lat="43.60683" lon="6.31593">
        <ele>721.1</ele>
        <time>2024-10-30T13:04:27.000Z</time>
      </trkpt>
      <trkpt lat="43.60679" lon="6.31604">
        <ele>720.7</ele>
        <time>2024-10-30T13:04:36.000Z</time>
      </trkpt>
      <trkpt lat="43.60674" lon="6.31613">
        <ele>720.2</ele>
        <time>2024-10-30T13:04:45.000Z</time>
      </trkpt>
      <trkpt lat="43.60667" lon="6.31622">
        <ele>719.5</ele>
        <time>2024-10-30T13:04:54.000Z</time>
      </trkpt>
      <trkpt lat="43.60661" lon="6.31631">
        <ele>719.2</ele>
        <time>2024-10-30T13:05:02.000Z</time>
      </trkpt>
      <trkpt lat="43.60658" lon="6.31642">
        <ele>719</ele>
        <time>2024-10-30T13:05:11.000Z</time>
      </trkpt>
      <trkpt lat="43.60657" lon="6.31643">
        <ele>718.9</ele>
        <time>2024-10-30T13:05:12.000Z</time>
      </trkpt>
      <trkpt lat="43.60649" lon="6.3166">
        <ele>718.6</ele>
        <time>2024-10-30T13:05:25.000Z</time>
      </trkpt>
      <trkpt lat="43.60643" lon="6.31669">
        <ele>718.5</ele>
        <time>2024-10-30T13:05:33.000Z</time>
      </trkpt>
      <trkpt lat="43.60637" lon="6.31677">
        <ele>718</ele>
        <time>2024-10-30T13:05:41.000Z</time>
      </trkpt>
      <trkpt lat="43.60633" lon="6.31687">
        <ele>717.7</ele>
        <time>2024-10-30T13:05:48.000Z</time>
      </trkpt>
      <trkpt lat="43.6063" lon="6.31699">
        <ele>717.5</ele>
        <time>2024-10-30T13:05:56.000Z</time>
      </trkpt>
      <trkpt lat="43.60628" lon="6.3171">
        <ele>717.3</ele>
        <time>2024-10-30T13:06:03.000Z</time>
      </trkpt>
      <trkpt lat="43.60622" lon="6.31719">
        <ele>717</ele>
        <time>2024-10-30T13:06:11.000Z</time>
      </trkpt>
      <trkpt lat="43.6062" lon="6.31731">
        <ele>716.7</ele>
        <time>2024-10-30T13:06:18.000Z</time>
      </trkpt>
      <trkpt lat="43.6062" lon="6.31732">
        <ele>716.6</ele>
        <time>2024-10-30T13:06:19.000Z</time>
      </trkpt>
      <trkpt lat="43.6061" lon="6.31749">
        <ele>716</ele>
        <time>2024-10-30T13:06:32.000Z</time>
      </trkpt>
      <trkpt lat="43.60607" lon="6.31759">
        <ele>715.6</ele>
        <time>2024-10-30T13:06:38.000Z</time>
      </trkpt>
      <trkpt lat="43.60601" lon="6.31769">
        <ele>715.2</ele>
        <time>2024-10-30T13:06:46.000Z</time>
      </trkpt>
      <trkpt lat="43.60599" lon="6.3178">
        <ele>715</ele>
        <time>2024-10-30T13:06:54.000Z</time>
      </trkpt>
      <trkpt lat="43.60596" lon="6.3179">
        <ele>714.8</ele>
        <time>2024-10-30T13:07:01.000Z</time>
      </trkpt>
      <trkpt lat="43.60589" lon="6.31797">
        <ele>714.8</ele>
        <time>2024-10-30T13:07:06.000Z</time>
      </trkpt>
      <trkpt lat="43.60583" lon="6.31806">
        <ele>714.7</ele>
        <time>2024-10-30T13:07:13.000Z</time>
      </trkpt>
      <trkpt lat="43.60579" lon="6.31817">
        <ele>714.7</ele>
        <time>2024-10-30T13:07:21.000Z</time>
      </trkpt>
      <trkpt lat="43.60579" lon="6.31818">
        <ele>714.7</ele>
        <time>2024-10-30T13:07:22.000Z</time>
      </trkpt>
      <trkpt lat="43.60571" lon="6.31836">
        <ele>714.6</ele>
        <time>2024-10-30T13:07:36.000Z</time>
      </trkpt>
      <trkpt lat="43.60568" lon="6.31846">
        <ele>714.6</ele>
        <time>2024-10-30T13:07:42.000Z</time>
      </trkpt>
      <trkpt lat="43.60564" lon="6.31856">
        <ele>714.6</ele>
        <time>2024-10-30T13:07:50.000Z</time>
      </trkpt>
      <trkpt lat="43.60561" lon="6.31867">
        <ele>714.6</ele>
        <time>2024-10-30T13:07:57.000Z</time>
      </trkpt>
      <trkpt lat="43.60556" lon="6.31877">
        <ele>714.6</ele>
        <time>2024-10-30T13:08:07.000Z</time>
      </trkpt>
      <trkpt lat="43.60549" lon="6.31883">
        <ele>714.5</ele>
        <time>2024-10-30T13:08:40.000Z</time>
      </trkpt>
      <trkpt lat="43.60548" lon="6.31883">
        <ele>714.5</ele>
        <time>2024-10-30T13:08:41.000Z</time>
      </trkpt>
      <trkpt lat="43.60536" lon="6.31868">
        <ele>714.1</ele>
        <time>2024-10-30T13:09:28.000Z</time>
      </trkpt>
      <trkpt lat="43.6053" lon="6.31859">
        <ele>713.6</ele>
        <time>2024-10-30T13:09:38.000Z</time>
      </trkpt>
      <trkpt lat="43.60526" lon="6.3185">
        <ele>713.3</ele>
        <time>2024-10-30T13:09:46.000Z</time>
      </trkpt>
      <trkpt lat="43.60526" lon="6.31849">
        <ele>713.2</ele>
        <time>2024-10-30T13:09:47.000Z</time>
      </trkpt>
      <trkpt lat="43.60516" lon="6.31831">
        <ele>712.1</ele>
        <time>2024-10-30T13:10:04.000Z</time>
      </trkpt>
      <trkpt lat="43.60511" lon="6.31822">
        <ele>711.3</ele>
        <time>2024-10-30T13:10:13.000Z</time>
      </trkpt>
      <trkpt lat="43.60505" lon="6.31814">
        <ele>710.6</ele>
        <time>2024-10-30T13:10:21.000Z</time>
      </trkpt>
      <trkpt lat="43.60499" lon="6.31805">
        <ele>709.7</ele>
        <time>2024-10-30T13:10:29.000Z</time>
      </trkpt>
      <trkpt lat="43.60493" lon="6.31796">
        <ele>709.1</ele>
        <time>2024-10-30T13:10:36.000Z</time>
      </trkpt>
      <trkpt lat="43.6049" lon="6.31785">
        <ele>708.7</ele>
        <time>2024-10-30T13:10:43.000Z</time>
      </trkpt>
      <trkpt lat="43.60486" lon="6.31775">
        <ele>708.4</ele>
        <time>2024-10-30T13:10:51.000Z</time>
      </trkpt>
      <trkpt lat="43.60484" lon="6.31774">
        <ele>708.3</ele>
        <time>2024-10-30T13:10:52.000Z</time>
      </trkpt>
      <trkpt lat="43.60478" lon="6.31755">
        <ele>707.7</ele>
        <time>2024-10-30T13:11:06.000Z</time>
      </trkpt>
      <trkpt lat="43.60473" lon="6.31746">
        <ele>707.4</ele>
        <time>2024-10-30T13:11:13.000Z</time>
      </trkpt>
      <trkpt lat="43.60468" lon="6.31737">
        <ele>707.1</ele>
        <time>2024-10-30T13:11:20.000Z</time>
      </trkpt>
      <trkpt lat="43.60465" lon="6.31726">
        <ele>706.9</ele>
        <time>2024-10-30T13:11:26.000Z</time>
      </trkpt>
      <trkpt lat="43.60459" lon="6.31717">
        <ele>706.8</ele>
        <time>2024-10-30T13:11:34.000Z</time>
      </trkpt>
      <trkpt lat="43.60453" lon="6.31709">
        <ele>706.6</ele>
        <time>2024-10-30T13:11:43.000Z</time>
      </trkpt>
      <trkpt lat="43.60447" lon="6.31701">
        <ele>706.6</ele>
        <time>2024-10-30T13:11:52.000Z</time>
      </trkpt>
      <trkpt lat="43.60441" lon="6.31692">
        <ele>706.5</ele>
        <time>2024-10-30T13:11:59.000Z</time>
      </trkpt>
      <trkpt lat="43.60441" lon="6.3169">
        <ele>706.5</ele>
        <time>2024-10-30T13:12:00.000Z</time>
      </trkpt>
      <trkpt lat="43.6043" lon="6.31674">
        <ele>706.2</ele>
        <time>2024-10-30T13:12:16.000Z</time>
      </trkpt>
      <trkpt lat="43.60423" lon="6.31667">
        <ele>706.2</ele>
        <time>2024-10-30T13:12:23.000Z</time>
      </trkpt>
      <trkpt lat="43.60418" lon="6.31657">
        <ele>706</ele>
        <time>2024-10-30T13:12:31.000Z</time>
      </trkpt>
      <trkpt lat="43.60413" lon="6.31647">
        <ele>705.9</ele>
        <time>2024-10-30T13:12:40.000Z</time>
      </trkpt>
      <trkpt lat="43.60409" lon="6.31636">
        <ele>705.9</ele>
        <time>2024-10-30T13:12:50.000Z</time>
      </trkpt>
      <trkpt lat="43.60404" lon="6.31628">
        <ele>705.9</ele>
        <time>2024-10-30T13:12:58.000Z</time>
      </trkpt>
      <trkpt lat="43.60398" lon="6.3162">
        <ele>706.3</ele>
        <time>2024-10-30T13:13:06.000Z</time>
      </trkpt>
      <trkpt lat="43.60398" lon="6.31619">
        <ele>706.4</ele>
        <time>2024-10-30T13:13:07.000Z</time>
      </trkpt>
      <trkpt lat="43.60387" lon="6.31601">
        <ele>707.3</ele>
        <time>2024-10-30T13:13:23.000Z</time>
      </trkpt>
      <trkpt lat="43.60381" lon="6.31593">
        <ele>707.7</ele>
        <time>2024-10-30T13:13:31.000Z</time>
      </trkpt>
      <trkpt lat="43.60375" lon="6.31586">
        <ele>707.9</ele>
        <time>2024-10-30T13:13:38.000Z</time>
      </trkpt>
      <trkpt lat="43.60367" lon="6.3158">
        <ele>708.4</ele>
        <time>2024-10-30T13:13:47.000Z</time>
      </trkpt>
      <trkpt lat="43.60361" lon="6.31573">
        <ele>709.2</ele>
        <time>2024-10-30T13:13:58.000Z</time>
      </trkpt>
      <trkpt lat="43.60352" lon="6.3157">
        <ele>709.8</ele>
        <time>2024-10-30T13:14:06.000Z</time>
      </trkpt>
      <trkpt lat="43.60344" lon="6.31568">
        <ele>710.2</ele>
        <time>2024-10-30T13:14:13.000Z</time>
      </trkpt>
      <trkpt lat="43.60343" lon="6.31568">
        <ele>710.3</ele>
        <time>2024-10-30T13:14:14.000Z</time>
      </trkpt>
      <trkpt lat="43.60329" lon="6.31558">
        <ele>710.6</ele>
        <time>2024-10-30T13:14:30.000Z</time>
      </trkpt>
      <trkpt lat="43.60322" lon="6.31552">
        <ele>710.7</ele>
        <time>2024-10-30T13:14:37.000Z</time>
      </trkpt>
      <trkpt lat="43.60317" lon="6.31542">
        <ele>710.6</ele>
        <time>2024-10-30T13:14:44.000Z</time>
      </trkpt>
      <trkpt lat="43.60312" lon="6.31532">
        <ele>710.4</ele>
        <time>2024-10-30T13:14:51.000Z</time>
      </trkpt>
      <trkpt lat="43.60312" lon="6.31521">
        <ele>710.2</ele>
        <time>2024-10-30T13:14:58.000Z</time>
      </trkpt>
      <trkpt lat="43.6031" lon="6.31509">
        <ele>710.1</ele>
        <time>2024-10-30T13:15:06.000Z</time>
      </trkpt>
      <trkpt lat="43.60307" lon="6.31497">
        <ele>710</ele>
        <time>2024-10-30T13:15:16.000Z</time>
      </trkpt>
      <trkpt lat="43.60307" lon="6.31496">
        <ele>710</ele>
        <time>2024-10-30T13:15:17.000Z</time>
      </trkpt>
      <trkpt lat="43.60308" lon="6.31475">
        <ele>709.7</ele>
        <time>2024-10-30T13:15:30.000Z</time>
      </trkpt>
      <trkpt lat="43.6031" lon="6.31463">
        <ele>709.4</ele>
        <time>2024-10-30T13:15:38.000Z</time>
      </trkpt>
      <trkpt lat="43.60316" lon="6.31455">
        <ele>709</ele>
        <time>2024-10-30T13:15:44.000Z</time>
      </trkpt>
      <trkpt lat="43.60322" lon="6.31447">
        <ele>708.7</ele>
        <time>2024-10-30T13:15:51.000Z</time>
      </trkpt>
      <trkpt lat="43.60329" lon="6.3144">
        <ele>708.4</ele>
        <time>2024-10-30T13:15:57.000Z</time>
      </trkpt>
      <trkpt lat="43.60335" lon="6.31432">
        <ele>708</ele>
        <time>2024-10-30T13:16:05.000Z</time>
      </trkpt>
      <trkpt lat="43.60339" lon="6.31422">
        <ele>707.8</ele>
        <time>2024-10-30T13:16:12.000Z</time>
      </trkpt>
      <trkpt lat="43.60343" lon="6.31412">
        <ele>707.4</ele>
        <time>2024-10-30T13:16:21.000Z</time>
      </trkpt>
      <trkpt lat="43.60344" lon="6.31411">
        <ele>707.4</ele>
        <time>2024-10-30T13:16:22.000Z</time>
      </trkpt>
      <trkpt lat="43.60349" lon="6.3139">
        <ele>707</ele>
        <time>2024-10-30T13:16:38.000Z</time>
      </trkpt>
      <trkpt lat="43.60353" lon="6.31379">
        <ele>706.8</ele>
        <time>2024-10-30T13:16:45.000Z</time>
      </trkpt>
      <trkpt lat="43.60358" lon="6.3137">
        <ele>706.7</ele>
        <time>2024-10-30T13:16:52.000Z</time>
      </trkpt>
      <trkpt lat="43.60363" lon="6.31359">
        <ele>706.7</ele>
        <time>2024-10-30T13:17:00.000Z</time>
      </trkpt>
      <trkpt lat="43.60364" lon="6.31348">
        <ele>706.8</ele>
        <time>2024-10-30T13:17:08.000Z</time>
      </trkpt>
      <trkpt lat="43.60367" lon="6.31337">
        <ele>706.7</ele>
        <time>2024-10-30T13:17:15.000Z</time>
      </trkpt>
      <trkpt lat="43.60372" lon="6.31327">
        <ele>706.4</ele>
        <time>2024-10-30T13:17:23.000Z</time>
      </trkpt>
      <trkpt lat="43.60372" lon="6.31326">
        <ele>706.3</ele>
        <time>2024-10-30T13:17:24.000Z</time>
      </trkpt>
      <trkpt lat="43.60385" lon="6.31311">
        <ele>706</ele>
        <time>2024-10-30T13:17:40.000Z</time>
      </trkpt>
      <trkpt lat="43.60391" lon="6.31305">
        <ele>705.9</ele>
        <time>2024-10-30T13:17:46.000Z</time>
      </trkpt>
      <trkpt lat="43.60399" lon="6.313">
        <ele>705.8</ele>
        <time>2024-10-30T13:17:53.000Z</time>
      </trkpt>
      <trkpt lat="43.60407" lon="6.31297">
        <ele>705.8</ele>
        <time>2024-10-30T13:18:00.000Z</time>
      </trkpt>
      <trkpt lat="43.60415" lon="6.31292">
        <ele>705.7</ele>
        <time>2024-10-30T13:18:07.000Z</time>
      </trkpt>
      <trkpt lat="43.60423" lon="6.31287">
        <ele>705.5</ele>
        <time>2024-10-30T13:18:15.000Z</time>
      </trkpt>
      <trkpt lat="43.6043" lon="6.31283">
        <ele>705.2</ele>
        <time>2024-10-30T13:18:23.000Z</time>
      </trkpt>
      <trkpt lat="43.60439" lon="6.3128">
        <ele>705</ele>
        <time>2024-10-30T13:18:30.000Z</time>
      </trkpt>
      <trkpt lat="43.6044" lon="6.3128">
        <ele>705</ele>
        <time>2024-10-30T13:18:31.000Z</time>
      </trkpt>
      <trkpt lat="43.60455" lon="6.31277">
        <ele>704.9</ele>
        <time>2024-10-30T13:18:44.000Z</time>
      </trkpt>
      <trkpt lat="43.60463" lon="6.31275">
        <ele>705</ele>
        <time>2024-10-30T13:18:52.000Z</time>
      </trkpt>
      <trkpt lat="43.60471" lon="6.31271">
        <ele>705.1</ele>
        <time>2024-10-30T13:19:01.000Z</time>
      </trkpt>
      <trkpt lat="43.60478" lon="6.31264">
        <ele>705.2</ele>
        <time>2024-10-30T13:19:10.000Z</time>
      </trkpt>
      <trkpt lat="43.60484" lon="6.31255">
        <ele>705.2</ele>
        <time>2024-10-30T13:19:22.000Z</time>
      </trkpt>
      <trkpt lat="43.60489" lon="6.31247">
        <ele>705.1</ele>
        <time>2024-10-30T13:19:27.000Z</time>
      </trkpt>
      <trkpt lat="43.60494" lon="6.31238">
        <ele>705.1</ele>
        <time>2024-10-30T13:19:33.000Z</time>
      </trkpt>
      <trkpt lat="43.60494" lon="6.31236">
        <ele>705.1</ele>
        <time>2024-10-30T13:19:34.000Z</time>
      </trkpt>
      <trkpt lat="43.60497" lon="6.31215">
        <ele>704.9</ele>
        <time>2024-10-30T13:19:50.000Z</time>
      </trkpt>
      <trkpt lat="43.60499" lon="6.31203">
        <ele>704.8</ele>
        <time>2024-10-30T13:20:00.000Z</time>
      </trkpt>
      <trkpt lat="43.60506" lon="6.31197">
        <ele>704.6</ele>
        <time>2024-10-30T13:20:27.000Z</time>
      </trkpt>
      <trkpt lat="43.60507" lon="6.31185">
        <ele>704.4</ele>
        <time>2024-10-30T13:20:46.000Z</time>
      </trkpt>
      <trkpt lat="43.60507" lon="6.31184">
        <ele>704.4</ele>
        <time>2024-10-30T13:20:47.000Z</time>
      </trkpt>
      <trkpt lat="43.60509" lon="6.31162">
        <ele>704.3</ele>
        <time>2024-10-30T13:21:03.000Z</time>
      </trkpt>
      <trkpt lat="43.60513" lon="6.31151">
        <ele>704.2</ele>
        <time>2024-10-30T13:21:10.000Z</time>
      </trkpt>
      <trkpt lat="43.60518" lon="6.31142">
        <ele>704.2</ele>
        <time>2024-10-30T13:21:16.000Z</time>
      </trkpt>
      <trkpt lat="43.60521" lon="6.3113">
        <ele>703.9</ele>
        <time>2024-10-30T13:21:25.000Z</time>
      </trkpt>
      <trkpt lat="43.60522" lon="6.31119">
        <ele>703.5</ele>
        <time>2024-10-30T13:21:35.000Z</time>
      </trkpt>
      <trkpt lat="43.60522" lon="6.31107">
        <ele>703.4</ele>
        <time>2024-10-30T13:21:43.000Z</time>
      </trkpt>
      <trkpt lat="43.60524" lon="6.31095">
        <ele>703.2</ele>
        <time>2024-10-30T13:21:50.000Z</time>
      </trkpt>
      <trkpt lat="43.60524" lon="6.31094">
        <ele>703.2</ele>
        <time>2024-10-30T13:21:51.000Z</time>
      </trkpt>
      <trkpt lat="43.60522" lon="6.31072">
        <ele>702.7</ele>
        <time>2024-10-30T13:22:09.000Z</time>
      </trkpt>
      <trkpt lat="43.60521" lon="6.31061">
        <ele>702.4</ele>
        <time>2024-10-30T13:22:17.000Z</time>
      </trkpt>
      <trkpt lat="43.60518" lon="6.3105">
        <ele>702.1</ele>
        <time>2024-10-30T13:22:24.000Z</time>
      </trkpt>
      <trkpt lat="43.60517" lon="6.31038">
        <ele>701.8</ele>
        <time>2024-10-30T13:22:31.000Z</time>
      </trkpt>
      <trkpt lat="43.60518" lon="6.31027">
        <ele>701.5</ele>
        <time>2024-10-30T13:22:39.000Z</time>
      </trkpt>
      <trkpt lat="43.6052" lon="6.31016">
        <ele>701.3</ele>
        <time>2024-10-30T13:22:47.000Z</time>
      </trkpt>
      <trkpt lat="43.60523" lon="6.31006">
        <ele>701.1</ele>
        <time>2024-10-30T13:22:54.000Z</time>
      </trkpt>
      <trkpt lat="43.60523" lon="6.31004">
        <ele>701</ele>
        <time>2024-10-30T13:22:55.000Z</time>
      </trkpt>
      <trkpt lat="43.60523" lon="6.30982">
        <ele>700.8</ele>
        <time>2024-10-30T13:23:10.000Z</time>
      </trkpt>
      <trkpt lat="43.6052" lon="6.3097">
        <ele>700.5</ele>
        <time>2024-10-30T13:23:21.000Z</time>
      </trkpt>
      <trkpt lat="43.60521" lon="6.30959">
        <ele>700.2</ele>
        <time>2024-10-30T13:23:28.000Z</time>
      </trkpt>
      <trkpt lat="43.60519" lon="6.30948">
        <ele>700</ele>
        <time>2024-10-30T13:23:35.000Z</time>
      </trkpt>
      <trkpt lat="43.60516" lon="6.30936">
        <ele>699.7</ele>
        <time>2024-10-30T13:23:42.000Z</time>
      </trkpt>
      <trkpt lat="43.60514" lon="6.30924">
        <ele>699.3</ele>
        <time>2024-10-30T13:23:54.000Z</time>
      </trkpt>
      <trkpt lat="43.60516" lon="6.30912">
        <ele>699.1</ele>
        <time>2024-10-30T13:24:18.000Z</time>
      </trkpt>
      <trkpt lat="43.60515" lon="6.30912">
        <ele>699.1</ele>
        <time>2024-10-30T13:24:19.000Z</time>
      </trkpt>
      <trkpt lat="43.60499" lon="6.30915">
        <ele>699.4</ele>
        <time>2024-10-30T13:24:52.000Z</time>
      </trkpt>
      <trkpt lat="43.60491" lon="6.30915">
        <ele>699.5</ele>
        <time>2024-10-30T13:24:57.000Z</time>
      </trkpt>
      <trkpt lat="43.60482" lon="6.30914">
        <ele>699.6</ele>
        <time>2024-10-30T13:25:03.000Z</time>
      </trkpt>
      <trkpt lat="43.60475" lon="6.30908">
        <ele>699.8</ele>
        <time>2024-10-30T13:25:12.000Z</time>
      </trkpt>
      <trkpt lat="43.6047" lon="6.30897">
        <ele>700.2</ele>
        <time>2024-10-30T13:25:21.000Z</time>
      </trkpt>
      <trkpt lat="43.60469" lon="6.30897">
        <ele>700.3</ele>
        <time>2024-10-30T13:25:22.000Z</time>
      </trkpt>
      <trkpt lat="43.60467" lon="6.30876">
        <ele>702.3</ele>
        <time>2024-10-30T13:25:40.000Z</time>
      </trkpt>
      <trkpt lat="43.60464" lon="6.30865">
        <ele>702.9</ele>
        <time>2024-10-30T13:25:48.000Z</time>
      </trkpt>
      <trkpt lat="43.60459" lon="6.30855">
        <ele>703.5</ele>
        <time>2024-10-30T13:25:57.000Z</time>
      </trkpt>
      <trkpt lat="43.60456" lon="6.30844">
        <ele>704.4</ele>
        <time>2024-10-30T13:26:09.000Z</time>
      </trkpt>
      <trkpt lat="43.60453" lon="6.30833">
        <ele>705.3</ele>
        <time>2024-10-30T13:26:19.000Z</time>
      </trkpt>
      <trkpt lat="43.60449" lon="6.30823">
        <ele>705.9</ele>
        <time>2024-10-30T13:26:27.000Z</time>
      </trkpt>
      <trkpt lat="43.60448" lon="6.30822">
        <ele>706</ele>
        <time>2024-10-30T13:26:28.000Z</time>
      </trkpt>
      <trkpt lat="43.6044" lon="6.30802">
        <ele>707</ele>
        <time>2024-10-30T13:26:45.000Z</time>
      </trkpt>
      <trkpt lat="43.60439" lon="6.30791">
        <ele>707.4</ele>
        <time>2024-10-30T13:26:52.000Z</time>
      </trkpt>
      <trkpt lat="43.60432" lon="6.30783">
        <ele>707.8</ele>
        <time>2024-10-30T13:26:59.000Z</time>
      </trkpt>
      <trkpt lat="43.6043" lon="6.30772">
        <ele>708.3</ele>
        <time>2024-10-30T13:27:08.000Z</time>
      </trkpt>
      <trkpt lat="43.60426" lon="6.30762">
        <ele>708.7</ele>
        <time>2024-10-30T13:27:15.000Z</time>
      </trkpt>
      <trkpt lat="43.60422" lon="6.30751">
        <ele>709.1</ele>
        <time>2024-10-30T13:27:24.000Z</time>
      </trkpt>
      <trkpt lat="43.60415" lon="6.30745">
        <ele>709.3</ele>
        <time>2024-10-30T13:27:31.000Z</time>
      </trkpt>
      <trkpt lat="43.60414" lon="6.30744">
        <ele>709.3</ele>
        <time>2024-10-30T13:27:32.000Z</time>
      </trkpt>
      <trkpt lat="43.60398" lon="6.30737">
        <ele>710.4</ele>
        <time>2024-10-30T13:27:54.000Z</time>
      </trkpt>
      <trkpt lat="43.6039" lon="6.30734">
        <ele>711.2</ele>
        <time>2024-10-30T13:28:05.000Z</time>
      </trkpt>
      <trkpt lat="43.60381" lon="6.30733">
        <ele>711.9</ele>
        <time>2024-10-30T13:28:12.000Z</time>
      </trkpt>
      <trkpt lat="43.60374" lon="6.30728">
        <ele>713</ele>
        <time>2024-10-30T13:28:24.000Z</time>
      </trkpt>
      <trkpt lat="43.60366" lon="6.30729">
        <ele>713.8</ele>
        <time>2024-10-30T13:28:36.000Z</time>
      </trkpt>
      <trkpt lat="43.60365" lon="6.30729">
        <ele>713.8</ele>
        <time>2024-10-30T13:28:37.000Z</time>
      </trkpt>
      <trkpt lat="43.6035" lon="6.30737">
        <ele>715</ele>
        <time>2024-10-30T13:28:55.000Z</time>
      </trkpt>
      <trkpt lat="43.60342" lon="6.30742">
        <ele>715.3</ele>
        <time>2024-10-30T13:29:04.000Z</time>
      </trkpt>
      <trkpt lat="43.60335" lon="6.30746">
        <ele>715.6</ele>
        <time>2024-10-30T13:29:14.000Z</time>
      </trkpt>
      <trkpt lat="43.60327" lon="6.3075">
        <ele>715.8</ele>
        <time>2024-10-30T13:29:21.000Z</time>
      </trkpt>
      <trkpt lat="43.6032" lon="6.30756">
        <ele>716.2</ele>
        <time>2024-10-30T13:29:30.000Z</time>
      </trkpt>
      <trkpt lat="43.60311" lon="6.3076">
        <ele>716.6</ele>
        <time>2024-10-30T13:29:40.000Z</time>
      </trkpt>
      <trkpt lat="43.6031" lon="6.30761">
        <ele>716.7</ele>
        <time>2024-10-30T13:29:41.000Z</time>
      </trkpt>
      <trkpt lat="43.60296" lon="6.30767">
        <ele>717.3</ele>
        <time>2024-10-30T13:29:56.000Z</time>
      </trkpt>
      <trkpt lat="43.60287" lon="6.30768">
        <ele>717.8</ele>
        <time>2024-10-30T13:30:06.000Z</time>
      </trkpt>
      <trkpt lat="43.60279" lon="6.30771">
        <ele>718.1</ele>
        <time>2024-10-30T13:30:14.000Z</time>
      </trkpt>
      <trkpt lat="43.60271" lon="6.30773">
        <ele>718.5</ele>
        <time>2024-10-30T13:30:20.000Z</time>
      </trkpt>
      <trkpt lat="43.60263" lon="6.30777">
        <ele>719</ele>
        <time>2024-10-30T13:30:27.000Z</time>
      </trkpt>
      <trkpt lat="43.60256" lon="6.30783">
        <ele>719.7</ele>
        <time>2024-10-30T13:30:37.000Z</time>
      </trkpt>
      <trkpt lat="43.60249" lon="6.30789">
        <ele>720.1</ele>
        <time>2024-10-30T13:30:46.000Z</time>
      </trkpt>
      <trkpt lat="43.60248" lon="6.3079">
        <ele>720.1</ele>
        <time>2024-10-30T13:30:47.000Z</time>
      </trkpt>
      <trkpt lat="43.60234" lon="6.30799">
        <ele>720.9</ele>
        <time>2024-10-30T13:31:02.000Z</time>
      </trkpt>
      <trkpt lat="43.60226" lon="6.30804">
        <ele>721.1</ele>
        <time>2024-10-30T13:31:09.000Z</time>
      </trkpt>
      <trkpt lat="43.60219" lon="6.3081">
        <ele>721.4</ele>
        <time>2024-10-30T13:31:17.000Z</time>
      </trkpt>
      <trkpt lat="43.60211" lon="6.30815">
        <ele>721.6</ele>
        <time>2024-10-30T13:31:25.000Z</time>
      </trkpt>
      <trkpt lat="43.60204" lon="6.3082">
        <ele>721.8</ele>
        <time>2024-10-30T13:31:33.000Z</time>
      </trkpt>
      <trkpt lat="43.60197" lon="6.30824">
        <ele>721.8</ele>
        <time>2024-10-30T13:31:39.000Z</time>
      </trkpt>
      <trkpt lat="43.60189" lon="6.30829">
        <ele>721.9</ele>
        <time>2024-10-30T13:31:45.000Z</time>
      </trkpt>
      <trkpt lat="43.60181" lon="6.30834">
        <ele>722</ele>
        <time>2024-10-30T13:31:52.000Z</time>
      </trkpt>
      <trkpt lat="43.6018" lon="6.30835">
        <ele>722.1</ele>
        <time>2024-10-30T13:31:53.000Z</time>
      </trkpt>
      <trkpt lat="43.60166" lon="6.30846">
        <ele>722.8</ele>
        <time>2024-10-30T13:32:07.000Z</time>
      </trkpt>
      <trkpt lat="43.60159" lon="6.30853">
        <ele>723.4</ele>
        <time>2024-10-30T13:32:16.000Z</time>
      </trkpt>
      <trkpt lat="43.60151" lon="6.30859">
        <ele>724.1</ele>
        <time>2024-10-30T13:32:25.000Z</time>
      </trkpt>
      <trkpt lat="43.60143" lon="6.30861">
        <ele>724.7</ele>
        <time>2024-10-30T13:32:32.000Z</time>
      </trkpt>
      <trkpt lat="43.60135" lon="6.30859">
        <ele>725.6</ele>
        <time>2024-10-30T13:32:41.000Z</time>
      </trkpt>
      <trkpt lat="43.60126" lon="6.3086">
        <ele>726.5</ele>
        <time>2024-10-30T13:32:52.000Z</time>
      </trkpt>
      <trkpt lat="43.60118" lon="6.30856">
        <ele>727.1</ele>
        <time>2024-10-30T13:33:00.000Z</time>
      </trkpt>
      <trkpt lat="43.60117" lon="6.30856">
        <ele>727.2</ele>
        <time>2024-10-30T13:33:01.000Z</time>
      </trkpt>
      <trkpt lat="43.60104" lon="6.30843">
        <ele>728.6</ele>
        <time>2024-10-30T13:33:21.000Z</time>
      </trkpt>
      <trkpt lat="43.60098" lon="6.30834">
        <ele>729.1</ele>
        <time>2024-10-30T13:33:29.000Z</time>
      </trkpt>
      <trkpt lat="43.60093" lon="6.30826">
        <ele>729.9</ele>
        <time>2024-10-30T13:33:43.000Z</time>
      </trkpt>
      <trkpt lat="43.60084" lon="6.30829">
        <ele>730.1</ele>
        <time>2024-10-30T13:33:54.000Z</time>
      </trkpt>
      <trkpt lat="43.60076" lon="6.30834">
        <ele>730</ele>
        <time>2024-10-30T13:34:02.000Z</time>
      </trkpt>
      <trkpt lat="43.60075" lon="6.30835">
        <ele>730</ele>
        <time>2024-10-30T13:34:03.000Z</time>
      </trkpt>
      <trkpt lat="43.60061" lon="6.30844">
        <ele>729.3</ele>
        <time>2024-10-30T13:34:20.000Z</time>
      </trkpt>
      <trkpt lat="43.60052" lon="6.30846">
        <ele>729.1</ele>
        <time>2024-10-30T13:34:29.000Z</time>
      </trkpt>
      <trkpt lat="43.60045" lon="6.30846">
        <ele>729</ele>
        <time>2024-10-30T13:34:35.000Z</time>
      </trkpt>
      <trkpt lat="43.60037" lon="6.30848">
        <ele>729</ele>
        <time>2024-10-30T13:34:41.000Z</time>
      </trkpt>
      <trkpt lat="43.60029" lon="6.30847">
        <ele>729.1</ele>
        <time>2024-10-30T13:34:49.000Z</time>
      </trkpt>
      <trkpt lat="43.60022" lon="6.30847">
        <ele>729</ele>
        <time>2024-10-30T13:34:54.000Z</time>
      </trkpt>
      <trkpt lat="43.60013" lon="6.30844">
        <ele>729</ele>
        <time>2024-10-30T13:35:02.000Z</time>
      </trkpt>
      <trkpt lat="43.60006" lon="6.30837">
        <ele>728.6</ele>
        <time>2024-10-30T13:35:11.000Z</time>
      </trkpt>
      <trkpt lat="43.60006" lon="6.30836">
        <ele>728.6</ele>
        <time>2024-10-30T13:35:12.000Z</time>
      </trkpt>
      <trkpt lat="43.5999" lon="6.30827">
        <ele>727.7</ele>
        <time>2024-10-30T13:35:28.000Z</time>
      </trkpt>
      <trkpt lat="43.59982" lon="6.30824">
        <ele>726.9</ele>
        <time>2024-10-30T13:35:37.000Z</time>
      </trkpt>
      <trkpt lat="43.59974" lon="6.30829">
        <ele>726.1</ele>
        <time>2024-10-30T13:35:48.000Z</time>
      </trkpt>
      <trkpt lat="43.59967" lon="6.30833">
        <ele>725.8</ele>
        <time>2024-10-30T13:35:55.000Z</time>
      </trkpt>
      <trkpt lat="43.5996" lon="6.30841">
        <ele>725.7</ele>
        <time>2024-10-30T13:36:05.000Z</time>
      </trkpt>
      <trkpt lat="43.59952" lon="6.30844">
        <ele>726.5</ele>
        <time>2024-10-30T13:36:16.000Z</time>
      </trkpt>
      <trkpt lat="43.59951" lon="6.30845">
        <ele>726.5</ele>
        <time>2024-10-30T13:36:17.000Z</time>
      </trkpt>
      <trkpt lat="43.59938" lon="6.30855">
        <ele>728</ele>
        <time>2024-10-30T13:36:31.000Z</time>
      </trkpt>
      <trkpt lat="43.59931" lon="6.30858">
        <ele>729.1</ele>
        <time>2024-10-30T13:36:42.000Z</time>
      </trkpt>
      <trkpt lat="43.59922" lon="6.3086">
        <ele>729.5</ele>
        <time>2024-10-30T13:36:50.000Z</time>
      </trkpt>
      <trkpt lat="43.59914" lon="6.30859">
        <ele>729.6</ele>
        <time>2024-10-30T13:36:57.000Z</time>
      </trkpt>
      <trkpt lat="43.59906" lon="6.30858">
        <ele>729.6</ele>
        <time>2024-10-30T13:37:04.000Z</time>
      </trkpt>
      <trkpt lat="43.59898" lon="6.30862">
        <ele>729.7</ele>
        <time>2024-10-30T13:37:12.000Z</time>
      </trkpt>
      <trkpt lat="43.5989" lon="6.30863">
        <ele>730</ele>
        <time>2024-10-30T13:37:20.000Z</time>
      </trkpt>
      <trkpt lat="43.59889" lon="6.30863">
        <ele>730</ele>
        <time>2024-10-30T13:37:21.000Z</time>
      </trkpt>
      <trkpt lat="43.59874" lon="6.30866">
        <ele>730.3</ele>
        <time>2024-10-30T13:37:33.000Z</time>
      </trkpt>
      <trkpt lat="43.59866" lon="6.30866">
        <ele>730.3</ele>
        <time>2024-10-30T13:37:40.000Z</time>
      </trkpt>
      <trkpt lat="43.59858" lon="6.3086">
        <ele>729.9</ele>
        <time>2024-10-30T13:37:53.000Z</time>
      </trkpt>
      <trkpt lat="43.59849" lon="6.30856">
        <ele>728.7</ele>
        <time>2024-10-30T13:38:05.000Z</time>
      </trkpt>
      <trkpt lat="43.59843" lon="6.30848">
        <ele>727.2</ele>
        <time>2024-10-30T13:38:16.000Z</time>
      </trkpt>
      <trkpt lat="43.59838" lon="6.30838">
        <ele>725.6</ele>
        <time>2024-10-30T13:38:28.000Z</time>
      </trkpt>
      <trkpt lat="43.59838" lon="6.30838">
        <ele>725.4</ele>
        <time>2024-10-30T13:38:29.000Z</time>
      </trkpt>
      <trkpt lat="43.59826" lon="6.30821">
        <ele>722.3</ele>
        <time>2024-10-30T13:38:52.000Z</time>
      </trkpt>
      <trkpt lat="43.59818" lon="6.30815">
        <ele>721.4</ele>
        <time>2024-10-30T13:39:02.000Z</time>
      </trkpt>
      <trkpt lat="43.5981" lon="6.30814">
        <ele>720.5</ele>
        <time>2024-10-30T13:39:11.000Z</time>
      </trkpt>
      <trkpt lat="43.59802" lon="6.30817">
        <ele>720</ele>
        <time>2024-10-30T13:39:19.000Z</time>
      </trkpt>
      <trkpt lat="43.59793" lon="6.30818">
        <ele>719.6</ele>
        <time>2024-10-30T13:39:28.000Z</time>
      </trkpt>
      <trkpt lat="43.59785" lon="6.30822">
        <ele>719.5</ele>
        <time>2024-10-30T13:39:39.000Z</time>
      </trkpt>
      <trkpt lat="43.59784" lon="6.30823">
        <ele>719.5</ele>
        <time>2024-10-30T13:39:40.000Z</time>
      </trkpt>
      <trkpt lat="43.5977" lon="6.30832">
        <ele>719.4</ele>
        <time>2024-10-30T13:40:11.000Z</time>
      </trkpt>
      <trkpt lat="43.59762" lon="6.30839">
        <ele>719</ele>
        <time>2024-10-30T13:40:25.000Z</time>
      </trkpt>
      <trkpt lat="43.59755" lon="6.30843">
        <ele>718.3</ele>
        <time>2024-10-30T13:40:39.000Z</time>
      </trkpt>
      <trkpt lat="43.59747" lon="6.30849">
        <ele>717.4</ele>
        <time>2024-10-30T13:40:52.000Z</time>
      </trkpt>
      <trkpt lat="43.59747" lon="6.30849">
        <ele>717.3</ele>
        <time>2024-10-30T13:40:53.000Z</time>
      </trkpt>
      <trkpt lat="43.59733" lon="6.30862">
        <ele>713.5</ele>
        <time>2024-10-30T13:41:56.000Z</time>
      </trkpt>
      <trkpt lat="43.59733" lon="6.30862">
        <ele>713.4</ele>
        <time>2024-10-30T13:41:57.000Z</time>
      </trkpt>
      <trkpt lat="43.59729" lon="6.30852">
        <ele>712.2</ele>
        <time>2024-10-30T13:44:02.000Z</time>
      </trkpt>
      <trkpt lat="43.59728" lon="6.30851">
        <ele>712.2</ele>
        <time>2024-10-30T13:44:03.000Z</time>
      </trkpt>
      <trkpt lat="43.59726" lon="6.30828">
        <ele>709.8</ele>
        <time>2024-10-30T13:44:33.000Z</time>
      </trkpt>
      <trkpt lat="43.59724" lon="6.30817">
        <ele>708.5</ele>
        <time>2024-10-30T13:44:45.000Z</time>
      </trkpt>
      <trkpt lat="43.59724" lon="6.30806">
        <ele>707.6</ele>
        <time>2024-10-30T13:44:55.000Z</time>
      </trkpt>
      <trkpt lat="43.59727" lon="6.30795">
        <ele>706.7</ele>
        <time>2024-10-30T13:45:04.000Z</time>
      </trkpt>
      <trkpt lat="43.59727" lon="6.30794">
        <ele>706.7</ele>
        <time>2024-10-30T13:45:05.000Z</time>
      </trkpt>
      <trkpt lat="43.59729" lon="6.30771">
        <ele>705.3</ele>
        <time>2024-10-30T13:45:27.000Z</time>
      </trkpt>
      <trkpt lat="43.59724" lon="6.30762">
        <ele>703.6</ele>
        <time>2024-10-30T13:45:57.000Z</time>
      </trkpt>
      <trkpt lat="43.59716" lon="6.30769">
        <ele>702.5</ele>
        <time>2024-10-30T13:46:10.000Z</time>
      </trkpt>
      <trkpt lat="43.59716" lon="6.30769">
        <ele>702.4</ele>
        <time>2024-10-30T13:46:11.000Z</time>
      </trkpt>
      <trkpt lat="43.597" lon="6.30777">
        <ele>701.1</ele>
        <time>2024-10-30T13:46:32.000Z</time>
      </trkpt>
      <trkpt lat="43.59691" lon="6.30779">
        <ele>700</ele>
        <time>2024-10-30T13:46:50.000Z</time>
      </trkpt>
      <trkpt lat="43.59683" lon="6.30782">
        <ele>699.3</ele>
        <time>2024-10-30T13:47:09.000Z</time>
      </trkpt>
      <trkpt lat="43.59674" lon="6.30781">
        <ele>699</ele>
        <time>2024-10-30T13:47:19.000Z</time>
      </trkpt>
      <trkpt lat="43.59674" lon="6.30781">
        <ele>698.9</ele>
        <time>2024-10-30T13:47:20.000Z</time>
      </trkpt>
      <trkpt lat="43.59659" lon="6.30772">
        <ele>698</ele>
        <time>2024-10-30T13:47:41.000Z</time>
      </trkpt>
      <trkpt lat="43.59652" lon="6.30765">
        <ele>697.4</ele>
        <time>2024-10-30T13:47:54.000Z</time>
      </trkpt>
      <trkpt lat="43.59644" lon="6.30759">
        <ele>696</ele>
        <time>2024-10-30T13:48:08.000Z</time>
      </trkpt>
      <trkpt lat="43.59636" lon="6.30758">
        <ele>694.2</ele>
        <time>2024-10-30T13:48:21.000Z</time>
      </trkpt>
      <trkpt lat="43.59635" lon="6.30758">
        <ele>694.1</ele>
        <time>2024-10-30T13:48:22.000Z</time>
      </trkpt>
      <trkpt lat="43.59621" lon="6.30748">
        <ele>691.7</ele>
        <time>2024-10-30T13:48:42.000Z</time>
      </trkpt>
      <trkpt lat="43.59612" lon="6.30743">
        <ele>690.6</ele>
        <time>2024-10-30T13:48:52.000Z</time>
      </trkpt>
      <trkpt lat="43.59605" lon="6.30739">
        <ele>689.7</ele>
        <time>2024-10-30T13:49:00.000Z</time>
      </trkpt>
      <trkpt lat="43.59596" lon="6.30735">
        <ele>688.7</ele>
        <time>2024-10-30T13:49:11.000Z</time>
      </trkpt>
      <trkpt lat="43.59588" lon="6.30734">
        <ele>687.3</ele>
        <time>2024-10-30T13:49:26.000Z</time>
      </trkpt>
      <trkpt lat="43.59587" lon="6.30734">
        <ele>687.2</ele>
        <time>2024-10-30T13:49:27.000Z</time>
      </trkpt>
      <trkpt lat="43.59571" lon="6.30739">
        <ele>684.9</ele>
        <time>2024-10-30T13:49:44.000Z</time>
      </trkpt>
      <trkpt lat="43.59563" lon="6.30744">
        <ele>683.8</ele>
        <time>2024-10-30T13:49:53.000Z</time>
      </trkpt>
      <trkpt lat="43.59558" lon="6.30753">
        <ele>682.9</ele>
        <time>2024-10-30T13:50:05.000Z</time>
      </trkpt>
      <trkpt lat="43.59553" lon="6.30764">
        <ele>682.6</ele>
        <time>2024-10-30T13:50:15.000Z</time>
      </trkpt>
      <trkpt lat="43.59549" lon="6.30774">
        <ele>681.4</ele>
        <time>2024-10-30T13:50:41.000Z</time>
      </trkpt>
      <trkpt lat="43.59549" lon="6.30774">
        <ele>681.4</ele>
        <time>2024-10-30T13:50:42.000Z</time>
      </trkpt>
      <trkpt lat="43.59534" lon="6.30785">
        <ele>680.3</ele>
        <time>2024-10-30T13:51:04.000Z</time>
      </trkpt>
      <trkpt lat="43.59526" lon="6.30787">
        <ele>679.1</ele>
        <time>2024-10-30T13:51:16.000Z</time>
      </trkpt>
      <trkpt lat="43.59518" lon="6.30786">
        <ele>678.3</ele>
        <time>2024-10-30T13:51:25.000Z</time>
      </trkpt>
      <trkpt lat="43.59509" lon="6.30784">
        <ele>677.5</ele>
        <time>2024-10-30T13:51:32.000Z</time>
      </trkpt>
      <trkpt lat="43.59501" lon="6.30783">
        <ele>676.3</ele>
        <time>2024-10-30T13:51:40.000Z</time>
      </trkpt>
      <trkpt lat="43.59493" lon="6.30778">
        <ele>675.2</ele>
        <time>2024-10-30T13:51:49.000Z</time>
      </trkpt>
      <trkpt lat="43.59493" lon="6.30777">
        <ele>675.1</ele>
        <time>2024-10-30T13:51:50.000Z</time>
      </trkpt>
      <trkpt lat="43.59481" lon="6.30761">
        <ele>673.3</ele>
        <time>2024-10-30T13:52:08.000Z</time>
      </trkpt>
      <trkpt lat="43.59477" lon="6.3075">
        <ele>672.2</ele>
        <time>2024-10-30T13:52:17.000Z</time>
      </trkpt>
      <trkpt lat="43.59472" lon="6.30742">
        <ele>671.7</ele>
        <time>2024-10-30T13:52:24.000Z</time>
      </trkpt>
      <trkpt lat="43.59466" lon="6.30733">
        <ele>671.2</ele>
        <time>2024-10-30T13:52:31.000Z</time>
      </trkpt>
      <trkpt lat="43.59461" lon="6.30724">
        <ele>670.3</ele>
        <time>2024-10-30T13:52:40.000Z</time>
      </trkpt>
      <trkpt lat="43.59458" lon="6.30713">
        <ele>669.6</ele>
        <time>2024-10-30T13:52:49.000Z</time>
      </trkpt>
      <trkpt lat="43.59455" lon="6.30703">
        <ele>669</ele>
        <time>2024-10-30T13:52:57.000Z</time>
      </trkpt>
      <trkpt lat="43.59455" lon="6.30701">
        <ele>669</ele>
        <time>2024-10-30T13:52:58.000Z</time>
      </trkpt>
      <trkpt lat="43.5944" lon="6.30694">
        <ele>667.8</ele>
        <time>2024-10-30T13:53:16.000Z</time>
      </trkpt>
      <trkpt lat="43.59432" lon="6.30689">
        <ele>667.3</ele>
        <time>2024-10-30T13:53:26.000Z</time>
      </trkpt>
      <trkpt lat="43.59424" lon="6.30688">
        <ele>666.8</ele>
        <time>2024-10-30T13:53:31.000Z</time>
      </trkpt>
      <trkpt lat="43.59416" lon="6.30683">
        <ele>666</ele>
        <time>2024-10-30T13:53:41.000Z</time>
      </trkpt>
      <trkpt lat="43.5941" lon="6.30678">
        <ele>665.5</ele>
        <time>2024-10-30T13:53:49.000Z</time>
      </trkpt>
      <trkpt lat="43.59404" lon="6.3067">
        <ele>665</ele>
        <time>2024-10-30T13:53:59.000Z</time>
      </trkpt>
      <trkpt lat="43.59402" lon="6.3067">
        <ele>665</ele>
        <time>2024-10-30T13:54:00.000Z</time>
      </trkpt>
      <trkpt lat="43.59388" lon="6.30662">
        <ele>664.5</ele>
        <time>2024-10-30T13:54:13.000Z</time>
      </trkpt>
      <trkpt lat="43.5938" lon="6.30667">
        <ele>663.9</ele>
        <time>2024-10-30T13:54:23.000Z</time>
      </trkpt>
      <trkpt lat="43.59374" lon="6.30675">
        <ele>664</ele>
        <time>2024-10-30T13:54:31.000Z</time>
      </trkpt>
      <trkpt lat="43.59372" lon="6.30687">
        <ele>663.8</ele>
        <time>2024-10-30T13:54:40.000Z</time>
      </trkpt>
      <trkpt lat="43.59369" lon="6.30698">
        <ele>664.1</ele>
        <time>2024-10-30T13:54:50.000Z</time>
      </trkpt>
      <trkpt lat="43.59363" lon="6.30706">
        <ele>664.3</ele>
        <time>2024-10-30T13:54:57.000Z</time>
      </trkpt>
      <trkpt lat="43.5936" lon="6.30716">
        <ele>664.3</ele>
        <time>2024-10-30T13:55:04.000Z</time>
      </trkpt>
      <trkpt lat="43.59359" lon="6.30717">
        <ele>664.3</ele>
        <time>2024-10-30T13:55:05.000Z</time>
      </trkpt>
      <trkpt lat="43.5935" lon="6.30735">
        <ele>664.2</ele>
        <time>2024-10-30T13:55:19.000Z</time>
      </trkpt>
      <trkpt lat="43.59345" lon="6.30745">
        <ele>664.1</ele>
        <time>2024-10-30T13:55:27.000Z</time>
      </trkpt>
      <trkpt lat="43.5934" lon="6.30754">
        <ele>664</ele>
        <time>2024-10-30T13:55:35.000Z</time>
      </trkpt>
      <trkpt lat="43.59336" lon="6.30763">
        <ele>663.9</ele>
        <time>2024-10-30T13:55:42.000Z</time>
      </trkpt>
      <trkpt lat="43.59332" lon="6.30774">
        <ele>663.7</ele>
        <time>2024-10-30T13:55:52.000Z</time>
      </trkpt>
      <trkpt lat="43.59325" lon="6.30781">
        <ele>663.8</ele>
        <time>2024-10-30T13:56:01.000Z</time>
      </trkpt>
      <trkpt lat="43.59318" lon="6.30786">
        <ele>663.8</ele>
        <time>2024-10-30T13:56:08.000Z</time>
      </trkpt>
      <trkpt lat="43.59317" lon="6.30787">
        <ele>663.8</ele>
        <time>2024-10-30T13:56:09.000Z</time>
      </trkpt>
      <trkpt lat="43.59308" lon="6.30804">
        <ele>664.5</ele>
        <time>2024-10-30T13:56:23.000Z</time>
      </trkpt>
      <trkpt lat="43.59307" lon="6.30814">
        <ele>665</ele>
        <time>2024-10-30T13:56:31.000Z</time>
      </trkpt>
      <trkpt lat="43.59304" lon="6.30826">
        <ele>665.7</ele>
        <time>2024-10-30T13:56:40.000Z</time>
      </trkpt>
      <trkpt lat="43.59303" lon="6.30837">
        <ele>666.4</ele>
        <time>2024-10-30T13:56:48.000Z</time>
      </trkpt>
      <trkpt lat="43.59303" lon="6.30849">
        <ele>667.3</ele>
        <time>2024-10-30T13:57:00.000Z</time>
      </trkpt>
      <trkpt lat="43.59299" lon="6.30859">
        <ele>667.7</ele>
        <time>2024-10-30T13:57:09.000Z</time>
      </trkpt>
      <trkpt lat="43.59299" lon="6.30861">
        <ele>667.8</ele>
        <time>2024-10-30T13:57:10.000Z</time>
      </trkpt>
      <trkpt lat="43.59298" lon="6.30883">
        <ele>668</ele>
        <time>2024-10-30T13:57:24.000Z</time>
      </trkpt>
      <trkpt lat="43.59296" lon="6.30895">
        <ele>668</ele>
        <time>2024-10-30T13:57:31.000Z</time>
      </trkpt>
      <trkpt lat="43.59298" lon="6.30905">
        <ele>668</ele>
        <time>2024-10-30T13:57:37.000Z</time>
      </trkpt>
      <trkpt lat="43.593" lon="6.30918">
        <ele>667.9</ele>
        <time>2024-10-30T13:57:45.000Z</time>
      </trkpt>
      <trkpt lat="43.593" lon="6.30929">
        <ele>668</ele>
        <time>2024-10-30T13:57:52.000Z</time>
      </trkpt>
      <trkpt lat="43.593" lon="6.30941">
        <ele>668.2</ele>
        <time>2024-10-30T13:58:00.000Z</time>
      </trkpt>
      <trkpt lat="43.593" lon="6.30952">
        <ele>668.5</ele>
        <time>2024-10-30T13:58:08.000Z</time>
      </trkpt>
      <trkpt lat="43.59301" lon="6.30963">
        <ele>668.6</ele>
        <time>2024-10-30T13:58:15.000Z</time>
      </trkpt>
      <trkpt lat="43.59301" lon="6.30965">
        <ele>668.7</ele>
        <time>2024-10-30T13:58:16.000Z</time>
      </trkpt>
      <trkpt lat="43.59302" lon="6.30986">
        <ele>668.4</ele>
        <time>2024-10-30T13:58:30.000Z</time>
      </trkpt>
      <trkpt lat="43.59301" lon="6.30998">
        <ele>668.4</ele>
        <time>2024-10-30T13:58:38.000Z</time>
      </trkpt>
      <trkpt lat="43.593" lon="6.31009">
        <ele>668.7</ele>
        <time>2024-10-30T13:58:46.000Z</time>
      </trkpt>
      <trkpt lat="43.59298" lon="6.31021">
        <ele>668.8</ele>
        <time>2024-10-30T13:58:53.000Z</time>
      </trkpt>
      <trkpt lat="43.59296" lon="6.31032">
        <ele>669.2</ele>
        <time>2024-10-30T13:59:00.000Z</time>
      </trkpt>
      <trkpt lat="43.59293" lon="6.31043">
        <ele>669.5</ele>
        <time>2024-10-30T13:59:08.000Z</time>
      </trkpt>
      <trkpt lat="43.5929" lon="6.31054">
        <ele>669.8</ele>
        <time>2024-10-30T13:59:15.000Z</time>
      </trkpt>
      <trkpt lat="43.59288" lon="6.31066">
        <ele>670</ele>
        <time>2024-10-30T13:59:23.000Z</time>
      </trkpt>
      <trkpt lat="43.59287" lon="6.31067">
        <ele>670.1</ele>
        <time>2024-10-30T13:59:24.000Z</time>
      </trkpt>
      <trkpt lat="43.59281" lon="6.31087">
        <ele>671.1</ele>
        <time>2024-10-30T13:59:41.000Z</time>
      </trkpt>
      <trkpt lat="43.59279" lon="6.31099">
        <ele>671.8</ele>
        <time>2024-10-30T13:59:50.000Z</time>
      </trkpt>
      <trkpt lat="43.59275" lon="6.31109">
        <ele>672.1</ele>
        <time>2024-10-30T13:59:57.000Z</time>
      </trkpt>
      <trkpt lat="43.5927" lon="6.31118">
        <ele>672.5</ele>
        <time>2024-10-30T14:00:04.000Z</time>
      </trkpt>
      <trkpt lat="43.59266" lon="6.31128">
        <ele>672.9</ele>
        <time>2024-10-30T14:00:11.000Z</time>
      </trkpt>
      <trkpt lat="43.59258" lon="6.31128">
        <ele>673.4</ele>
        <time>2024-10-30T14:00:19.000Z</time>
      </trkpt>
      <trkpt lat="43.59249" lon="6.31126">
        <ele>673.6</ele>
        <time>2024-10-30T14:00:25.000Z</time>
      </trkpt>
      <trkpt lat="43.59248" lon="6.31125">
        <ele>673.6</ele>
        <time>2024-10-30T14:00:26.000Z</time>
      </trkpt>
      <trkpt lat="43.59235" lon="6.31111">
        <ele>673.8</ele>
        <time>2024-10-30T14:00:40.000Z</time>
      </trkpt>
      <trkpt lat="43.59228" lon="6.31105">
        <ele>674.2</ele>
        <time>2024-10-30T14:00:49.000Z</time>
      </trkpt>
      <trkpt lat="43.59223" lon="6.31096">
        <ele>674.4</ele>
        <time>2024-10-30T14:00:57.000Z</time>
      </trkpt>
      <trkpt lat="43.59219" lon="6.31087">
        <ele>674.5</ele>
        <time>2024-10-30T14:01:03.000Z</time>
      </trkpt>
      <trkpt lat="43.59214" lon="6.31077">
        <ele>674.6</ele>
        <time>2024-10-30T14:01:10.000Z</time>
      </trkpt>
      <trkpt lat="43.59211" lon="6.31066">
        <ele>674.5</ele>
        <time>2024-10-30T14:01:18.000Z</time>
      </trkpt>
      <trkpt lat="43.59207" lon="6.31055">
        <ele>674.3</ele>
        <time>2024-10-30T14:01:25.000Z</time>
      </trkpt>
      <trkpt lat="43.59205" lon="6.31045">
        <ele>674.1</ele>
        <time>2024-10-30T14:01:31.000Z</time>
      </trkpt>
      <trkpt lat="43.59204" lon="6.31043">
        <ele>674.1</ele>
        <time>2024-10-30T14:01:32.000Z</time>
      </trkpt>
      <trkpt lat="43.59202" lon="6.31023">
        <ele>673.6</ele>
        <time>2024-10-30T14:01:45.000Z</time>
      </trkpt>
      <trkpt lat="43.592" lon="6.31011">
        <ele>673.6</ele>
        <time>2024-10-30T14:01:51.000Z</time>
      </trkpt>
      <trkpt lat="43.59198" lon="6.31">
        <ele>673.5</ele>
        <time>2024-10-30T14:01:57.000Z</time>
      </trkpt>
      <trkpt lat="43.59196" lon="6.30989">
        <ele>673.3</ele>
        <time>2024-10-30T14:02:03.000Z</time>
      </trkpt>
      <trkpt lat="43.59193" lon="6.30978">
        <ele>673.1</ele>
        <time>2024-10-30T14:02:10.000Z</time>
      </trkpt>
      <trkpt lat="43.59189" lon="6.30968">
        <ele>672.8</ele>
        <time>2024-10-30T14:02:17.000Z</time>
      </trkpt>
      <trkpt lat="43.59187" lon="6.30957">
        <ele>672.2</ele>
        <time>2024-10-30T14:02:24.000Z</time>
      </trkpt>
      <trkpt lat="43.59186" lon="6.30946">
        <ele>671.3</ele>
        <time>2024-10-30T14:02:31.000Z</time>
      </trkpt>
      <trkpt lat="43.59184" lon="6.30934">
        <ele>670.6</ele>
        <time>2024-10-30T14:02:38.000Z</time>
      </trkpt>
      <trkpt lat="43.59184" lon="6.30933">
        <ele>670.5</ele>
        <time>2024-10-30T14:02:39.000Z</time>
      </trkpt>
      <trkpt lat="43.59184" lon="6.30911">
        <ele>669.2</ele>
        <time>2024-10-30T14:02:54.000Z</time>
      </trkpt>
      <trkpt lat="43.59184" lon="6.309">
        <ele>668.6</ele>
        <time>2024-10-30T14:03:02.000Z</time>
      </trkpt>
      <trkpt lat="43.59183" lon="6.30888">
        <ele>667.8</ele>
        <time>2024-10-30T14:03:10.000Z</time>
      </trkpt>
      <trkpt lat="43.59184" lon="6.30877">
        <ele>666.5</ele>
        <time>2024-10-30T14:03:17.000Z</time>
      </trkpt>
      <trkpt lat="43.59183" lon="6.30866">
        <ele>665.3</ele>
        <time>2024-10-30T14:03:24.000Z</time>
      </trkpt>
      <trkpt lat="43.59181" lon="6.30855">
        <ele>664.5</ele>
        <time>2024-10-30T14:03:31.000Z</time>
      </trkpt>
      <trkpt lat="43.59178" lon="6.30844">
        <ele>663.4</ele>
        <time>2024-10-30T14:03:38.000Z</time>
      </trkpt>
      <trkpt lat="43.59173" lon="6.30834">
        <ele>662.5</ele>
        <time>2024-10-30T14:03:45.000Z</time>
      </trkpt>
      <trkpt lat="43.59172" lon="6.30832">
        <ele>662.4</ele>
        <time>2024-10-30T14:03:46.000Z</time>
      </trkpt>
      <trkpt lat="43.59161" lon="6.30817">
        <ele>661.1</ele>
        <time>2024-10-30T14:03:59.000Z</time>
      </trkpt>
      <trkpt lat="43.59154" lon="6.30809">
        <ele>660.5</ele>
        <time>2024-10-30T14:04:06.000Z</time>
      </trkpt>
      <trkpt lat="43.59148" lon="6.30801">
        <ele>660</ele>
        <time>2024-10-30T14:04:13.000Z</time>
      </trkpt>
      <trkpt lat="43.59142" lon="6.30794">
        <ele>659.6</ele>
        <time>2024-10-30T14:04:20.000Z</time>
      </trkpt>
      <trkpt lat="43.59136" lon="6.30785">
        <ele>658.9</ele>
        <time>2024-10-30T14:04:28.000Z</time>
      </trkpt>
      <trkpt lat="43.59131" lon="6.30775">
        <ele>658.1</ele>
        <time>2024-10-30T14:04:37.000Z</time>
      </trkpt>
      <trkpt lat="43.59125" lon="6.30766">
        <ele>657.5</ele>
        <time>2024-10-30T14:04:46.000Z</time>
      </trkpt>
      <trkpt lat="43.59125" lon="6.30764">
        <ele>657.4</ele>
        <time>2024-10-30T14:04:47.000Z</time>
      </trkpt>
      <trkpt lat="43.59118" lon="6.30745">
        <ele>656.8</ele>
        <time>2024-10-30T14:05:00.000Z</time>
      </trkpt>
      <trkpt lat="43.59115" lon="6.30735">
        <ele>656.4</ele>
        <time>2024-10-30T14:05:06.000Z</time>
      </trkpt>
      <trkpt lat="43.59112" lon="6.30724">
        <ele>656.1</ele>
        <time>2024-10-30T14:05:13.000Z</time>
      </trkpt>
      <trkpt lat="43.59108" lon="6.30714">
        <ele>655.7</ele>
        <time>2024-10-30T14:05:20.000Z</time>
      </trkpt>
      <trkpt lat="43.59104" lon="6.30703">
        <ele>654.9</ele>
        <time>2024-10-30T14:05:27.000Z</time>
      </trkpt>
      <trkpt lat="43.591" lon="6.30693">
        <ele>654.4</ele>
        <time>2024-10-30T14:05:34.000Z</time>
      </trkpt>
      <trkpt lat="43.59095" lon="6.30683">
        <ele>653.8</ele>
        <time>2024-10-30T14:05:42.000Z</time>
      </trkpt>
      <trkpt lat="43.59089" lon="6.30675">
        <ele>653</ele>
        <time>2024-10-30T14:05:50.000Z</time>
      </trkpt>
      <trkpt lat="43.59089" lon="6.30674">
        <ele>652.8</ele>
        <time>2024-10-30T14:05:51.000Z</time>
      </trkpt>
      <trkpt lat="43.59078" lon="6.30656">
        <ele>650.8</ele>
        <time>2024-10-30T14:06:07.000Z</time>
      </trkpt>
      <trkpt lat="43.59071" lon="6.30649">
        <ele>649.9</ele>
        <time>2024-10-30T14:06:14.000Z</time>
      </trkpt>
      <trkpt lat="43.59065" lon="6.30642">
        <ele>649.5</ele>
        <time>2024-10-30T14:06:21.000Z</time>
      </trkpt>
      <trkpt lat="43.5906" lon="6.30633">
        <ele>648.9</ele>
        <time>2024-10-30T14:06:29.000Z</time>
      </trkpt>
      <trkpt lat="43.59054" lon="6.30624">
        <ele>647.9</ele>
        <time>2024-10-30T14:06:38.000Z</time>
      </trkpt>
      <trkpt lat="43.59047" lon="6.30617">
        <ele>647.2</ele>
        <time>2024-10-30T14:06:46.000Z</time>
      </trkpt>
      <trkpt lat="43.5904" lon="6.3061">
        <ele>646.6</ele>
        <time>2024-10-30T14:06:53.000Z</time>
      </trkpt>
      <trkpt lat="43.5904" lon="6.30609">
        <ele>646.5</ele>
        <time>2024-10-30T14:06:54.000Z</time>
      </trkpt>
      <trkpt lat="43.5903" lon="6.30592">
        <ele>644.4</ele>
        <time>2024-10-30T14:07:17.000Z</time>
      </trkpt>
      <trkpt lat="43.59024" lon="6.30583">
        <ele>643.3</ele>
        <time>2024-10-30T14:07:26.000Z</time>
      </trkpt>
      <trkpt lat="43.59019" lon="6.30573">
        <ele>642.3</ele>
        <time>2024-10-30T14:07:34.000Z</time>
      </trkpt>
      <trkpt lat="43.59013" lon="6.30566">
        <ele>641.5</ele>
        <time>2024-10-30T14:07:41.000Z</time>
      </trkpt>
      <trkpt lat="43.59008" lon="6.30557">
        <ele>640.4</ele>
        <time>2024-10-30T14:07:47.000Z</time>
      </trkpt>
      <trkpt lat="43.59003" lon="6.30548">
        <ele>639.6</ele>
        <time>2024-10-30T14:07:54.000Z</time>
      </trkpt>
      <trkpt lat="43.59002" lon="6.30547">
        <ele>639.5</ele>
        <time>2024-10-30T14:07:55.000Z</time>
      </trkpt>
      <trkpt lat="43.58988" lon="6.30537">
        <ele>638.5</ele>
        <time>2024-10-30T14:08:07.000Z</time>
      </trkpt>
      <trkpt lat="43.5898" lon="6.30533">
        <ele>638.1</ele>
        <time>2024-10-30T14:08:15.000Z</time>
      </trkpt>
      <trkpt lat="43.58972" lon="6.30529">
        <ele>637.8</ele>
        <time>2024-10-30T14:08:22.000Z</time>
      </trkpt>
      <trkpt lat="43.58965" lon="6.30524">
        <ele>637.7</ele>
        <time>2024-10-30T14:08:29.000Z</time>
      </trkpt>
      <trkpt lat="43.58957" lon="6.30519">
        <ele>637.5</ele>
        <time>2024-10-30T14:08:37.000Z</time>
      </trkpt>
      <trkpt lat="43.58949" lon="6.30516">
        <ele>637.6</ele>
        <time>2024-10-30T14:08:44.000Z</time>
      </trkpt>
      <trkpt lat="43.58942" lon="6.30512">
        <ele>637.7</ele>
        <time>2024-10-30T14:08:52.000Z</time>
      </trkpt>
      <trkpt lat="43.58935" lon="6.30506">
        <ele>638.1</ele>
        <time>2024-10-30T14:09:00.000Z</time>
      </trkpt>
      <trkpt lat="43.58934" lon="6.30505">
        <ele>638.2</ele>
        <time>2024-10-30T14:09:01.000Z</time>
      </trkpt>
      <trkpt lat="43.58924" lon="6.30489">
        <ele>639.1</ele>
        <time>2024-10-30T14:09:21.000Z</time>
      </trkpt>
      <trkpt lat="43.58919" lon="6.30479">
        <ele>639.5</ele>
        <time>2024-10-30T14:09:33.000Z</time>
      </trkpt>
      <trkpt lat="43.58915" lon="6.30469">
        <ele>639.7</ele>
        <time>2024-10-30T14:09:42.000Z</time>
      </trkpt>
      <trkpt lat="43.5891" lon="6.3046">
        <ele>639.9</ele>
        <time>2024-10-30T14:09:50.000Z</time>
      </trkpt>
      <trkpt lat="43.58908" lon="6.30449">
        <ele>640.3</ele>
        <time>2024-10-30T14:10:03.000Z</time>
      </trkpt>
      <trkpt lat="43.58907" lon="6.30447">
        <ele>640.3</ele>
        <time>2024-10-30T14:10:04.000Z</time>
      </trkpt>
      <trkpt lat="43.58905" lon="6.30427">
        <ele>641.1</ele>
        <time>2024-10-30T14:10:27.000Z</time>
      </trkpt>
      <trkpt lat="43.58902" lon="6.30415">
        <ele>641.6</ele>
        <time>2024-10-30T14:10:34.000Z</time>
      </trkpt>
      <trkpt lat="43.589" lon="6.30403">
        <ele>641.8</ele>
        <time>2024-10-30T14:10:43.000Z</time>
      </trkpt>
      <trkpt lat="43.58902" lon="6.30392">
        <ele>642.2</ele>
        <time>2024-10-30T14:10:51.000Z</time>
      </trkpt>
      <trkpt lat="43.58899" lon="6.30382">
        <ele>643</ele>
        <time>2024-10-30T14:11:01.000Z</time>
      </trkpt>
      <trkpt lat="43.58899" lon="6.3037">
        <ele>643.8</ele>
        <time>2024-10-30T14:11:14.000Z</time>
      </trkpt>
      <trkpt lat="43.589" lon="6.30369">
        <ele>643.8</ele>
        <time>2024-10-30T14:11:15.000Z</time>
      </trkpt>
      <trkpt lat="43.58882" lon="6.30371">
        <ele>646</ele>
        <time>2024-10-30T14:11:41.000Z</time>
      </trkpt>
      <trkpt lat="43.58875" lon="6.30365">
        <ele>646.9</ele>
        <time>2024-10-30T14:11:50.000Z</time>
      </trkpt>
      <trkpt lat="43.58866" lon="6.30364">
        <ele>647.8</ele>
        <time>2024-10-30T14:12:03.000Z</time>
      </trkpt>
      <trkpt lat="43.58861" lon="6.30372">
        <ele>648.6</ele>
        <time>2024-10-30T14:12:15.000Z</time>
      </trkpt>
      <trkpt lat="43.5886" lon="6.30373">
        <ele>648.7</ele>
        <time>2024-10-30T14:12:16.000Z</time>
      </trkpt>
      <trkpt lat="43.58849" lon="6.3039">
        <ele>650.7</ele>
        <time>2024-10-30T14:12:39.000Z</time>
      </trkpt>
      <trkpt lat="43.58844" lon="6.30399">
        <ele>651.7</ele>
        <time>2024-10-30T14:12:51.000Z</time>
      </trkpt>
      <trkpt lat="43.58838" lon="6.30408">
        <ele>652.8</ele>
        <time>2024-10-30T14:13:05.000Z</time>
      </trkpt>
      <trkpt lat="43.58832" lon="6.30417">
        <ele>654.2</ele>
        <time>2024-10-30T14:13:20.000Z</time>
      </trkpt>
      <trkpt lat="43.58832" lon="6.30418">
        <ele>654.4</ele>
        <time>2024-10-30T14:13:21.000Z</time>
      </trkpt>
      <trkpt lat="43.58819" lon="6.30433">
        <ele>656.2</ele>
        <time>2024-10-30T14:13:51.000Z</time>
      </trkpt>
      <trkpt lat="43.58815" lon="6.30425">
        <ele>657</ele>
        <time>2024-10-30T14:15:11.000Z</time>
      </trkpt>
      <trkpt lat="43.58814" lon="6.30422">
        <ele>657.6</ele>
        <time>2024-10-30T14:15:14.000Z</time>
      </trkpt>
      <trkpt lat="43.58816" lon="6.30439">
        <ele>657</ele>
        <time>2024-10-30T14:15:36.000Z</time>
      </trkpt>
      <trkpt lat="43.58824" lon="6.30437">
        <ele>657.8</ele>
        <time>2024-10-30T14:16:27.000Z</time>
      </trkpt>
      <trkpt lat="43.58825" lon="6.30439">
        <ele>657.8</ele>
        <time>2024-10-30T14:16:28.000Z</time>
      </trkpt>
      <trkpt lat="43.58832" lon="6.30458">
        <ele>658.2</ele>
        <time>2024-10-30T14:16:42.000Z</time>
      </trkpt>
      <trkpt lat="43.58833" lon="6.3047">
        <ele>658.6</ele>
        <time>2024-10-30T14:16:52.000Z</time>
      </trkpt>
      <trkpt lat="43.58828" lon="6.3048">
        <ele>659.2</ele>
        <time>2024-10-30T14:17:09.000Z</time>
      </trkpt>
      <trkpt lat="43.58836" lon="6.30484">
        <ele>659.8</ele>
        <time>2024-10-30T14:18:45.000Z</time>
      </trkpt>
      <trkpt lat="43.58837" lon="6.30484">
        <ele>659.8</ele>
        <time>2024-10-30T14:18:46.000Z</time>
      </trkpt>
      <trkpt lat="43.58833" lon="6.30506">
        <ele>659.4</ele>
        <time>2024-10-30T14:19:15.000Z</time>
      </trkpt>
      <trkpt lat="43.58829" lon="6.30516">
        <ele>659.1</ele>
        <time>2024-10-30T14:19:28.000Z</time>
      </trkpt>
      <trkpt lat="43.58837" lon="6.30513">
        <ele>657.8</ele>
        <time>2024-10-30T14:20:05.000Z</time>
      </trkpt>
      <trkpt lat="43.58837" lon="6.30512">
        <ele>657.8</ele>
        <time>2024-10-30T14:20:06.000Z</time>
      </trkpt>
      <trkpt lat="43.58837" lon="6.30489">
        <ele>658.6</ele>
        <time>2024-10-30T14:20:37.000Z</time>
      </trkpt>
      <trkpt lat="43.58835" lon="6.30478">
        <ele>658.3</ele>
        <time>2024-10-30T14:20:46.000Z</time>
      </trkpt>
      <trkpt lat="43.58831" lon="6.30469">
        <ele>658.4</ele>
        <time>2024-10-30T14:20:54.000Z</time>
      </trkpt>
      <trkpt lat="43.58829" lon="6.30458">
        <ele>658.5</ele>
        <time>2024-10-30T14:21:01.000Z</time>
      </trkpt>
      <trkpt lat="43.58826" lon="6.30447">
        <ele>658.5</ele>
        <time>2024-10-30T14:21:09.000Z</time>
      </trkpt>
      <trkpt lat="43.58826" lon="6.30445">
        <ele>658.5</ele>
        <time>2024-10-30T14:21:10.000Z</time>
      </trkpt>
      <trkpt lat="43.58809" lon="6.30453">
        <ele>658.2</ele>
        <time>2024-10-30T14:21:24.000Z</time>
      </trkpt>
      <trkpt lat="43.58802" lon="6.3046">
        <ele>658</ele>
        <time>2024-10-30T14:21:30.000Z</time>
      </trkpt>
      <trkpt lat="43.58797" lon="6.3047">
        <ele>657.8</ele>
        <time>2024-10-30T14:21:37.000Z</time>
      </trkpt>
      <trkpt lat="43.58794" lon="6.3048">
        <ele>657.6</ele>
        <time>2024-10-30T14:21:44.000Z</time>
      </trkpt>
      <trkpt lat="43.5879" lon="6.30491">
        <ele>657.4</ele>
        <time>2024-10-30T14:21:53.000Z</time>
      </trkpt>
    </trkseg>
  </trk>
</gpx>